     2              OBSERVATION DATA    GPS                 RINEX VERSION / TYPE
ASHTORIN MIT 28 - OCT - 96 11:27                            PGM / RUN BY / DATE
                                                            COMMENT
--> THIS IS THE START OF A NEW SITE <---                    COMMENT
--> THIS IS THE START OF A NEW SITE <---                    COMMENT
Original Marker Name: GS19                                  COMMENT
Campaign Name: China Lake Nov 1996                          COMMENT
4-Character Station Name: GS19                              COMMENT
6-Character Antenna Code: ASHP12                            COMMENT
Vertical Measurement Point: TGP                             COMMENT
Vertical Offset to Rinex Ref. Point: 0.0640                 COMMENT
Radial Measurement Point: OOH                               COMMENT
Radial Offset to Rinex Ref. Point: 0.1318                   COMMENT
Antenna Height from Field Measurement: 0.9980 m             COMMENT
Additional Antenna Identification Info.:                    COMMENT
Ashtech L1/L2 Revision B (700228DE)                         COMMENT
Original XYZ: -2455781.9300 -4602727.8900 3658823.2300      COMMENT
New XYZ position is based on association with SCEC monument COMMENT
E1F4D6R5+0011. Position of that monument is believed to be  COMMENT
valid to within 1 m horizontally; vertical accuracy         COMMENT
should be no worse than 3-times this value.                 COMMENT
                                                            COMMENT
Revised Rinex header created by UCSD GPS archive for        COMMENT
GSAC on 01-Aug-2000 (2000:214) 04:18:09 GMT                 COMMENT
For assistance contact dagnew@ucsd.edu                      COMMENT
or anderson@python.ucsd.edu                                 COMMENT
                                                            COMMENT
SNORT A 1950                                                MARKER NAME
                                                            MARKER NUMBER
KEA US DEFENSE MAPPING AGENCY                               OBSERVER / AGENCY
940 ASHTECH Z-XII3 1E861D0                                  REC # / TYPE / VERS
351 ASHTECH GEODETIC P                                      ANT # / TYPE
 -2415084.7300 -4592334.8302  3697983.7270                  APPROX POSITION XYZ
        0.9253        0.0000        0.0000                  ANTENNA: DELTA H/E/N
     1     1     0                                          WAVELENGTH FACT L1/2
     7    L1    L2    C1    P1    P2    D1    D2            # / TYPES OF OBSERV
    30                                                      INTERVAL
  1996    10    16    15    26    0.000000                  TIME OF FIRST OBS
  1996    10    16    21    32   60.000000                  TIME OF LAST OBS
                                                            END OF HEADER
 96 10 16 15 26  0.0000000  0  7 17 28 26  6 23 22 21               -0.000535548
    -16337.39319    -10134.51255  17991345.966           0.0005          0.0005
       654.670         510.132
    -69047.63619    -39963.93358  18876784.352           0.0005   18876786.5135
      2529.279        1970.867
      1516.08319       864.81758  19453598.617           0.0005   19453600.8845
       -51.240         -39.927
     55979.32519     35355.89256  18119185.342           0.0005          0.0005
     -1767.427       -1377.216
    -39208.99519    -23376.90758  18346976.333           0.0005   18346978.5615
      1480.793        1153.865
     -1971.27419     -1179.44757  20767487.397           0.0005   20767489.5495
        78.567          61.221
    -81267.12519    -47180.20857  21014725.239           0.0005   21014728.6355
      2987.669        2328.054
 96 10 16 15 26 30.0000000  3  2
GS19                                                        MARKER NAME
--> THIS IS THE START OF A NEW SITE <---                    COMMENT
 96 10 16 15 26 30.0000000  0  7 17 28 26  6 23 22 21               -0.000537361
    -36300.940 9    -25457.88954  17987546.660           0.0004          0.0005
       675.424         526.304
   -145188.324 9    -99294.33048  18862295.282    18862293.6135   18862297.4334
      2545.958        1983.863
      2913.497 9      1953.70748  19453864.607    19453863.4695   19453866.7744
       -42.732         -33.298
    108802.511 9     76017.06154  18129237.130           0.0004          0.0005
     -1755.180       -1367.673
    -83850.713 9    -58162.65648  18338481.193    18338479.3425   18338483.4064
      1494.485        1164.534
     -4504.889 9     -3153.69847  20767004.848    20767003.0855   20767007.3254
        89.606          69.823
   -171218.299 9   -117272.01747  20997608.210    20997606.7075   20997611.6034
      3008.384        2344.195
 96 10 16 15 27  0.0000000  0  7 17 28 26  6 23 22 21                0.000072028
    -56799.938 9    -40936.87356  20681778.230           0.0004          0.0005
       691.600         538.909
   -221727.046 9   -158934.889 9  21545862.660    21545860.936    21545864.705
      2558.109        1993.332
      4135.471 9      2905.89448  22152229.209    22152228.0434   22152231.4084
       -38.841         -30.266
    161333.947 9    116435.59754  20837365.783           0.0004          0.0005
     -1747.850       -1361.961
   -128810.942 9    -93196.59448  21028057.829    21028055.8434   21028059.8884
      1503.728        1171.736
     -7298.678 9     -5330.67847  23464605.181    23464603.5974   23464607.7964
        96.675          75.331
   -261691.338 9   -187770.48447  23678524.192    23678522.3204   23678527.3294
      3024.973        2357.122
 96 10 16 15 27 30.0000000  0  7 17 28 26  6 23 22 21                0.000069302
    -77732.159 9     -9985.25458  20677795.167           0.0005   20677797.3985
       703.411         548.112
   -298593.225 9   -218830.609 9  21531235.582    21531233.777    21531237.573
      2565.794        1999.320
      5303.079 9      3815.70948  22152452.823    22152450.2634   22152453.6434
       -39.650         -30.896
    213709.595 9     32371.15958  20847333.081           0.0005   20847335.5075
     -1744.339       -1359.225
   -174007.554 9   -128414.72748  21019457.262    21019455.1934   21019459.2724
      1508.981        1175.829
    -10245.230 9     -7626.71747  23464044.139    23464042.8024   23464047.1734
        99.241          77.331
   -352636.315 9   -258636.69047  23661218.778    23661216.1514   23661221.1174
      3037.542        2366.916
 96 10 16 15 28  0.0000000  0  7 17 28 26  6 23 22 21                0.000066216
    -98996.995 9    -26555.26248  20673748.519    20673746.3495   20673750.7564
       713.844         556.242
   -375664.154 9   -278885.877 9  21516569.444    21516567.651    21516571.485
      2571.887        2004.068
      6525.201 9      4768.00848  22152684.969    22152682.8474   22152686.2664
       -42.088         -32.796
    266003.867 9     73119.91748  20857284.266    20857282.5825   20857286.7324
     -1742.241       -1357.590
   -219338.739 9   -163737.72648  21010831.010    21010828.9474   21010833.0414
      1512.786        1178.794
    -13257.205 9     -9973.71947  23463471.431    23463469.6014   23463474.1274
       101.222          78.874
   -443937.316 9   -329780.29847  23643844.538    23643842.2104   23643847.1364
      3048.870        2375.743
 96 10 16 15 28 30.0000000  0  7 17 28 26  6 23 22 21                0.000062807
   -120514.501 9    -43322.15348  20669653.822    20669651.7354   20669656.1054
       720.248         561.232
   -452857.211 9   -339036.310 9  21501880.019    21501878.314    21501882.168
      2573.829        2005.581
      7871.839 9      5817.33348  22152940.831    22152939.0674   22152942.5534
       -48.205         -37.562
    318298.068 9    113868.63548  20867235.468    20867233.7884   20867237.9714
     -1744.585       -1359.417
   -264728.784 9   -199106.58548  21002193.526    21002191.4974   21002195.6494
      1512.839        1178.836
    -16268.087 9    -12319.87147  23462898.663    23462896.6644   23462901.2484
        98.890          77.057
   -535529.774 9   -401151.04447  23626414.985    23626412.8124   23626417.7074
      3056.768        2381.897
 96 10 16 15 29  0.0000000  0  7 17 28 26  6 23 22 21                0.000059131
   -142219.932 9    -60235.48248  20665523.387    20665521.2984   20665525.7104
       726.054         565.756
   -530102.075 9   -399227.119 9  21487180.834    21487179.146    21487182.965
      2575.118        2006.585
      9410.339 9      7016.16048  22153233.513    22153231.8664   22153235.3324
       -55.077         -42.917
    370659.347 9    154669.60348  20877199.426    20877197.7624   20877201.9644
     -1746.667       -1361.039
   -310123.142 9   -234478.80948  20993555.271    20993553.2284   20993557.4344
      1512.870        1178.860
    -19197.250 9    -14602.34347  23462341.358    23462339.2554   23462343.7974
        95.681          74.557
   -627349.363 9   -472698.77347  23608942.250    23608940.1114   23608945.0124
      3063.764        2387.349
 96 10 16 15 29 30.0000000  0  7 17 28 26  6 23 22 21                0.000055221
   -164067.509 9    -77259.57148  20661365.900    20661363.8794   20661368.2624
       730.544         569.255
   -607357.061 9   -459425.811 9  21472479.769    21472478.071    21472481.856
      2575.271        2006.705
     11184.676 9      8398.75248  22153571.127    22153569.5294   22153572.9684
       -63.039         -49.121
    423103.657 9    195535.28248  20887179.211    20887177.6004   20887181.8044
     -1749.792       -1363.474
   -355489.890 9   -269829.51948  20984922.269    20984920.2284   20984924.4414
      1511.640        1177.901
    -21997.624 9    -16784.46447  23461808.489    23461806.4524   23461810.8454
        91.122          71.004
   -719349.691 9   -544387.32647  23591435.141    23591433.0054   23591437.9394
      3069.575        2391.877
 96 10 16 15 30  0.0000000  0  7 17 28 26  6 23 22 21                0.000051082
   -186036.365 9    -94378.16748  20657185.399    20657183.3534   20657187.7354
       734.501         572.338
   -684600.703 9   -519615.664 9  21457780.838    21457779.139    21457782.909
      2574.769        2006.314
     13200.853 9      9969.79948  22153954.754    22153953.2384   22153956.6834
       -70.811         -55.177
    475670.688 9    236496.58348  20897182.373    20897180.7844   20897185.0314
     -1754.196       -1366.906
   -400799.018 9   -305135.33048  20976300.240    20976298.1894   20976302.4184
      1509.446        1176.192
    -24646.271 9    -18848.37247  23461304.572    23461302.4774   23461306.8584
        85.783          66.844
   -811500.851 9   -616193.40747  23573899.305    23573897.2384   23573902.1444
      3074.357        2395.603
 96 10 16 15 30 30.0000000  0  7 17 28 26  6 23 22 21                0.000046716
   -208128.978 9   -111593.19348  20652981.347    20652979.3204   20652983.6634
       738.367         575.351
   -761830.799 9   -579794.961 9  21443084.446    21443082.760    21443086.523
      2573.875        2005.617
     15442.354 9     11716.42348  22154381.242    22154379.7974   22154383.2344
       -78.775         -61.383
    528371.220 9    277561.91248  20907210.972    20907209.3864   20907213.6374
     -1759.174       -1370.785
   -446048.569 9   -340394.71348  20967689.537    20967687.4974   20967691.7204
      1507.222        1174.459
    -27123.992 9    -20779.08547  23460833.078    23460830.9854   23460835.4214
        79.349          61.830
   -903795.939 9   -688111.64447  23556336.119    23556334.1104   23556338.9974
      3078.573        2398.888
 96 10 16 15 31  0.0000000  0  8 17 28 26  6 23 22 21  3             0.000042133
   -230360.006 9   -128916.07848  20648750.958    20648748.9224   20648753.2584
       743.781         579.570
   -839056.846 9   -639971.105 9  21428388.838    21428387.166    21428390.931
      2574.467        2006.078
     17905.930 9     13636.09248  22154850.048    22154848.6514   22154852.0944
       -85.324         -66.486
    581192.507 9    318721.33148  20917262.521    20917260.9564   20917265.2164
     -1762.255       -1373.186
   -491257.801 9   -375622.68348  20959086.492    20959084.4664   20959088.7384
      1506.661        1174.022
    -29436.014 9    -22580.67947  23460393.082    23460390.9574   23460395.4944
        74.784          58.273
   -996229.762 9   -760137.98547  23538746.542    23538744.5634   23538749.4784
      3083.771        2402.938
   -401732.52019    -18720.26052  25203098.865           0.0005          0.0005
      3828.819        2983.495
 96 10 16 15 31 30.0000000  0  8 17 28 26  6 23 22 21  3             0.000037316
   -252750.171 9   -146362.95748  20644490.298    20644488.2464   20644492.5934
       749.262         583.841
   -916291.811 9   -700154.198 9  21413691.550    21413689.863    21413693.637
      2574.819        2006.352
     20565.042 9     15708.11548  22155356.083    22155354.6984   22155358.1504
       -91.599         -71.376
    634125.735 9    359967.97748  20927335.375    20927333.8084   20927338.0674
     -1766.462       -1376.464
   -536439.466 9   -410829.17148  20950488.745    20950486.7174   20950491.0004
      1505.680        1173.257
    -31604.429 9    -24270.35947  23459980.518    23459978.3664   23459982.8674
        70.076          54.605
  -1088818.830 9   -832285.29447  23521127.429    23521125.4804   23521130.4064
      3089.127        2407.112
   -516775.691 9   -108410.59554  25181206.894           0.0004          0.0005
      3840.875        2992.890
 96 10 16 15 32  0.0000000  0  8 17 28 26  6 23 22 21  3             0.000032247
   -275324.700 9   -163953.50948  20640194.491    20640192.4634   20640196.8664
       755.685         588.845
   -993554.453 9   -760358.855 9  21398989.010    21398987.314    21398991.062
      2575.999        2007.272
     23394.618 9     17912.97748  22155894.462    22155893.1164   22155896.6054
       -97.152         -75.703
    687166.893 9    401298.72448  20937428.814    20937427.2484   20937431.5214
     -1769.461       -1378.801
   -581611.574 9   -446028.21548  20941892.821    20941890.7954   20941895.0554
      1505.830        1173.374
    -33645.393 9    -25860.73847  23459592.190    23459590.0584   23459594.4024
        66.013          51.439
  -1181594.354 9   -904577.88247  23503472.713    23503470.8914   23503475.8464
      3095.947        2412.426
   -632202.226 9   -198479.31554  25159242.177           0.0004          0.0005
      3854.096        3003.192
 96 10 16 15 32 30.0000000  0  8 17 28 26  6 23 22 21  3             0.000026926
   -298098.834 9   -181699.59248  20635860.775    20635858.7354   20635863.1184
       762.779         594.373
  -1070859.370 9   -820596.454 9  21384278.447    21384276.751    21384280.451
      2577.809        2008.682
     26394.919 9     20250.87348  22156465.404    22156464.1104   22156467.5784
      -102.736         -80.054
    740283.174 9    442688.02048  20947536.570    20947534.9844   20947539.2804
     -1771.380       -1380.296
   -626802.892 9   -481242.23148  20933293.261    20933291.2324   20933295.4454
      1507.081        1174.349
    -35576.812 9    -27365.76246  23459224.772    23459222.6474   23459226.8004
        62.998          49.089
  -1274583.198 9   -977036.71747  23485777.510    23485775.7234   23485780.6054
      3103.447        2418.270
   -748022.588 9    -11364.04552  25137202.456           0.0005          0.0005
      3867.222        3013.420
 96 10 16 15 33  0.0000000  0  8 17 28 26  6 23 22 21  3             0.000021352
   -321077.579 9   -199605.10048  20631488.109    20631486.0584   20631490.4204
       769.407         599.538
  -1148213.671 9   -880872.533 9  21369558.470    21369556.778    21369560.436
      2579.390        2009.914
     29573.750 9     22727.87648  22157070.399    22157069.0904   22157072.5324
      -108.773         -84.758
    793453.934 9    484119.75348  20957654.660    20957653.0804   20957657.3914
     -1773.101       -1381.637
   -672025.466 9   -516480.59548  20924687.706    20924685.7024   20924689.9134
      1507.935        1175.014
    -37424.092 9    -28805.22246  23458873.275    23458871.1534   23458875.3144
        60.442          47.098
  -1367796.484 9  -1049670.44747  23468039.662    23468037.8454   23468042.6704
      3111.164        2424.284
   -864225.220 9   -101911.17555  25115089.929           0.0004          0.0005
      3879.739        3023.173
 96 10 16 15 33 30.0000000  0  8 17 28 26  6 23 22 21  3             0.000015510
   -344254.018 9   -217664.66648  20627077.830    20627075.7754   20627080.1174
       775.870         604.574
  -1225617.120 9   -941186.907 9  21354829.133    21354827.432    21354831.076
      2580.958        2011.136
     32930.849 9     25343.78848  22157709.217    22157707.9234   22157711.3774
      -114.974         -89.590
    846673.581 9    525589.59348  20967782.055    20967780.4794   20967784.8104
     -1774.615       -1382.817
   -717273.912 9   -551739.12348  20916077.232    20916075.2204   20916079.4444
      1508.743        1175.644
    -39196.874 9    -30186.62346  23458535.946    23458533.8264   23458537.9374
        57.951          45.157
  -1461246.800 9  -1122488.85347  23450256.626    23450254.8154   23450259.7124
      3118.925        2430.331
   -980786.160 9   -192737.99155  25092909.218           0.0004          0.0005
      3891.084        3032.014
 96 10 16 15 34  0.0000000  0  8 17 28 26  6 23 22 21  3             0.000009412
   -367627.648 9   -235877.88748  20622629.956    20622627.9294   20622632.2694
       782.349         609.623
  -1303064.060 9  -1001535.180 9  21340091.489    21340089.793    21340093.438
      2582.087        2012.016
     36483.985 9     28112.46748  22158385.379    22158384.1044   22158387.5314
      -121.847         -94.946
    899927.867 9    567086.41248  20977916.046    20977914.4964   20977918.8274
     -1775.655       -1383.627
   -762546.265 9   -587016.28048  20907462.217    20907460.2024   20907464.4064
      1509.405        1176.160
    -40899.050 9    -31513.01446  23458212.077    23458209.9574   23458214.0584
        55.553          43.288
  -1554923.410 9  -1195483.60947  23432430.571    23432428.7444   23432433.7184
      3125.967        2435.818
  -1097684.219 9   -283827.42155  25070664.352           0.0005   25070667.6975
      3902.037        3040.548
 96 10 16 15 34 30.0000000  0  8 17 28 26  6 23 22 21  3             0.000003061
   -391205.898 9   -254250.55548  20618143.196    20618141.1724   20618145.5194
       788.963         614.776
  -1380552.126 9  -1061915.492 9  21325345.990    21325344.336    21325347.965
      2583.203        2012.885
     40228.217 9     31030.04748  22159097.922    22159096.6234   22159100.0854
      -128.194         -99.891
    953201.027 9    608597.93348  20988053.634    20988052.0674   20988056.4134
     -1776.328       -1384.152
   -807850.480 9   -622318.26548  20898841.116    20898839.1194   20898843.2684
      1510.259        1176.825
    -42546.534 9    -32796.79246  23457898.565    23457896.4554   23457900.5784
        53.758          41.889
  -1648809.758 9  -1268641.79147  23414564.615    23414562.7774   23414567.8194
      3132.545        2440.944
  -1214912.008 9   -375173.74845  25048356.716    25048354.7485   25048359.4784
      3912.733        3048.883
 96 10 16 15 35  0.0000000  0  8 17 28 26  6 23 22 21  3            -0.000003549
   -414969.477 9   -272767.63348  20613621.193    20613619.1574   20613623.4674
       795.788         620.095
  -1458062.223 9  -1122312.974 9  21310596.376    21310594.698    21310598.287
      2584.578        2013.957
     44164.444 9     34097.22948  22159846.966    22159845.6954   22159849.2044
      -133.556        -104.070
   1006501.565 9    650130.80248  20998196.449    20998194.8754   20998199.2284
     -1776.609       -1384.371
   -853161.074 9   -657625.22248  20890218.820    20890216.8064   20890220.9394
      1510.986        1177.392
    -44131.156 9    -34031.58646  23457596.991    23457594.8704   23457599.1444
        52.302          40.755
  -1742886.208 9  -1341948.10747  23396662.499    23396660.5944   23396665.6704
      3139.799        2446.597
  -1332455.181 8   -466765.83845  25025989.008    25025987.7494   25025992.1164
      3924.057        3057.707
 96 10 16 15 35 29.9990000  0  8 17 28 26  6 23 22 21  3            -0.000010427
   -438915.227 9   -291426.66748  20609064.462    20609062.4604   20609066.7544
       801.263         624.361
  -1535585.789 9  -1182720.949 9  21295844.156    21295842.484    21295846.071
      2584.353        2013.782
     48277.304 9     37302.04948  22160629.621    22160628.3244   22160631.8574
      -140.024        -109.110
   1059830.549 9    691685.82448  21008344.640    21008343.0734   21008347.4634
     -1778.235       -1385.638
   -898468.802 9   -692929.94648  20881597.073    20881595.0594   20881599.1894
      1510.245        1176.814
    -45637.197 9    -35205.12546  23457310.441    23457308.3124   23457312.6754
        48.659          37.916
  -1837151.116 9  -1415401.27747  23378724.455    23378722.6014   23378727.6664
      3145.267        2450.857
  -1450324.339 8   -558611.94945  25003559.236    25003557.8484   25003562.6524
      3934.859        3066.124
 96 10 16 15 35 59.9990000  0  8 17 28 26  6 23 22 21  3            -0.000017563
   -463036.232 9   -310222.25948  20604474.439    20604472.4444   20604476.7124
       806.586         628.509
  -1613115.102 9  -1243133.397 9  21281090.852    21281089.180    21281092.761
      2584.165        2013.635
     52569.885 9     40646.90848  22161446.502    22161445.1924   22161448.7334
      -146.207        -113.928
   1113202.910 9    733274.65248  21018501.109    21018499.5564   21018503.9304
     -1780.091       -1387.084
   -943764.902 9   -728225.60648  20872977.544    20872975.5354   20872979.6764
      1509.424        1176.175
    -47042.904 9    -36300.50046  23457043.000    23457040.7874   23457045.1994
        44.886          34.976
  -1931596.136 9  -1488994.79647  23360752.196    23360750.3294   23360755.3154
      3151.027        2455.346
  -1568550.952 8   -650736.58045  24981061.422    24981060.3524   24981064.7084
      3946.832        3075.454
 96 10 16 15 36 29.9990000  0  8 17 28 26  6 23 22 21  3            -0.000024953
   -487308.372 9   -329135.61748  20599855.644    20599853.6334   20599857.9054
       811.078         632.009
  -1690632.154 9  -1303536.300 9  21266339.859    21266338.181    21266341.757
      2583.143        2012.839
     57054.954 9     44141.75948  22162300.094    22162298.7594   22162302.2524
      -153.364        -119.504
   1166640.711 9    774914.47148  21028670.019    21028668.4634   21028672.8584
     -1782.954       -1389.315
   -989027.184 9   -763494.91048  20864364.433    20864362.4214   20864366.5914
      1507.468        1174.650
    -48322.669 9    -37297.73246  23456799.401    23456797.1884   23456801.6884
        39.920          31.106
  -2026210.865 9  -1562720.56547  23342747.692    23342745.7824   23342750.6754
      3156.196        2459.374
  -1687138.349 8   -743142.33845  24958495.030    24958494.0354   24958498.3154
      3958.573        3084.602
 96 10 16 15 36 59.9990000  0  8 17 28 26  6 23 22 21  3            -0.000032580
   -511722.101 9   -348159.31648  20595209.863    20595207.8794   20595212.1574
       815.721         635.627
  -1768118.145 9  -1363914.988 9  21251594.776    21251593.105    21251596.701
      2581.820        2011.808
     61764.825 9     47811.78448  22163196.369    22163195.0364   22163198.5054
      -161.400        -125.766
   1220168.913 9    816624.73148  21038856.129    21038854.5644   21038859.0244
     -1786.494       -1392.073
  -1034224.451 9   -798713.55948  20855763.731    20855761.6954   20855765.8524
      1505.041        1172.759
    -49449.096 9    -38175.48646  23456585.053    23456582.9034   23456587.3944
        34.367          26.779
  -2120985.237 9  -1636570.72847  23324712.828    23324710.8874   23324715.7234
      3161.245        2463.308
  -1806082.326 8   -835825.93445  24935860.999    24935859.5214   24935864.1144
      3970.175        3093.643
 96 10 16 15 37 29.9990000  0  8 17 28 26  6 23 22 21  3            -0.000040418
   -536269.081 9   -367286.83648  20590538.778    20590536.8024   20590541.0654
       820.276         639.176
  -1845560.560 9  -1424259.731 9  21236858.019    21236856.323    21236859.933
      2580.490        2010.771
     66723.493 9     51675.67748  22164139.920    22164138.6544   22164142.1384
      -169.638        -132.185
   1273810.862 9    858423.63048  21049063.913    21049062.3444   21049066.8074
     -1790.132       -1394.908
  -1079353.962 9   -833879.41048  20847175.872    20847173.8614   20847177.9934
      1503.067        1171.221
    -50405.490 9    -38920.73646  23456403.050    23456400.9064   23456405.4814
        29.108          22.681
  -2215896.695 9  -1710527.70447  23306651.837    23306649.8664   23306654.6994
      3165.665        2466.752
  -1925371.957 8   -928778.88745  24913161.096    24913159.6794   24913164.2074
      3981.867        3102.754
 96 10 16 15 37 59.9990000  0  8 17 28 26  6 23 22 21  3            -0.000048463
   -560940.135 9   -386511.03648  20585844.095    20585842.0864   20585846.3564
       823.819         641.937
  -1922946.707 9  -1484560.621 9  21222131.923    21222130.234    21222133.837
      2578.008        2008.837
     71941.844 9     55741.91948  22165133.013    22165131.7294   22165135.1854
      -178.739        -139.277
   1327585.549 9    900325.96148  21059296.887    21059295.3254   21059299.8374
     -1795.308       -1398.941
  -1124404.054 9   -868983.37248  20838603.129    20838601.1274   20838605.2694
      1499.812        1168.685
    -51201.669 9    -39541.15346  23456251.609    23456249.4584   23456254.0114
        23.395          18.230
  -2310925.667 9  -1784576.25247  23288568.347    23288566.4384   23288571.3054
      3168.987        2469.341
  -2044986.700 8  -1021985.16245  24890399.296    24890397.7014   24890402.2514
      3991.731        3110.440
 96 10 16 15 38 29.9990000  0  8 17 28 26  6 23 22 21  3            -0.000056711
   -585726.343 9   -405824.97148  20581127.447    20581125.4414   20581129.7224
       827.632         644.908
  -2000264.033 9  -1544807.894 9  21207418.901    21207417.237    21207420.847
      2575.539        2006.914
     77425.580 9     60014.94948  22166176.596    22166175.2834   22166178.7474
      -187.644        -146.216
   1381502.508 9    942339.15148  21069556.952    21069555.4034   21069559.9584
     -1800.036       -1402.625
  -1169367.862 9   -904020.10548  20830046.781    20830044.8054   20830048.9564
      1496.922        1166.433
    -51836.423 9    -40035.77146  23456130.881    23456128.6964   23456133.2684
        18.046          14.062
  -2406055.217 9  -1858703.17347  23270465.746    23270463.8414   23270468.8084
      3172.122        2471.783
  -2164889.180 8  -1115415.64445  24867582.495    24867580.8694   24867585.4764
      4000.840        3117.538
 96 10 16 15 38 59.9990000  0  8 17 28 26  6 23 22 21  3            -0.000065157
   -610606.387 9   -425212.02448  20576392.941    20576390.9614   20576395.2404
       830.695         647.295
  -2077492.613 9  -1604986.012 9  21192722.770    21192721.116    21192724.748
      2572.683        2004.688
     83181.228 9     64499.86248  22167271.835    22167270.5624   22167274.0464
      -196.219        -152.898
   1435571.812 9    984471.05148  21079845.976    21079844.4634   21079849.0264
     -1804.909       -1406.423
  -1214236.222 9   -938982.46448  20821508.612    20821506.6364   20821510.8194
      1494.040        1164.187
    -52299.231 9    -40396.42446  23456042.838    23456040.5994   23456045.2084
        12.500           9.740
  -2501268.523 9  -1932895.34647  23252347.272    23252345.3574   23252350.3284
      3174.988        2474.017
  -2285043.611 8  -1209042.43445  24844717.793    24844716.2554   24844721.0794
      4009.070        3123.951
 96 10 16 15 39 29.9990000  0  8 17 28 26  6 23 22 21  3            -0.000073809
   -635568.414 9   -444662.95948  20571642.834    20571640.8394   20571645.1554
       833.848         649.752
  -2154626.014 9  -1665089.963 9  21178044.788    21178043.126    21178046.786
      2569.824        2002.460
     89191.331 9     69183.04348  22168415.541    22168414.2714   22168417.7344
      -204.177        -159.099
   1489793.529 9   1026721.71548  21090164.125    21090162.6134   21090167.1214
     -1809.539       -1410.030
  -1259012.928 9   -973873.40248  20812987.929    20812985.9584   20812990.1144
      1491.301        1162.053
    -52591.938 9    -40624.52346  23455987.118    23455984.9414   23455989.4864
         7.399           5.765
  -2596560.592 9  -2007148.89747  23234213.831    23234211.9474   23234216.9104
      3178.199        2476.519
  -2405436.126 8  -1302854.77245  24821807.837    24821806.1734   24821811.1244
      4017.467        3130.494
 96 10 16 15 39 59.9990000  0  8 17 28 26  6 23 22 21  3            -0.000082675
   -660611.231 9   -464176.85048  20566877.298    20566875.3294   20566879.6964
       836.147         651.543
  -2231654.320 9  -1725112.019 9  21163386.776    21163385.138    21163388.843
      2565.769        1999.301
     95458.376 9     74066.44648  22169608.080    22169606.8374   22169610.3044
      -213.319        -166.222
   1544169.456 9   1069092.54248  21100511.581    21100510.0734   21100514.5514
     -1814.918       -1414.222
  -1303685.253 9  -1008683.00548  20804487.133    20804485.1274   20804489.2474
      1487.480        1159.075
    -52714.923 9    -40720.35746  23455963.772    23455961.6344   23455966.1444
         1.105           0.861
  -2691935.664 9  -2081467.13047  23216064.554    23216062.7314   23216067.6684
      3180.376        2478.215
  -2526061.637 9  -1396848.67245  24798853.582    24798851.8854   24798856.6584
      4024.638        3136.082
 96 10 16 15 40 29.9990000  0  8 17 28 26  6 23 22 21  3            -0.000091739
   -685750.404 9   -483765.82348  20562093.411    20562091.4744   20562095.8974
       840.021         654.562
  -2308584.002 9  -1785057.231 9  21148747.535    21148745.904    21148749.654
      2563.105        1997.225
    101984.856 9     79152.00348  22170850.026    22170848.8104   22170852.2964
      -221.470        -172.574
   1598673.359 9   1111563.09248  21110883.327    21110881.8444   21110886.3414
     -1818.386       -1416.924
  -1348278.335 9  -1043430.85948  20796001.304    20795999.3344   20796003.4764
      1485.601        1157.611
    -52673.444 9    -40688.05846  23455971.692    23455969.6304   23455974.0504
        -3.567          -2.779
  -2787398.193 9  -2155853.50447  23197898.724    23197896.8534   23197901.7944
      3184.053        2481.080
  -2646927.268 9  -1491029.67845  24775853.625    24775852.0284   24775856.7514
      4033.358        3142.876
 96 10 16 15 40 59.9990000  0  8 17 28 26  6 23 22 21  3            -0.000100990
   -710968.797 9   -503416.51948  20557294.514    20557292.5764   20557297.0234
       841.675         655.851
  -2385396.020 9  -1844910.751 9  21134130.708    21134129.063    21134132.821
      2558.119        1993.339
    108791.984 9     84456.24348  22172145.473    22172144.2334   22172147.6874
      -231.883        -180.688
   1653318.928 9   1154144.03148  21121282.042    21121280.5744   21121285.1174
     -1824.144       -1421.411
  -1392776.707 9  -1078104.91048  20787533.500    20787531.5524   20787535.7634
      1481.413        1154.348
    -52455.353 9    -40518.12946  23456013.195    23456011.1654   23456015.6444
       -10.329          -8.049
  -2882928.258 9  -2230292.50747  23179720.033    23179718.1774   23179723.0224
      3185.062        2481.866
  -2768015.999 9  -1585384.52645  24752811.176    24752809.6074   24752814.3514
      4039.738        3147.848
 96 10 16 15 41 29.9990000  0  8 17 28 26  6 23 22 21  3            -0.000110419
   -736261.517 9   -523125.14048  20552481.494    20552479.5814   20552483.9904
       844.488         658.043
  -2462082.730 9  -1904666.629 9  21119537.748    21119536.114    21119539.834
      2554.313        1990.374
    115893.060 9     89989.53848  22173496.822    22173495.5744   22173499.0184
      -241.572        -188.238
   1708114.124 9   1196841.55848  21131709.269    21131707.8024   21131712.3774
     -1828.759       -1425.007
  -1437178.288 9  -1112703.54548  20779084.163    20779082.2194   20779086.4564
      1478.695        1152.230
    -52063.622 9    -40212.89947  23456087.738    23456085.7654   23456090.2644
       -15.769         -12.288
  -2978516.204 9  -2304776.60747  23161530.214    23161528.3624   23161533.2314
      3187.441        2483.720
  -2889325.621 9  -1679911.50045  24729726.655    24729725.0734   24729729.9494
      4047.453        3153.859
 96 10 16 15 41 59.9990000  0  8 17 28 26  6 23 22 21  3            -0.000120009
   -761611.108 9   -542878.07448  20547657.660    20547655.7734   20547660.1534
       846.146         659.335
  -2538630.788 9  -1964314.468 9  21104971.153    21104969.543    21104973.257
      2549.554        1986.665
    123309.232 9     95768.36048  22174907.990    22174906.7654   22174910.3134
      -252.104        -196.445
   1763060.516 9   1239656.90248  21142165.272    21142163.7894   21142168.3664
     -1833.611       -1428.788
  -1481476.265 9  -1147221.44848  20770654.614    20770652.6634   20770656.8424
      1475.222        1149.524
    -51484.129 9    -39761.37246  23456198.078    23456196.0454   23456200.6114
       -22.242         -17.331
  -3074144.562 9  -2379292.19747  23143332.647    23143330.8704   23143335.7514
      3188.476        2484.527
  -3010831.087 9  -1774591.09245  24706604.982    24706603.4624   24706608.4454
      4053.538        3158.601
 96 10 16 15 42 29.9990000  0  8 17 28 26  6 23 22 21  3            -0.000129757
   -787010.041 9   -562669.45148  20542824.485    20542822.5814   20542826.9114
       847.093         660.072
  -2615040.404 9  -2023854.426 9  21090430.907    21090429.278    21090433.055
      2544.415        1982.661
    131036.000 9    101789.21348  22176378.333    22176377.1294   22176380.6964
      -262.895        -204.853
   1818146.805 9   1282581.26248  21152647.884    21152646.4084   21152650.9564
     -1838.851       -1432.871
  -1525678.744 9  -1181664.93748  20762243.162    20762241.2134   20762245.3924
      1471.446        1146.581
    -50712.536 9    -39160.14347  23456344.914    23456342.8624   23456347.4164
       -29.264         -22.803
  -3169811.768 9  -2453838.05347  23125127.731    23125125.9584   23125130.8544
      3189.460        2485.294
  -3132521.428 9  -1869414.74845  24683448.152    24683446.5034   24683451.4194
      4059.155        3162.978
 96 10 16 15 42 59.9990000  0  8 17 28 26  6 23 22 21  3            -0.000139667
   -812453.603 9   -582495.61348  20537982.781    20537980.8874   20537985.1584
       848.950         661.519
  -2691305.854 9  -2083282.054 9  21075918.078    21075916.451    21075920.278
      2539.692        1978.981
    139074.258 9    108052.77948  22177908.083    22177906.8424   22177910.3374
      -273.090        -212.797
   1873384.016 9   1325623.21748  21163159.234    21163157.7434   21163162.2714
     -1843.845       -1436.762
  -1569772.348 9  -1216023.59048  20753852.368    20753850.4494   20753854.6574
      1467.860        1143.787
    -49738.782 9    -38401.39847  23456530.331    23456528.2404   23456532.7784
       -35.860         -27.943
  -3265526.681 9  -2528421.08847  23106913.781    23106912.0464   23106916.8824
      3191.378        2486.788
  -3254390.695 9  -1964377.82345  24660257.292    24660255.5244   24660260.4644
      4065.338        3167.796
 96 10 16 15 43 29.9990000  0  8 17 28 26  6 23 22 21  3            -0.000149741
   -837950.373 9   -602363.23348  20533130.959    20533129.0324   20533133.2844
       851.377         663.411
  -2767421.819 9  -2142593.202 9  21061433.702    21061432.058    21061435.909
      2535.143        1975.436
    147425.356 9    114560.11048  22179497.303    22179496.0504   22179499.5154
      -282.991        -220.512
   1928775.680 9   1368785.52148  21173699.943    21173698.4554   21173702.9624
     -1848.363       -1440.283
  -1613749.986 9  -1250291.88148  20745483.752    20745481.8364   20745486.0234
      1464.434        1141.117
    -48556.040 9    -37479.80847  23456755.461    23456753.3844   23456757.8494
       -42.535         -33.144
  -3361294.911 9  -2603045.68347  23088689.751    23088688.0044   23088692.7714
      3193.631        2488.544
  -3376439.479 9  -2059480.81045  24637032.237    24637030.6774   24637035.2244
      4071.720        3172.769
 96 10 16 15 43 59.9990000  0  8 17 28 26  6 23 22 21  3            -0.000159982
   -863505.177 9   -622276.07648  20528268.025    20528266.1244   20528270.3304
       853.211         664.840
  -2843384.274 9  -2201784.726 9  21046978.565    21046976.938    21046980.745
      2529.862        1971.321
    156078.065 9    121302.47048  22181143.785    22181142.5634   22181146.0714
      -292.972        -228.290
   1984311.344 9   1412060.03848  21184268.072    21184266.6014   21184271.0954
     -1853.303       -1444.132
  -1657608.294 9  -1284467.18548  20737137.827    20737135.9034   20737140.0874
      1460.261        1137.866
    -47160.350 9    -36392.25547  23457021.011    23457018.9914   23457023.5114
       -49.654         -38.691
  -3457109.564 9  -2677706.43947  23070456.895    23070455.1484   23070459.8154
      3194.932        2489.557
  -3498668.017 9  -2154723.84445  24613773.039    24613771.5084   24613775.8594
      4077.780        3177.491
 96 10 16 15 44 29.9990000  0  8 17 28 26  6 23 22 21  3            -0.000170478
   -889122.324 9   -642237.49848  20523393.237    20523391.3374   20523395.5404
       855.063         666.283
  -2919189.684 9  -2260853.880 9  21032553.304    21032551.697    21032555.436
      2524.261        1966.957
    165028.408 9    128276.75448  22182846.960    22182845.7544   22182849.3024
      -303.314        -236.349
   2040004.071 9   1455456.93848  21194866.058    21194864.5714   21194869.0954
     -1859.164       -1448.699
  -1701340.272 9  -1318544.05248  20728815.914    20728814.0104   20728818.1854
      1455.586        1134.223
    -45552.757 9    -35139.61147  23457326.894    23457324.8514   23457329.4934
       -56.982         -44.401
  -3552975.649 9  -2752407.26647  23052214.156    23052212.3954   23052217.0674
      3196.586        2490.846
  -3621081.098 9  -2250110.68645  24590478.670    24590477.1464   24590481.2124
      4083.658        3182.071
 96 10 16 15 44 59.9990000  0  8 17 28 26  6 23 22 21  3            -0.000181081
   -914802.709 9   -662248.18648  20518506.453    20518504.5144   20518508.7334
       856.940         667.745
  -2994833.570 9  -2319797.170 9  21018158.774    21018157.180    21018160.901
      2518.750        1962.662
    174281.544 9    135486.98148  22184607.826    22184606.6044   22184610.1604
      -313.357        -244.174
   2095870.007 9   1498988.80348  21205497.022    21205495.5474   21205500.0614
     -1865.025       -1453.266
  -1744932.802 9  -1352512.24848  20720520.575    20720518.6474   20720522.8354
      1450.706        1130.420
    -43739.725 9    -33726.87246  23457672.015    23457669.9304   23457674.6174
       -63.763         -49.685
  -3648900.822 9  -2827154.14147  23033960.218    23033958.4384   23033963.0804
      3198.377        2492.242
  -3743681.577 9  -2345643.53845  24567148.555    24567147.0524   24567151.0334
      4089.745        3186.814
 96 10 16 15 45 29.9990000  0  8 17 28 26  6 23 22 21  3            -0.000191861
   -940524.727 9   -682291.32348  20513611.696    20513609.7834   20513614.0234
       857.301         668.027
  -3070308.283 9  -2378608.638 9  21003796.424    21003794.835    21003798.571
      2512.358        1957.682
    183839.690 9    142934.87548  22186426.755    22186425.5424   22186429.0414
      -324.335        -252.729
   2151911.039 9   1542657.11048  21216161.322    21216159.8524   21216164.3174
     -1871.582       -1458.376
  -1788375.346 9  -1386363.58348  20712253.751    20712251.8364   20712255.9804
      1444.948        1125.934
    -41718.172 9    -32151.66447  23458056.783    23458054.6724   23458059.3214
       -71.430         -55.660
  -3744869.114 9  -2901934.62147  23015698.080    23015696.3024   23015700.8984
      3199.069        2492.781
  -3866454.997 9  -2441311.14445  24543785.579    24543783.9854   24543787.8734
      4094.708        3190.682
 96 10 16 15 45 59.9990000  0  8 17 28 26  6 23 22 21  3            -0.000202822
   -966267.652 9   -702350.75548  20508712.945    20508711.0754   20508715.3394
       857.793         668.410
  -3145606.355 9  -2437282.463 9  20989467.722    20989466.098    20989469.872
      2506.408        1953.045
    193711.292 9    150627.02248  22188305.294    22188304.0564   22188307.5104
      -335.103        -261.119
   2208133.447 9   1586466.74348  21226860.132    21226858.6614   21226863.0784
     -1877.807       -1463.226
  -1831658.791 9  -1420090.94148  20704017.225    20704015.2954   20704019.4334
      1439.481        1121.674
    -39490.769 9    -30416.04846  23458480.701    23458478.5824   23458483.2354
       -78.262         -60.983
  -3840882.129 9  -2976749.95247  22997427.457    22997425.6714   22997430.2594
      3200.777        2494.112
  -3989395.581 9  -2537109.00345  24520390.767    24520389.2834   24520393.1554
      4100.106        3194.888
 96 10 16 15 46 29.9990000  0  8 17 28 26  6 23 22 21  3            -0.000213955
   -992023.754 9   -722420.44548  20503811.774    20503809.8634   20503814.1474
       858.764         669.167
  -3220720.535 9  -2495812.992 9  20975173.983    20975172.377    20975176.162
      2500.710        1948.605
    203923.097 9    158584.26148  22190248.440    22190247.2044   22190250.6794
      -346.282        -269.830
   2264551.186 9   1630428.59048  21237596.103    21237594.6444   21237599.0524
     -1883.729       -1467.841
  -1874771.035 9  -1453684.90148  20695813.259    20695811.2954   20695815.4584
      1434.349        1117.675
    -37052.073 9    -28515.78447  23458944.747    23458942.6534   23458947.3074
       -84.775         -66.058
  -3936948.161 9  -3051606.59247  22979146.752    22979144.9804   22979149.5274
      3203.067        2495.896
  -4112493.658 9  -2633029.59745  24496966.047    24496964.7094   24496968.3194
      4105.965        3199.453
 96 10 16 15 46 59.9990000  0  8 17 28 26  6 23 22 21  3            -0.000225256
  -1017789.809 9   -742497.90048  20498908.673    20498906.7774   20498911.0694
       859.338         669.614
  -3295648.376 9  -2554198.326 9  20960915.748    20960914.148    20960917.889
      2494.782        1943.986
    214484.842 9    166814.18748  22192258.243    22192257.0614   22192260.5464
      -357.369        -278.469
   2321151.561 9   1674532.74148  21248366.849    21248365.3794   21248369.7724
     -1889.162       -1472.074
  -1917720.134 9  -1487151.73048  20687640.327    20687638.3694   20687642.5104
      1429.258        1113.707
    -34406.071 9    -26453.97447  23459448.215    23459446.1464   23459450.8674
       -91.404         -71.224
  -4033059.342 9  -3126498.41447  22960857.472    22960855.6934   22960860.2124
      3204.465        2496.986
  -4235758.959 9  -2729080.47845  24473509.519    24473508.0424   24473511.9164
      4111.919        3204.093
 96 10 16 15 47 29.9990000  0  8 17 28 26  6 23 22 21  3            -0.000236730
  -1043570.901 9   -762587.07248  20494002.712    20494000.8064   20494005.0904
       859.785         669.962
  -3370392.554 9  -2612440.544 9  20946692.474    20946690.859    20946694.534
      2488.431        1939.037
    225384.400 9    175307.34248  22194332.521    22194331.2694   22194334.7284
      -368.893        -287.449
   2377913.794 9   1718763.02348  21259168.338    21259166.9064   21259171.2884
     -1894.772       -1476.446
  -1960511.050 9  -1520495.29948  20679497.509    20679495.5864   20679499.6974
      1423.817        1109.468
    -31553.998 9    -24231.60047  23459990.958    23459988.8584   23459993.5914
       -98.328         -76.619
  -4129202.120 9  -3201414.85247  22942562.121    22942560.3214   22942564.8544
      3205.341        2497.668
  -4359201.215 9  -2825269.22745  24450019.280    24450017.8854   24450021.7824
      4117.908        3208.759
 96 10 16 15 47 59.9990000  0  8 17 28 26  6 23 22 21  3            -0.000248373
  -1069376.346 9   -782695.21648  20489092.154    20489090.2514   20489094.4864
       860.332         670.389
  -3444948.109 9  -2670535.777 9  20932505.044    20932503.429    20932507.043
      2481.569        1933.690
    236617.908 9    184060.71448  22196470.321    22196469.0354   22196472.4444
      -380.384        -296.403
   2434841.972 9   1763122.61048  21270001.442    21270000.0004   21270004.3634
     -1900.721       -1481.081
  -2003149.726 9  -1553720.23848  20671383.645    20671381.7234   20671385.8334
      1418.532        1105.350
    -28501.015 9    -21852.66046  23460571.986    23460569.8984   23460574.6334
      -105.611         -82.294
  -4225366.115 9  -3276347.81947  22924262.718    22924260.9134   22924265.4604
      3205.165        2497.531
  -4482830.189 9  -2921603.48145  24426493.445    24426492.0194   24426495.9414
      4123.461        3213.086
 96 10 16 15 48 29.9990000  0  8 17 28 26  6 23 22 21  3            -0.000260165
  -1095207.519 9   -802823.41548  20484176.684    20484174.7764   20484179.0064
       861.672         671.433
  -3519300.630 9  -2728472.814 9  20918356.235    20918354.624    20918358.200
      2475.183        1928.714
    248185.750 9    193074.61048  22198671.553    22198670.2844   22198673.6994
      -390.658        -304.409
   2491949.863 9   1807622.23248  21280868.755    21280867.3174   21280871.6874
     -1906.504       -1485.588
  -2045639.840 9  -1586829.41648  20663298.042    20663296.1234   20663300.2374
      1414.100        1101.896
    -25229.067 9    -19303.12347  23461194.670    23461192.5724   23461197.3594
      -112.505         -87.666
  -4321520.419 9  -3351273.25247  22905965.153    22905963.3704   22905967.9324
      3205.033        2497.428
  -4606622.919 9  -3018065.33445  24402936.501    24402935.0554   24402939.1674
      4129.226        3217.579
 96 10 16 15 48 59.9990000  0  8 17 28 26  6 23 22 21  3            -0.000272099
  -1121053.943 9   -822963.49648  20479258.291    20479256.4134   20479260.6024
       861.987         671.678
  -3593436.110 9  -2786240.723 9  20904248.717    20904247.128    20904250.684
      2467.725        1922.903
    260069.190 9    202334.42948  22200932.854    22200931.6574   22200935.0264
      -400.942        -312.422
   2549262.232 9   1852281.18648  21291774.999    21291773.5294   21291777.9394
     -1913.686       -1491.184
  -2087971.039 9  -1619814.76448  20655242.733    20655240.8004   20655244.8594
      1408.566        1097.584
    -21722.488 9    -16570.74247  23461861.916    23461859.8034   23461864.7484
      -120.684         -94.039
  -4417635.575 9  -3426168.17747  22887675.028    22887673.2804   22887677.8334
      3203.348        2496.115
  -4730556.315 9  -3114636.79245  24379352.824    24379351.2504   24379355.4184
      4133.367        3220.805
 96 10 16 15 49 29.9990000  0  8 17 28 26  6 23 22 21  3            -0.000284167
  -1146911.128 9   -843111.95848  20474337.833    20474335.9684   20474340.1604
       862.913         672.400
  -3667343.262 9  -2843830.712 9  20890184.655    20890183.068    20890186.667
      2460.517        1917.286
    272261.873 9    211835.21948  22203253.112    22203251.8964   22203255.2134
      -410.792        -320.098
   2606798.698 9   1897114.76548  21302723.865    21302722.4064   21302726.8204
     -1920.934       -1496.832
  -2130137.817 9  -1652671.99248  20647218.670    20647216.7364   20647220.7834
      1403.889        1093.939
    -17972.835 9    -13648.95147  23462575.472    23462573.3944   23462578.3134
      -128.154         -99.860
  -4513704.597 9  -3501027.14947  22869393.687    22869391.9474   22869396.5354
      3202.511        2495.463
  -4854602.599 9  -3211296.21846  24355747.734    24355746.1324   24355750.1004
      4137.386        3223.937
 96 10 16 15 49 59.9990000  0  8 17 28 26  6 23 22 21  3            -0.000296348
  -1172772.697 9   -863263.83448  20469416.610    20469414.7064   20469418.8534
       862.334         671.949
  -3741013.323 9  -2901235.959 9  20876165.737    20876164.146    20876167.793
      2452.023        1910.667
    284769.077 9    221581.08348  22205633.230    22205632.0154   22205635.2904
      -421.924        -328.772
   2664571.678 9   1942132.64348  21313717.696    21313716.2434   21313720.6514
     -1929.263       -1503.322
  -2172158.925 9  -1685415.71748  20639222.294    20639220.3674   20639224.4434
      1398.715        1089.908
    -13977.399 9    -10535.63947  23463335.874    23463333.7744   23463338.5624
      -137.082        -106.817
  -4609735.365 9  -3575856.31247  22851119.622    22851117.8824   22851122.4974
      3200.920        2494.223
  -4978734.505 9  -3308022.36246  24332126.300    24332124.6434   24332128.6854
      4139.200        3225.351
 96 10 16 15 50 29.9990000  0  8 17 28 26  6 23 22 21  3            -0.000308644
  -1198622.877 9   -883406.83848  20464497.504    20464495.5884   20464499.7024
       861.379         671.204
  -3814442.784 9  -2958453.726 9  20862192.610    20862191.015    20862194.685
      2443.712        1904.191
    297600.767 9    231579.80148  22208075.053    22208073.8114   22208077.1344
      -433.186        -337.548
   2722578.062 9   1987332.39348  21324755.922    21324754.4904   21324758.9174
     -1937.141       -1509.461
  -2214036.051 9  -1718047.24148  20631253.324    20631251.4184   20631255.5124
      1393.394        1085.762
     -9724.882 9     -7222.01147  23464145.068    23464142.9904   23464147.7634
      -145.901        -113.689
  -4705745.487 9  -3650669.39247  22832849.504    22832847.7524   22832852.4034
      3200.219        2493.677
  -5102932.989 9  -3404800.38646  24308492.164    24308490.4104   24308494.5544
      4141.243        3226.943
 96 10 16 15 50 59.9990000  0  8 17 28 26  6 23 22 21  3            -0.000321065
  -1224441.768 9   -903525.46148  20459584.390    20459582.4844   20459586.5474
       859.615         669.830
  -3887627.555 9  -3015480.824 9  20848266.017    20848264.413    20848268.051
      2435.017        1897.416
    310775.488 9    241845.81048  22210582.104    22210580.9134   22210584.2114
      -445.492        -347.137
   2780796.541 9   2032697.40748  21335834.536    21335833.0984   21335837.5644
     -1944.134       -1514.910
  -2255757.712 9  -1750557.62548  20623313.942    20623312.0324   20623316.1694
      1387.839        1081.433
     -5219.641 9     -3711.46647  23465002.461    23465000.3904   23465005.1044
      -154.617        -120.481
  -4801745.885 9  -3725474.89247  22814581.234    22814579.4814   22814584.0974
      3199.630        2493.218
  -5227208.990 9  -3501638.81646  24284843.199    24284841.5254   24284845.5844
      4143.533        3228.727
 96 10 16 15 51 29.9990000  0  8 17 28 26  6 23 22 21  3            -0.000333620
  -1250219.974 9   -923612.38148  20454678.953    20454677.0604   20454681.1354
       858.550         669.000
  -3960567.169 9  -3072316.886 9  20834386.025    20834384.449    20834388.037
      2427.258        1891.370
    324313.044 9    252394.54548  22213158.230    22213157.0474   22213160.3464
      -457.428        -356.437
   2839195.104 9   2078202.74648  21346947.411    21346945.9914   21346950.4904
     -1949.455       -1519.056
  -2297325.385 9  -1782948.01648  20615403.871    20615401.9504   20615406.1214
      1382.870        1077.561
      -479.949 9       -18.22247  23465904.389    23465902.2914   23465907.1224
      -161.714        -126.011
  -4897750.003 9  -3800283.30347  22796312.249    22796310.4874   22796315.1114
      3200.323        2493.758
  -5351568.366 9  -3598542.21246  24261178.436    24261176.6374   24261180.8784
      4146.845        3231.308
 96 10 16 15 51 59.9990000  0  8 17 28 26  6 23 22 21  3            -0.000346333
  -1275966.141 9   -943674.34048  20449779.664    20449777.7634   20449781.8284
       856.920         667.730
  -4033277.829 9  -3128974.544 9  20820549.627    20820548.073    20820551.625
      2418.994        1884.930
    338207.683 9    263221.52448  22215802.360    22215801.1424   22215804.4054
      -470.009        -366.241
   2897738.974 9   2123821.31548  21358088.035    21358086.5844   21358091.1034
     -1954.622       -1523.082
  -2338735.894 9  -1815215.94748  20607523.749    20607521.8444   20607525.9674
      1376.588        1072.666
      4469.242 9      3838.25146  23466846.166    23466844.0504   23466848.9214
      -169.276        -131.903
  -4993780.191 9  -3875112.01547  22778038.312    22778036.5794   22778041.2144
      3200.462        2493.866
  -5476037.572 9  -3695531.19146  24237492.704    24237491.0224   24237495.2554
      4150.070        3233.821
 96 10 16 15 52 29.9990000  0  8 17 28 26  6 23 22 21  3            -0.000359197
  -1301654.371 9   -963691.14948  20444891.350    20444889.4384   20444893.5154
       855.157         666.356
  -4105725.061 9  -3185426.931 9  20806763.411    20806761.859    20806765.420
      2410.141        1878.032
    352494.347 9    274353.98248  22218521.014    22218519.8314   22218523.0674
      -482.949        -376.324
   2956449.322 9   2169569.60448  21369260.299    21369258.8664   21369263.3714
     -1960.070       -1527.327
  -2379934.496 9  -1847318.75648  20599683.913    20599682.0204   20599686.1004
      1369.258        1066.954
      9656.761 9      7880.45747  23467833.393    23467831.2994   23467836.1174
      -177.090        -137.992
  -5089793.899 9  -3949927.88947  22759767.550    22759765.8214   22759770.4254
      3199.553        2493.158
  -5600598.734 9  -3792591.82846  24213789.522    24213787.9544   24213792.1054
      4153.477        3236.476
 96 10 16 15 52 59.9990000  0  8 17 28 26  6 23 22 21  3            -0.000372218
  -1327291.965 9   -983668.49848  20440012.684    20440010.7804   20440014.8784
       853.578         665.126
  -4177899.148 9  -3241666.482 9  20793029.202    20793027.627    20793031.204
      2400.862        1870.802
    367166.334 9    285786.68848  22221313.023    22221311.8384   22221315.1024
      -495.503        -386.106
   3015328.806 9   2215449.69548  21380464.739    21380463.3164   21380467.7984
     -1966.021       -1531.964
  -2420901.584 9  -1879241.16048  20591888.098    20591886.2064   20591890.3104
      1361.527        1060.930
     15078.379 9     12105.07646  23468865.273    23468863.0564   23468867.8964
      -184.927        -144.099
  -5185768.281 9  -4024713.12347  22741504.262    22741502.5204   22741507.1284
      3198.129        2492.049
  -5725255.476 9  -3889726.93646  24190068.221    24190066.5534   24190070.7524
      4156.179        3238.581
 96 10 16 15 53 29.9990000  0  8 17 28 26  6 23 22 21  3            -0.000385389
  -1352892.431 9  -1003616.92048  20435141.081    20435139.1704   20435143.2964
       852.881         664.582
  -4249793.194 9  -3297687.825 9  20779348.200    20779346.612    20779350.259
      2391.697        1863.660
    382200.976 9    297501.98548  22224173.975    22224172.8364   22224176.1684
      -507.118        -395.157
   3074400.252 9   2261479.35848  21391705.683    21391704.2944   21391708.7554
     -1972.589       -1537.082
  -2461641.431 9  -1910986.50048  20584135.590    20584133.6894   20584137.7974
      1354.179        1055.204
     20737.490 9     16514.74246  23469942.111    23469940.0094   23469944.7424
      -192.783        -150.221
  -5281697.186 9  -4099462.92247  22723249.535    22723247.8024   22723252.4824
      3196.800        2491.013
  -5849983.682 9  -3986917.75446  24166333.267    24166331.5254   24166335.8204
      4158.795        3240.619
 96 10 16 15 53 59.9990000  0  8 17 28 26  6 23 22 21  3            -0.000398696
  -1378471.126 9  -1023548.37548  20430273.578    20430271.7044   20430275.8464
       851.985         663.884
  -4321401.090 9  -3353486.190 9  20765721.598    20765720.035    20765723.702
      2381.785        1855.936
    397588.019 9    309491.87948  22227102.028    22227100.9114   22227104.2584
      -519.031        -404.440
   3133681.904 9   2307672.81948  21402986.704    21402985.2644   21402989.7204
     -1979.997       -1542.855
  -2502162.732 9  -1942561.53748  20576424.707    20576422.8094   20576426.8794
      1347.029        1049.633
     26646.434 9     21119.08846  23471066.474    23471064.4174   23471069.2274
      -201.560        -157.060
  -5377574.327 9  -4174172.37847  22705004.635    22705002.9454   22705007.6564
      3194.562        2489.269
  -5974782.397 9  -4084163.49646  24142584.823    24142583.1324   24142587.4944
      4160.689        3242.095
 96 10 16 15 54 29.9990000  0  8 17 28 26  6 23 22 21  3            -0.000412113
  -1404021.054 9  -1043457.42248  20425411.560    20425409.6984   20425413.8634
       851.400         663.428
  -4392706.644 9  -3409048.958 9  20752152.599    20752151.057    20752154.654
      2372.165        1848.440
    413339.727 9    321765.92748  22230099.538    22230098.4344   22230101.7324
      -530.812        -413.620
   3193198.275 9   2354049.18148  21414312.320    21414310.8854   21414315.3484
     -1987.516       -1548.714
  -2542476.718 9  -1973975.03648  20568753.261    20568751.3484   20568755.3744
      1340.754        1044.743
     32828.139 9     25935.98446  23472242.762    23472240.7724   23472245.6174
      -210.266        -163.844
  -5473379.956 9  -4248826.12147  22686773.473    22686771.7604   22686776.4364
      3192.770        2487.873
  -6099633.332 9  -4181449.93846  24118826.421    24118824.7624   24118829.1664
      4162.952        3243.859
 96 10 16 15 54 59.9990000  0  8 17 28 26  6 23 22 21  3            -0.000425632
  -1429528.087 9  -1063333.04248  20420557.770    20420555.8934   20420560.0514
       849.656         662.070
  -4463705.268 9  -3464372.558 9  20738642.029    20738640.499    20738644.016
      2361.711        1840.294
    429463.149 9    334329.62148  22233167.803    22233166.6654   22233169.9244
      -543.519        -423.521
   3252965.128 9   2400620.72648  21425685.628    21425684.1704   21425688.6544
     -1996.266       -1555.532
  -2582584.762 9  -2005228.05648  20561120.940    20561119.0214   20561123.0304
      1333.958        1039.448
     39284.407 9     30966.81546  23473471.421    23473469.3684   23473474.2614
      -219.583        -171.104
  -5569119.668 9  -4323428.49447  22668554.875    22668553.1484   22668557.7454
      3190.477        2486.086
  -6224527.959 9  -4278770.42246  24095059.596    24095058.0884   24095062.5474
      4163.845        3244.555
 96 10 16 15 55 29.9990000  0  8 17 28 26  6 23 22 21  3            -0.000439232
  -1454977.471 9  -1083163.73748  20415714.857    20415713.0304   20415717.1704
       847.052         660.041
  -4534386.039 9  -3519448.487 9  20725191.906    20725190.376    20725193.936
      2350.495        1831.555
    445982.735 9    347202.01048  22236311.395    22236310.2164   22236313.5064
      -557.872        -434.705
   3312995.450 9   2447397.56448  21437109.066    21437107.6174   21437112.0874
     -2005.540       -1562.758
  -2622493.200 9  -2036325.53948  20553526.596    20553524.7164   20553528.7164
      1326.634        1033.741
     46025.565 9     36219.64546  23474754.263    23474752.1784   23474757.0634
      -229.648        -178.946
  -5664783.521 9  -4397971.75547  22650350.725    22650348.9864   22650353.5514
      3187.301        2483.611
  -6349447.299 9  -4376110.16846  24071288.161    24071286.5644   24071291.1394
      4164.384        3244.975
 96 10 16 15 55 59.9990000  0  8 17 28 26  6 23 22 21  3            -0.000452905
  -1480348.171 9  -1102933.12148  20410887.008    20410885.1754   20410889.2894
       844.420         657.990
  -4604740.971 9  -3574270.519 9  20711803.747    20711802.217    20711805.893
      2340.094        1823.450
    462939.156 9    360414.79648  22239538.062    22239536.8714   22239540.2314
      -572.174        -445.850
   3373286.701 9   2494377.73348  21448582.098    21448580.6714   21448585.1754
     -2013.578       -1569.022
  -2662185.482 9  -2067254.59248  20545973.440    20545971.5484   20545975.5224
      1319.730        1028.361
     53054.189 9     41696.47446  23476091.784    23476089.7604   23476094.5514
      -238.670        -185.977
  -5760360.514 9  -4472447.33647  22632163.035    22632161.2904   22632165.8914
      3184.761        2481.632
  -6474388.242 9  -4473466.75546  24047512.633    24047511.0794   24047515.6824
      4165.165        3245.583
 96 10 16 15 56 29.9990000  0  8 17 28 26  6 23 22 21  3            -0.000466651
  -1505612.874 9  -1122619.91148  20406079.351    20406077.5074   20406081.5874
       840.543         654.969
  -4674764.590 9  -3628834.381 9  20698478.683    20698477.172    20698480.890
      2328.789        1814.641
    480341.538 9    373975.08448  22242849.661    22242848.4394   22242851.7794
      -587.075        -457.461
   3433837.038 9   2541559.77948  21460104.457    21460103.0444   21460107.5484
     -2022.326       -1575.838
  -2701645.001 9  -2098002.27248  20538464.534    20538462.6314   20538466.6244
      1311.489        1021.939
     60375.066 9     47401.02846  23477484.849    23477482.8574   23477487.6954
      -248.493        -193.631
  -5855841.610 9  -4546848.18547  22613993.511    22613991.7974   22613996.4554
      3181.290        2478.927
  -6599330.139 9  -4570824.07546  24023736.869    24023735.3184   24023739.9764
      4164.905        3245.381
 96 10 16 15 56 59.9990000  0  8 17 28 26  6 23 22 21  3            -0.000480486
  -1530767.607 9  -1142221.00848  20401292.614    20401290.7624   20401294.8144
       836.882         652.116
  -4744453.940 9  -3683137.772 9  20685217.281    20685215.759    20685219.472
      2317.394        1805.762
    498170.140 9    387867.48548  22246242.371    22246241.1704   22246244.4804
      -601.158        -468.435
   3494635.030 9   2588934.80348  21471673.973    21471672.5724   21471677.0714
     -2030.520       -1582.223
  -2740861.021 9  -2128560.21248  20531001.951    20531000.0694   20531004.0634
      1303.326        1015.579
     67969.517 9     53318.74946  23478930.002    23478928.0144   23478932.9174
      -257.509        -200.656
  -5951227.334 9  -4621174.71447  22595842.221    22595840.5284   22595845.2084
      3178.080        2476.426
  -6724257.917 9  -4668170.39546  23999963.781    23999962.3014   23999966.8484
      4163.832        3244.544
 96 10 16 15 57 29.9990000  0  8 17 28 26  6 23 22 21  3            -0.000494409
  -1555813.938 9  -1161737.63748  20396526.457    20396524.5984   20396528.6884
       832.890         649.005
  -4813798.127 9  -3737172.206 9  20672021.546    20672019.990    20672023.702
      2305.492        1796.487
    516423.560 9    402090.91148  22249715.956    22249714.7244   22249718.0264
      -615.648        -479.726
   3555676.598 9   2636499.62647  21483289.798    21483288.4214   21483292.9294
     -2038.862       -1588.724
  -2779830.878 9  -2158926.33448  20523586.242    20523584.3494   20523588.3494
      1294.466        1008.675
     75834.007 9     59446.90846  23480426.711    23480424.7044   23480429.5304
      -266.792        -207.890
  -6046516.254 9  -4695425.82047  22577709.402    22577707.6994   22577712.3354
      3174.592        2473.708
  -6849153.986 9  -4765492.00146  23976196.800    23976195.3474   23976199.8674
      4162.567        3243.559
 96 10 16 15 57 59.9990000  0  8 17 28 26  6 23 22 21  3            -0.000508436
  -1580743.030 9  -1181162.90448  20391782.593    20391780.7604   20391784.8694
       828.914         645.907
  -4882789.016 9  -3790931.343 9  20658892.977    20658891.437    20658895.144
      2293.654        1787.263
    535091.706 9    416637.50248  22253268.376    22253267.1674   22253270.4934
      -628.894        -490.047
   3616950.043 9   2684245.13747  21494949.750    21494948.3934   21494952.8784
     -2046.259       -1594.488
  -2818537.547 9  -2189087.37448  20516220.623    20516218.7144   20516222.7234
      1285.895        1001.996
     83970.360 9     65786.89846  23481975.089    23481973.0594   23481977.7884
      -276.001        -215.066
  -6141708.698 9  -4769601.75847  22559594.922    22559593.2464   22559597.7984
      3171.332        2471.168
  -6974015.900 9  -4862786.99646  23952436.255    23952434.8754   23952439.3504
      4161.335        3242.599
 96 10 16 15 58 29.9990000  0  8 17 28 26  6 23 22 21  3            -0.000522569
  -1605561.084 9  -1200501.64948  20387059.863    20387058.0394   20387062.1814
       825.126         642.955
  -4951418.681 9  -3844409.007 9  20645833.167    20645831.636    20645835.345
      2280.977        1777.385
    554151.105 9    431488.96748  22256895.213    22256894.0404   22256897.4244
      -642.399        -500.571
   3678448.528 9   2732165.99847  21506652.589    21506651.2164   21506655.6774
     -2054.259       -1600.721
  -2856988.599 9  -2219049.22948  20508903.667    20508901.7574   20508905.7644
      1276.868         994.962
     92393.038 9     72350.00846  23483577.798    23483575.8354   23483580.5964
      -286.052        -222.898
  -6236798.418 9  -4843697.63947  22541500.022    22541498.3314   22541502.8684
      3167.319        2468.041
  -7098844.078 9  -4960055.72146  23928682.295    23928680.8844   23928685.3044
      4159.824        3241.421
 96 10 16 15 58 59.9990000  0  8 17 28 26  6 23 22 21  3            -0.000536806
  -1630280.454 9  -1219763.49948  20382355.916    20382354.0794   20382358.2664
       822.535         640.936
  -5019677.512 9  -3897597.708 9  20632843.932    20632842.416    20632846.155
      2269.375        1768.344
    573609.125 9    446651.04148  22260597.944    22260596.7684   22260600.1744
      -655.253        -510.587
   3740172.987 9   2780262.94747  21518398.422    21518397.0424   21518401.5144
     -2060.949       -1605.934
  -2895177.558 9  -2248806.85848  20501636.566    20501634.6464   20501638.6854
      1268.901         988.754
    101104.879 9     79138.42846  23485235.582    23485233.5764   23485238.4964
      -295.105        -229.952
  -6331784.882 9  -4917713.06347  22523424.656    22523422.9774   22523427.5754
      3164.854        2466.120
  -7223636.661 9  -5057296.67846  23904935.010    23904933.5934   23904937.9584
      4159.545        3241.204
 96 10 16 15 59 29.9990000  0  8 17 28 26  6 23 22 21  3            -0.000551131
  -1654890.869 9  -1238940.45348  20377672.735    20377670.9154   20377675.0864
       818.073         637.459
  -5087558.479 9  -3950491.973 9  20619926.600    20619925.090    20619928.906
      2255.970        1757.899
    593493.206 9    462145.11648  22264381.850    22264380.6624   22264384.0004
      -670.340        -522.343
   3802127.527 9   2828539.17747  21530187.989    21530186.5814   21530191.1024
     -2069.492       -1612.591
  -2933096.570 9  -2278354.13848  20494420.837    20494418.9384   20494422.9704
      1258.985         981.027
    110129.330 9     86170.44346  23486952.945    23486950.8924   23486955.9014
      -306.647        -238.946
  -6426655.058 9  -4991637.87447  22505371.416    22505369.7174   22505374.3994
      3159.680        2462.088
  -7348396.590 9  -5154512.20046  23881193.974    23881192.5174   23881196.8084
      4157.716        3239.779
 96 10 16 15 59 59.9990000  0  8 17 28 26  6 23 22 21  3            -0.000565526
  -1679385.280 9  -1258027.01548  20373011.655    20373009.8104   20373013.9914
       814.543         634.709
  -5155054.607 9  -4003086.362 9  20607082.538    20607081.018    20607084.870
      2243.388        1748.095
    613808.502 9    477975.19948  22268247.792    22268246.5824   22268249.8914
      -684.318        -533.235
   3864326.589 9   2877005.94147  21542024.038    21542022.6534   21542027.2394
     -2077.805       -1619.069
  -2970746.700 9  -2307691.90448  20487256.281    20487254.4004   20487258.4114
      1250.730         974.595
    119487.950 9     93462.83746  23488733.887    23488731.8164   23488736.7844
      -317.490        -247.395
  -6521377.543 9  -5065447.60547  22487346.297    22487344.6144   22487349.2894
      3154.851        2458.325
  -7473114.620 9  -5251695.08046  23857461.016    23857459.4504   23857463.7794
      4156.482        3238.817
 96 10 16 16  0 29.9990000  0  8 17 28 26  6 23 22 21  3            -0.000579976
  -1703777.627 9  -1277034.04448  20368369.974    20368368.1124   20368372.3074
       811.070         632.003
  -5222167.720 9  -4055382.296 9  20594311.363    20594309.853    20594313.646
      2230.351        1737.936
    634552.208 9    494139.10648  22272195.142    22272193.9024   22272197.2724
      -699.068        -544.728
   3926803.069 9   2925688.87147  21553912.901    21553911.5374   21553916.2014
     -2087.810       -1626.865
  -3008138.166 9  -2336828.10848  20480140.894    20480139.0394   20480143.0484
      1241.553         967.444
    129168.071 9    101005.78046  23490575.979    23490573.9604   23490578.8724
      -328.089        -255.654
  -6615950.197 9  -5139140.58047  22469349.761    22469348.0904   22469352.6814
      3149.436        2454.106
  -7597784.894 9  -5348840.73446  23833737.043    23833735.4354   23833739.6054
      4154.316        3237.129
 96 10 16 16  0 59.9990000  0  8 17 28 26  6 23 22 21  3            -0.000594478
  -1728063.843 9  -1295958.36948  20363748.502    20363746.6464   20363750.8184
       807.856         629.498
  -5288895.848 9  -4107378.243 9  20581613.449    20581611.919    20581615.673
      2218.145        1728.425
    655727.614 9    510639.40748  22276224.630    22276223.4294   22276226.8184
      -712.633        -555.298
   3989576.360 9   2974603.09347  21565858.316    21565856.9204   21565861.6224
     -2097.132       -1634.129
  -3045267.464 9  -2365760.02948  20473075.382    20473073.5684   20473077.5864
      1233.796         961.399
    139147.693 9    108782.08546  23492475.097    23492473.0724   23492477.9624
      -337.425        -262.928
  -6710363.997 9  -5212709.78247  22451383.469    22451381.7994   22451386.3594
      3144.732        2450.441
  -7722399.536 9  -5445943.05446  23810023.770    23810022.0884   23810026.2134
      4153.339        3236.368
 96 10 16 16  1 29.9990000  0  8 17 28 26  6 23 22 21  3            -0.000609029
  -1752235.885 9  -1314793.73148  20359148.746    20359146.8884   20359151.0464
       804.153         626.613
  -5355236.544 9  -4159072.297 9  20568989.236    20568987.698    20568991.461
      2205.034        1718.208
    677323.249 9    527467.15448  22280334.155    22280332.9934   22280336.3734
      -726.413        -566.036
   4052661.220 9   3023760.08647  21577863.001    21577861.5914   21577866.3294
     -2107.986       -1642.586
  -3082150.312 9  -2394499.91148  20466056.847    20466055.0274   20466059.0334
      1225.590         955.005
    149431.326 9    116795.28746  23494431.963    23494429.9784   23494434.9454
      -347.595        -270.853
  -6804611.123 9  -5286149.09947  22433448.818    22433447.1484   22433451.7644
      3139.006        2445.979
  -7846968.624 9  -5543009.84946  23786319.064    23786317.3534   23786321.5064
      4151.706        3235.096
 96 10 16 16  1 59.9990000  0  8 17 28 26  6 23 22 21  3            -0.000623632
  -1776297.046 9  -1333542.69548  20354570.069    20354568.2114   20354572.3634
       800.213         623.543
  -5421184.989 9  -4210460.699 9  20556439.686    20556438.151    20556441.937
      2191.964        1708.024
    699321.096 9    544608.31948  22284520.250    22284519.0664   22284522.4584
      -739.762        -576.438
   4116064.573 9   3073165.25447  21589928.280    21589926.8624   21589931.5854
     -2118.342       -1650.656
  -3118793.146 9  -2423052.76848  20459083.977    20459082.1014   20459086.1634
      1217.591         948.772
    160011.539 9    125039.58046  23496445.291    23496443.2284   23496448.2794
      -357.219        -278.352
  -6898703.143 9  -5359467.55247  22415543.662    22415542.0004   22415546.6494
      3134.243        2442.267
  -7971490.009 9  -5640039.47646  23762623.403    23762621.8264   23762625.8624
      4150.304        3234.003
 96 10 16 16  2 29.9990000  0  8 17 28 26  6 23 22 21  3            -0.000638306
  -1800231.214 9  -1352192.70448  20350015.484    20350013.6624   20350017.8484
       795.558         619.915
  -5486738.484 9  -4261541.349 9  20543965.284    20543963.754    20543967.577
      2178.496        1697.529
    721722.794 9    562064.17047  22288783.195    22288782.0074   22288785.4004
      -753.533        -587.168
   4179766.743 9   3122803.27347  21602050.392    21602049.0294   21602053.7284
     -2127.858       -1658.071
  -3155185.351 9  -2451410.32548  20452158.733    20452156.8964   20452160.9414
      1208.728         941.866
    170881.839 9    133509.92446  23498513.856    23498511.8314   23498516.8194
      -367.414        -286.297
  -6992654.691 9  -5432676.54847  22397665.272    22397663.5804   22397668.2154
      3129.454        2438.535
  -8095975.664 9  -5737041.28046  23738934.563    23738933.0824   23738937.1684
      4148.912        3232.918
 96 10 16 16  2 59.9990000  0  8 17 28 26  6 23 22 21  3            -0.000653060
  -1824015.231 9  -1370725.70948  20345489.512    20345487.7114   20345491.9084
       790.363         615.867
  -5551889.861 9  -4312308.662 9  20531567.356    20531565.830    20531569.711
      2165.195        1687.165
    744534.071 9    579839.17448  22293123.983    22293122.8194   22293126.2424
      -766.894        -597.580
   4243732.816 9   3172646.93147  21614222.765    21614221.3914   21614226.0944
     -2136.106       -1664.498
  -3191316.618 9  -2479564.56448  20445283.188    20445281.3454   20445285.3904
      1200.343         935.332
    182067.233 9    142225.79646  23500642.435    23500640.4294   23500645.5414
      -378.013        -294.555
  -7086473.126 9  -5505781.82848  22379812.249    22379810.5604   22379815.1514
      3125.525        2435.474
  -8220423.975 9  -5834013.96846  23715252.852    23715251.3684   23715255.5034
      4147.954        3232.172
 96 10 16 16  3 29.9990000  0  8 17 28 26  6 23 22 21  3            -0.000667900
  -1847640.790 9  -1389135.24248  20340993.706    20340991.9124   20340996.1214
       785.180         611.829
  -5616639.157 9  -4362762.664 9  20519245.952    20519244.471    20519248.324
      2151.829        1676.750
    767753.796 9    597932.45147  22297542.576    22297541.4134   22297544.8614
      -780.693        -608.332
   4307944.993 9   3222682.35447  21626441.959    21626440.6144   21626445.3294
     -2144.124       -1670.746
  -3227191.484 9  -2507519.00448  20438456.450    20438454.6084   20438458.6744
      1191.615         928.531
    193567.748 9    151187.20946  23502831.017    23502829.0564   23502834.1084
      -388.091        -302.409
  -7180175.347 9  -5578796.54348  22361981.325    22361979.6254   22361984.2024
      3121.736        2432.522
  -8344829.892 9  -5930953.62146  23691579.008    23691577.6404   23691581.9264
      4146.074        3230.707
 96 10 16 16  3 59.9990000  0  8 17 28 26  6 23 22 21  3            -0.000682830
  -1871101.185 9  -1407416.07348  20336529.369    20336527.5874   20336531.7994
       778.935         606.962
  -5680982.618 9  -4412900.433 9  20507001.815    20507000.309    20507004.171
      2137.745        1665.775
    791398.149 9    616356.60647  22302041.959    22302040.7814   22302044.2434
      -795.581        -619.933
   4372389.046 9   3272898.45447  21638705.342    21638703.9374   21638708.6784
     -2152.121       -1676.977
  -3262793.572 9  -2535260.89048  20431681.622    20431679.7814   20431683.8414
      1181.827         920.904
    205367.141 9    160381.51446  23505076.491    23505074.4514   23505079.3964
      -398.495        -310.516
  -7273763.480 9  -5651722.35648  22344172.063    22344170.3764   22344174.9844
      3117.368        2429.118
  -8469174.512 9  -6027845.51946  23667916.955    23667915.5914   23667920.0914
      4143.548        3228.739
 96 10 16 16  4 29.9990000  0  8 17 28 26  6 23 22 21  3            -0.000697846
  -1894397.035 9  -1425568.68748  20332096.373    20332094.5814   20332098.7774
       774.061         603.164
  -5744914.559 9  -4462717.532 9  20494835.981    20494834.483    20494838.335
      2124.116        1655.155
    815475.117 9    635117.85947  22306623.623    22306622.4844   22306625.9454
      -809.746        -630.971
   4437060.073 9   3323291.42347  21651011.829    21651010.4404   21651015.2544
     -2159.484       -1682.715
  -3298114.865 9  -2562783.97948  20424960.167    20424958.3444   20424962.4514
      1172.619         913.729
    217467.272 9    169810.16746  23507379.129    23507377.1054   23507381.9884
      -408.450        -318.273
  -7367228.515 9  -5724552.24948  22326386.211    22326384.5624   22326389.1964
      3113.465        2426.077
  -8593444.754 9  -6124679.44746  23644269.137    23644267.7084   23644272.3194
      4140.673        3226.498
 96 10 16 16  4 59.9990000  0  8 17 28 26  6 23 22 21  3            -0.000712940
  -1917544.353 9  -1443605.56248  20327691.605    20327689.8304   20327694.0174
       769.216         599.389
  -5808430.567 9  -4512210.529 9  20482749.333    20482747.820    20482751.661
      2110.351        1644.429
    839979.214 9    654211.94347  22311286.623    22311285.5004   22311288.9294
      -823.732        -641.869
   4501958.353 9   3373861.46647  21663361.591    21663360.2304   21663365.0774
     -2167.066       -1688.623
  -3333164.043 9  -2590095.02748  20418290.499    20418288.6854   20418292.8144
      1164.153         907.132
    229859.014 9    179466.04946  23509737.116    23509735.1444   23509740.0014
      -417.505        -325.329
  -7460572.226 9  -5797287.60548  22308623.521    22308621.8624   22308626.5034
      3109.467        2422.961
  -8717617.420 9  -6221437.35846  23620639.888    23620638.4914   23620643.1174
      4137.629        3224.126
 96 10 16 16  5 29.9990000  0  8 17 28 26  6 23 22 21  3            -0.000728105
  -1940548.210 9  -1461530.65748  20323314.130    20323312.3504   20323316.5524
       764.639         595.822
  -5871528.912 9  -4561378.075 9  20470742.164    20470740.639    20470744.486
      2096.337        1633.509
    864909.617 9    673638.21147  22316030.741    22316029.6174   22316033.0524
      -838.087        -653.055
   4567094.134 9   3424616.57747  21675756.593    21675755.2554   21675760.0744
     -2175.128       -1694.905
  -3367952.445 9  -2617202.87648  20411670.523    20411668.7054   20411672.8014
      1155.055         900.043
    242528.202 9    189338.11446  23512147.933    23512145.9644   23512150.8764
      -427.202        -332.885
  -7553780.135 9  -5869917.14648  22290886.660    22290885.0174   22290889.6254
      3104.562        2419.139
  -8841689.011 9  -6318116.50946  23597029.902    23597028.4394   23597033.1584
      4134.010        3221.306
 96 10 16 16  5 59.9990000  0  8 17 28 26  6 23 22 21  3            -0.000743338
  -1963419.647 9  -1479352.56748  20318961.856    20318960.0994   20318964.2824
       760.028         592.230
  -5934204.492 9  -4610216.197 9  20458815.400    20458813.913    20458817.743
      2082.037        1622.366
    890267.422 9    693397.52247  22320856.204    22320855.0754   22320858.5324
      -852.311        -664.138
   4632467.227 9   3475556.61247  21688196.755    21688195.3974   21688200.2084
     -2183.103       -1701.119
  -3402463.522 9  -2644094.62148  20405103.313    20405101.4844   20405105.5864
      1145.725         892.773
    255498.635 9    199444.92046  23514616.203    23514614.2414   23514619.0354
      -437.626        -341.007
  -7646840.896 9  -5942432.02548  22273177.842    22273176.1874   22273180.7864
      3099.365        2415.090
  -8965662.436 9  -6414719.15546  23573438.534    23573437.0784   23573441.8654
      4130.792        3218.799
 96 10 16 16  6 29.9990000  0  8 17 28 26  6 23 22 21  3            -0.000758636
  -1986151.347 9  -1497065.58848  20314636.170    20314634.3974   20314638.6284
       755.038         588.341
  -5996450.530 9  -4658719.610 9  20446970.398    20446968.910    20446972.724
      2067.398        1610.959
    916048.990 9    713487.04247  22325762.255    22325761.1384   22325764.6324
      -866.746        -675.386
   4698081.453 9   3526684.53847  21700682.740    21700681.4044   21700686.2414
     -2191.549       -1707.701
  -3436693.246 9  -2670767.13648  20398589.566    20398587.7854   20398591.9104
      1136.036         885.223
    268777.914 9    209792.38946  23517143.240    23517141.2764   23517146.0634
      -447.932        -349.038
  -7739739.556 9  -6014820.58748  22255499.816    22255498.1764   22255502.8094
      3093.576        2410.579
  -9089530.636 9  -6511239.83846  23549867.183    23549865.8544   23549870.6004
      4126.813        3215.698
 96 10 16 16  6 59.9990000  0  8 17 28 26  6 23 22 21  3            -0.000773993
  -2008732.809 9  -1514661.54348  20310339.029    20310337.3104   20310341.5224
       750.294         584.645
  -6058264.498 9  -4706886.344 9  20435207.611    20435206.131    20435209.896
      2053.445        1600.087
    942263.900 9    733914.22047  22330750.774    22330749.6944   22330753.1564
      -881.088        -686.562
   4763953.217 9   3578013.13847  21713217.758    21713216.4254   21713221.2524
     -2200.255       -1714.484
  -3470645.385 9  -2697223.34848  20392128.701    20392126.9094   20392131.0434
      1127.285         878.404
    282352.053 9    220369.59846  23519726.403    23519724.4174   23519729.2724
      -457.282        -356.324
  -7832468.650 9  -6087077.02648  22237854.041    22237852.4024   22237857.0304
      3088.165        2406.362
  -9213296.115 9  -6607680.45846  23526315.393    23526314.0484   23526318.8694
      4124.248        3213.700
 96 10 16 16  7 29.9990000  0  8 17 28 26  6 23 22 21  3            -0.000789391
  -2031156.020 9  -1532134.18448  20306072.059    20306070.3334   20306074.5384
       744.756         580.329
  -6119639.296 9  -4754710.862 9  20423528.424    20423526.946    20423530.652
      2038.343        1588.319
    968934.383 9    754696.40147  22335826.103    22335824.9994   22335828.3664
      -896.893        -698.878
   4830117.183 9   3629569.43747  21725808.380    21725807.0754   21725811.8874
     -2210.588       -1722.536
  -3504303.067 9  -2723450.11548  20385723.909    20385722.0994   20385726.2224
      1116.705         870.160
    296238.580 9    231190.23546  23522368.911    23522366.9354   23522371.8124
      -468.314        -364.920
  -7925013.267 9  -6159189.71648  22220243.413    22220241.7694   22220246.3444
      3081.578        2401.230
  -9336960.443 9  -6704042.25346  23502782.899    23502781.5634   23502786.3994
      4120.289        3210.615
 96 10 16 16  7 59.9990000  0  8 17 28 26  6 23 22 21  3            -0.000804826
  -2053419.215 9  -1549482.13648  20301835.560    20301833.8154   20301837.9954
       739.095         575.918
  -6180565.962 9  -4802186.188 9  20411934.516    20411933.016    20411936.735
      2023.139        1576.472
    996075.267 9    775845.11847  22340990.894    22340989.7634   22340993.0964
      -912.748        -711.232
   4896586.935 9   3681364.00547  21738457.234    21738455.9244   21738460.7374
     -2221.053       -1730.691
  -3537656.987 9  -2749440.18448  20379376.922    20379375.1044   20379379.1894
      1106.683         862.350
    310430.545 9    242248.87746  23525069.526    23525067.4854   23525072.3944
      -477.947        -372.426
  -8017367.067 9  -6231153.71548  22202669.136    22202667.4544   22202672.0154
      3075.021        2396.120
  -9460514.482 9  -6800318.11946  23479271.368    23479270.0504   23479274.8424
      4116.216        3207.441
 96 10 16 16  8 29.9990000  0  8 17 28 26  6 23 22 21  3            -0.000820291
  -2075516.437 9  -1566700.75848  20297630.664    20297628.9024   20297633.0264
       733.940         571.901
  -6241038.688 9  -4849307.797 9  20400426.975    20400425.476    20400429.218
      2008.107        1564.759
   1023688.818 9    797362.14947  22346245.498    22346244.4284   22346247.8394
      -928.362        -723.399
   4963371.980 9   3733404.25147  21751166.108    21751164.7614   21751169.5894
     -2231.441       -1738.785
  -3570716.161 9  -2775200.57848  20373085.991    20373084.1834   20373088.2684
      1097.120         854.899
    324902.715 9    253525.85946  23527823.467    23527821.4654   23527826.2804
      -487.183        -379.623
  -8109527.663 9  -6302967.16448  22185131.557    22185129.8884   22185134.4714
      3068.851        2391.312
  -9583938.736 9  -6896492.84546  23455784.510    23455783.1824   23455788.0184
      4111.796        3203.997
 96 10 16 16  8 59.9990000  0  8 17 28 26  6 23 22 21  3            -0.000835778
  -2097455.786 9  -1583796.35848  20293455.772    20293454.0054   20293458.1214
       728.753         567.859
  -6301052.031 9  -4896071.445 9  20389006.815    20389005.333    20389009.084
      1992.804        1552.834
   1051777.339 9    819249.29647  22351590.535    22351589.4924   22351592.9954
      -943.913        -735.517
   5030472.088 9   3785690.00147  21763934.934    21763933.5904   21763938.3864
     -2241.613       -1746.711
  -3603485.029 9  -2800734.75848  20366850.247    20366848.4274   20366852.5804
      1087.397         847.322
    339670.200 9    265032.95446  23530633.715    23530631.7684   23530636.5144
      -497.388        -387.575
  -8201499.835 9  -6374633.78848  22167629.839    22167628.1804   22167632.7834
      3062.691        2386.512
  -9707225.829 9  -6992560.70246  23432323.816    23432322.4674   23432327.2524
      4107.299        3200.493
 96 10 16 16  9 29.9990000  0  8 17 28 26  6 23 22 21  3            -0.000851303
  -2119231.345 9  -1600764.33748  20289312.020    20289310.2574   20289314.3704
       722.790         563.213
  -6360601.741 9  -4942473.817 9  20377674.877    20377673.408    20377677.135
      1977.073        1540.576
   1080320.465 9    841490.67447  22357022.139    22357021.0514   22357024.5864
      -958.960        -747.242
   5097857.752 9   3838198.26947  21776757.977    21776756.6454   21776761.5134
     -2250.560       -1753.683
  -3635952.873 9  -2826034.37748  20360671.764    20360669.9654   20360674.1424
      1077.155         839.341
    354747.975 9    276781.84046  23533503.040    23533501.0934   23533505.8094
      -507.729        -395.633
  -8293289.601 9  -6446158.27748  22150162.762    22150161.1334   22150165.7904
      3056.606        2381.771
  -9830368.653 9  -7088516.13946  23408890.554    23408889.1644   23408893.8684
      4102.100        3196.442
 96 10 16 16  9 59.9990000  0  8 17 28 26  6 23 22 21  3            -0.000866885
  -2140832.620 9  -1617596.51148  20285201.430    20285199.6634   20285203.8144
       717.297         558.933
  -6419685.348 9  -4988512.994 9  20366431.676    20366430.190    20366433.900
      1961.884        1528.741
   1109300.668 9    864072.62747  22362536.995    22362535.8594   22362539.3694
      -972.855        -758.069
   5165490.986 9   3890899.44147  21789628.172    21789626.8324   21789631.7244
     -2258.235       -1759.664
  -3668123.177 9  -2851102.14648  20354549.981    20354548.1964   20354552.2984
      1067.565         831.869
    370120.018 9    288760.02046  23536428.182    23536426.2094   23536431.1424
      -517.051        -402.897
  -8384903.675 9  -6517545.86348  22132729.190    22132727.5544   22132732.2144
      3051.062        2377.451
  -9953359.963 9  -7184353.51646  23385486.017    23385484.6654   23385489.3114
      4097.299        3192.701
 96 10 16 16 10 29.9990000  0  8 17 28 26  6 23 22 21  3            -0.000882528
  -2162245.619 9  -1634281.97448  20281126.691    20281124.9074   20281129.0844
       710.151         553.364
  -6478295.814 9  -5034183.490 9  20355278.523    20355277.023    20355280.716
      1945.374        1515.876
   1138708.768 9    886988.01447  22368133.214    22368132.0654   22368135.5044
      -987.733        -769.662
   5233369.358 9   3943791.63247  21802544.949    21802543.6354   21802548.5944
     -2267.030       -1766.517
  -3699988.269 9  -2875932.09348  20348486.302    20348484.4874   20348488.5524
      1056.799         823.480
    385802.912 9    300980.41146  23539412.419    23539410.4664   23539415.5674
      -528.533        -411.844
  -8476339.751 9  -6588794.75248  22115329.532    22115327.8734   22115332.5104
      3044.573        2372.395
 -10076195.962 9  -7280069.87346  23362111.100    23362109.7534   23362114.3794
      4091.740        3188.369
 96 10 16 16 10 59.9990000  0  8 17 28 26  6 23 22 21  3            -0.000898232
  -2183457.209 9  -1650810.49448  20277090.283    20277088.5154   20277092.6714
       703.669         548.313
  -6536429.469 9  -5079482.445 9  20344216.087    20344214.574    20344218.292
      1930.019        1503.911
   1168540.717 9    910233.67247  22373809.999    22373808.8764   22373812.2894
     -1001.194        -780.151
   5301493.198 9   3996875.10147  21815508.483    21815507.1644   21815512.1904
     -2274.846       -1772.607
  -3731555.996 9  -2900530.31748  20342479.131    20342477.3344   20342481.4154
      1047.397         816.154
    401803.744 9    313448.55546  23542457.337    23542455.3654   23542460.4444
      -538.273        -419.434
  -8567598.915 9  -6659905.78848  22097963.533    22097961.8424   22097966.4544
      3039.203        2368.210
 -10198886.083 9  -7375672.55946  23338763.935    23338762.5524   23338767.1874
      4087.450        3185.026
 96 10 16 16 11 29.9990000  0  8 17 28 26  6 23 22 21  3            -0.000913997
  -2204448.831 9  -1667167.60748  20273095.745    20273093.9634   20273098.1164
       696.958         543.084
  -6594087.061 9  -5124410.447 9  20333244.245    20333242.721    20333246.410
      1914.777        1492.034
   1198799.394 9    933811.84147  22379568.026    22379566.9134   22379570.3434
     -1015.156        -791.031
   5369872.717 9   4050157.79647  21828520.722    21828519.4054   21828524.4264
     -2282.965       -1778.934
  -3762827.376 9  -2924897.63048  20336528.386    20336526.5894   20336530.7024
      1038.444         809.177
    418101.433 9    326148.02146  23545558.849    23545556.7714   23545561.8214
      -547.186        -426.379
  -8658679.692 9  -6730877.81548  22080631.436    22080629.7474   22080634.3394
      3033.807        2364.005
 -10321433.216 9  -7471163.82146  23315443.928    23315442.5624   23315447.2474
      4083.294        3181.788
 96 10 16 16 11 59.9990000  0  8 17 28 26  6 23 22 21  3            -0.000929806
  -2225233.235 9  -1683363.24948  20269140.589    20269138.8384   20269143.0044
       689.343         537.150
  -6651269.348 9  -5168968.075 9  20322362.847    20322361.332    20322364.970
      1898.043        1478.995
   1229497.357 9    957732.31547  22385409.708    22385408.5704   22385412.0164
     -1030.638        -803.095
   5438529.295 9   4103656.38847  21841585.676    21841584.3874   21841589.3694
     -2293.512       -1787.152
  -3793816.260 9  -2949044.81448  20330631.379    20330629.5964   20330633.7414
      1028.238         801.224
    434681.632 9    339067.63346  23548714.033    23548711.9904   23548716.8624
      -557.542        -434.448
  -8749574.535 9  -6801704.95848  22063334.712    22063333.0084   22063337.6624
      3026.508        2358.318
 -10443833.797 9  -7566540.88846  23292151.832    23292150.4494   23292155.1104
      4077.315        3177.129
 96 10 16 16 12 29.9990000  0  8 17 28 26  6 23 22 21  3            -0.000945650
  -2245812.581 9  -1699399.11348  20265224.486    20265222.7274   20265226.8904
       682.341         531.694
  -6707978.343 9  -5213156.906 9  20311571.488    20311569.990    20311573.607
      1882.172        1466.628
   1260628.167 9    981990.06747  22391333.725    22391332.5474   22391336.0434
     -1045.096        -814.361
   5507471.290 9   4157377.38547  21854704.946    21854703.6444   21854708.6514
     -2302.877       -1794.450
  -3824536.589 9  -2972982.73648  20324785.431    20324783.6604   20324787.8464
      1019.313         794.270
    451550.075 9    352211.84346  23551923.955    23551921.9294   23551926.8044
      -567.402        -442.131
  -8840279.972 9  -6872384.51348  22046073.986    22046072.3154   22046076.9914
      3020.068        2353.300
 -10566085.410 9  -7661801.88546  23268888.136    23268886.8004   23268891.3614
      4072.217        3173.156
 96 10 16 16 12 59.9990000  0  9 17  1 28 26  6 23 22 21  3         -0.000961525
  -2266187.871 9  -1715275.97248  20261347.189    20261345.4364   20261349.5794
       675.452         526.326
  -2328409.27418  -1782087.44055  24862607.608    24862605.7525   24862612.1455
      4509.563        3513.945
  -6764211.281 9  -5256974.788 9  20300870.730    20300869.242    20300872.834
      1866.144        1454.138
   1292195.103 9   1006587.65947  22397340.671    22397339.5264   22397343.0414
     -1059.944        -825.930
   5576689.487 9   4211313.58847  21867876.716    21867875.4294   21867880.4594
     -2312.134       -1801.663
  -3854981.437 9  -2996705.99748  20318991.956    20318990.1964   20318994.3724
      1009.620         786.717
    468713.596 9    365585.98246  23555189.927    23555187.9664   23555192.9304
      -577.469        -449.976
  -8930785.805 9  -6942908.53048  22028851.288    22028849.6364   22028854.3284
      3013.218        2347.962
 -10688169.457 9  -7756932.28746  23245656.260    23245655.0094   23245659.5314
      4066.205        3168.471
 96 10 16 16 13 29.9990000  0  9 17  1 28 26  6 23 22 21  3         -0.000977431
  -2286367.049 9  -1731000.00848  20257507.201    20257505.4454   20257509.5954
       669.480         521.673
  -2463775.297 8  -1887567.45145  24836848.217    24836846.4474   24836852.6804
      4514.266        3517.610
  -6819967.719 9  -5300421.367 9  20290260.655    20290259.173    20290262.751
      1850.340        1441.823
   1324203.863 9   1031529.53347  22403431.761    22403430.6174   22403434.0764
     -1074.454        -837.237
   5646171.031 9   4265455.01547  21881098.639    21881097.3254   21881102.4484
     -2320.487       -1808.172
  -3885135.241 9  -3020202.46948  20313253.899    20313252.1414   20313256.2934
      1000.155         779.341
    486185.209 9    379200.20046  23558514.626    23558512.7114   23558517.7644
      -587.994        -458.177
  -9021094.034 9  -7013278.57648  22011666.237    22011664.5684   22011669.2664
      3006.754        2342.925
 -10810082.359 9  -7851929.35546  23222457.033    23222455.7874   23222460.2174
      4060.658        3164.149
 96 10 16 16 13 59.9990000  0  9 17  1 28 26  6 23 22 21  3         -0.000993372
  -2306380.798 9  -1746595.14948  20253698.701    20253696.9534   20253701.1064
       664.241         517.590
  -2599274.498 8  -1993151.26545  24811063.687    24811062.1284   24811067.7304
      4518.313        3520.763
  -6875249.819 9  -5343498.336 9  20279740.843    20279739.342    20279742.914
      1834.728        1429.658
   1356637.684 9   1056802.61347  22409603.732    22409602.6004   22409606.0334
     -1088.192        -847.942
   5715891.969 9   4319782.96347  21894366.036    21894364.7804   21894369.9464
     -2327.898       -1813.946
  -3915008.225 9  -3043480.12148  20307569.315    20307567.5334   20307571.6774
       990.990         772.200
    503981.128 9    393067.12547  23561901.155    23561899.1934   23561904.3004
      -598.786        -466.586
  -9111210.073 9  -7083498.85948  21994517.756    21994516.0944   21994520.7624
      3000.606        2338.135
 -10931824.894 9  -7946793.65146  23199290.222    23199288.9824   23199293.3124
      4055.152        3159.859
 96 10 16 16 14 29.9990000  0  9 17  1 28 26  6 23 22 21  3         -0.001009353
  -2326226.516 9  -1762059.34948  20249922.211    20249920.4604   20249924.6064
       658.660         513.241
  -2734879.856 8  -2098817.80545  24785258.996    24785257.2974   24785262.9204
      4521.879        3523.542
  -6930052.114 9  -5386201.429 9  20269312.280    20269310.808    20269314.401
      1818.511        1417.022
   1389499.013 9   1082408.82547  22415857.005    22415855.9354   22415859.3354
     -1102.797        -859.322
   5785839.788 9   4374287.72147  21907676.664    21907675.3704   21907680.5954
     -2335.598       -1819.946
  -3944590.499 9  -3066531.24548  20301940.035    20301938.2754   20301942.4044
       980.848         764.297
    522114.433 9    407196.94847  23565351.905    23565349.9114   23565355.0244
      -610.162        -475.451
  -9201136.700 9  -7153571.54348  21977405.273    21977403.5934   21977408.2864
      2994.280        2333.205
 -11053399.119 9  -8041526.79146  23176155.373    23176154.1094   23176158.4924
      4049.518        3155.468
 96 10 16 16 14 59.9980000  0  9 17  1 28 26  6 23 22 21  3         -0.001025374
  -2345917.722 9  -1777403.15648  20246175.165    20246173.3924   20246177.5394
       654.090         509.681
  -2870596.184 8  -2204570.78345  24759433.023    24759431.2724   24759437.3774
      4526.099        3526.830
  -6984370.844 9  -5428527.720 9  20258975.762    20258974.311    20258977.911
      1802.949        1404.895
   1422795.096 9   1108353.79247  22422193.111    22422192.0584   22422195.4524
     -1116.837        -870.263
   5856016.752 9   4428971.02047  21921030.909    21921029.6574   21921034.8404
     -2342.965       -1825.687
  -3973874.279 9  -3089349.78348  20296367.540    20296365.7674   20296369.9414
       971.686         757.158
    540568.912 9    421577.03347  23568863.724    23568861.7314   23568866.8714
      -619.999        -483.116
  -9290877.203 9  -7223499.20448  21960328.153    21960326.5244   21960331.2374
      2988.812        2328.944
 -11174802.290 9  -8136126.65146  23153053.118    23153051.8644   23153056.1944
      4044.552        3151.599
 96 10 16 16 15 29.9980000  0  9 17  1 28 26  6 23 22 21  3         -0.001041436
  -2365455.365 9  -1792627.30048  20242457.268    20242455.5104   20242459.7084
       648.714         505.491
  -3006429.329 8  -2310414.79445  24733584.774    24733583.1994   24733589.2154
      4529.646        3529.594
  -7038207.637 9  -5470478.471 9  20248730.999    20248729.532    20248733.109
      1786.439        1392.030
   1456522.585 9   1134634.93647  22428611.316    22428610.2134   22428613.6334
     -1131.383        -881.597
   5926434.083 9   4483841.63247  21934430.880    21934429.6564   21934434.7994
     -2351.257       -1832.148
  -4002879.550 9  -3111951.28248  20290847.979    20290846.2124   20290850.4044
       962.359         749.890
    559325.255 9    436192.33847  23572432.942    23572430.9294   23572436.0734
      -629.904        -490.834
  -9380439.614 9  -7293288.09448  21943284.988    21943283.3794   21943288.0274
      2982.135        2323.742
 -11296050.353 9  -8230605.64546  23129980.437    23129979.1974   23129983.3924
      4038.762        3147.087
 96 10 16 16 15 59.9980000  0  9 17  1 28 26  6 23 22 21  3         -0.001057540
  -2384838.572 9  -1807731.11248  20238768.737    20238767.0164   20238771.2194
       642.912         500.970
  -3142383.475 9  -2416353.07045  24707713.562    24707711.8154   24707718.0824
      4533.560        3532.644
  -7091561.185 9  -5512052.670 9  20238578.150    20238576.696    20238580.291
      1770.116        1379.311
   1490674.741 9   1161246.98647  22435110.273    22435109.1604   22435112.6354
     -1145.691        -892.746
   5997092.440 9   4538900.04747  21947876.801    21947875.5084   21947880.6294
     -2359.673       -1838.706
  -4031618.234 9  -3134345.06648  20285379.125    20285377.3954   20285381.5614
       953.135         742.702
    578346.877 9    451014.35147  23576052.690    23576050.6554   23576055.6994
      -638.349        -497.415
  -9469807.945 9  -7362925.74948  21926278.740    21926277.1414   21926281.7814
      2975.362        2318.464
 -11417130.189 9  -8324953.55246  23106939.732    23106938.4424   23106942.6434
      4032.730        3142.387
 96 10 16 16 16 29.9980000  0  9 17  1 28 26  6 23 22 21  3         -0.001073692
  -2404038.203 9  -1822691.87448  20235115.160    20235113.4594   20235117.6394
       636.637         496.081
  -3278474.933 9  -2522398.38545  24681816.281    24681814.5374   24681820.7764
      4538.947        3536.842
  -7144429.392 9  -5553248.684 9  20228517.633    20228516.198    20228519.813
      1754.026        1366.774
   1525245.521 9   1188185.23547  22441688.859    22441687.7714   22441691.2614
     -1159.280        -903.335
   6068003.089 9   4594155.06047  21961370.679    21961369.4074   21961374.4984
     -2368.094       -1845.268
  -4060081.513 9  -3156524.24048  20279962.757    20279961.0234   20279965.1514
       944.047         735.621
    597603.673 9    466019.62347  23579717.160    23579715.1254   23579720.1944
      -645.935        -503.326
  -9558978.116 9  -7432408.99048  21909310.203    21909308.6074   21909313.2824
      2968.951        2313.468
 -11538032.821 9  -8419163.38546  23083932.741    23083931.4004   23083935.6314
      4026.809        3137.773
 96 10 16 16 16 59.9980000  0  9 17  1 28 26  6 23 22 21  3         -0.001089892
  -2423034.348 9  -1837494.07248  20231500.346    20231498.6194   20231502.7924
       629.749         490.714
  -3414721.585 9  -2628564.63145  24655889.241    24655887.5834   24655893.8044
      4544.048        3540.817
  -7196810.531 9  -5594065.158 9  20218549.841    20218548.417    20218552.020
      1737.970        1354.262
   1560218.917 9   1215437.21547  22448344.011    22448342.9704   22448346.4474
     -1172.281        -913.466
   6139167.287 9   4649607.64047  21974912.827    21974911.5694   21974916.6634
     -2376.139       -1851.537
  -4088275.836 9  -3178493.84848  20274597.621    20274595.8744   20274599.9644
       935.519         728.976
    617093.963 9    481206.83647  23583426.066    23583424.0664   23583429.1234
      -653.601        -509.299
  -9647947.688 9  -7501735.91848  21892379.866    21892378.2894   21892382.9854
      2962.380        2308.348
 -11658741.421 9  -8513222.02146  23060962.679    23060961.3014   23060965.5774
      4020.465        3132.830
 96 10 16 16 17 29.9980000  0  9 17  1 28 26  6 23 22 21  3         -0.001106145
  -2441815.100 9  -1852128.42848  20227926.499    20227924.7944   20227928.9114
       622.921         485.393
  -3551106.641 9  -2734838.68845  24629935.883    24629934.3574   24629940.6644
      4548.544        3544.320
  -7248700.917 9  -5634499.232 9  20208675.479    20208674.029    20208677.600
      1721.720        1341.600
   1595587.570 9   1242997.17747  22455074.516    22455073.4514   22455076.8834
     -1185.268        -923.585
   6210571.459 9   4705247.20247  21988500.679    21988499.3514   21988504.4584
     -2383.747       -1857.465
  -4116196.781 9  -3200250.42848  20269284.481    20269282.7044   20269286.8004
       926.069         721.612
    636826.520 9    496582.83947  23587181.119    23587179.1634   23587184.1834
      -661.557        -515.499
  -9736713.817 9  -7570904.32348  21875488.210    21875486.6364   21875491.3784
      2955.856        2303.264
 -11779253.838 9  -8607127.80546  23038029.897    23038028.5944   23038032.8554
      4013.887        3127.704
 96 10 16 16 17 59.9980000  0  9 17  1 28 26  6 23 22 21  3         -0.001122459
  -2460387.226 9  -1866600.22348  20224392.358    20224390.6614   20224394.7374
       615.520         479.626
  -3687619.726 9  -2841212.51545  24603958.196    24603956.6494   24603963.0614
      4552.543        3547.436
  -7300093.975 9  -5674545.778 9  20198895.706    20198894.261    20198897.823
      1704.800        1328.416
   1631349.557 9   1270863.63147  22461879.908    22461878.8354   22461882.1874
     -1198.500        -933.896
   6282208.234 9   4761068.02447  22002132.802    22002131.4644   22002136.5304
     -2391.673       -1863.641
  -4143815.258 9  -3221771.31448  20264028.851    20264027.0824   20264031.1964
       915.557         713.421
    656813.262 9    512156.88647  23590984.534    23590982.5834   23590987.6364
      -670.804        -522.704
  -9825289.029 9  -7639923.96348  21858632.878    21858631.3164   21858636.0824
      2949.506        2298.316
 -11899557.880 9  -8700871.19446  23015136.818    23015135.5204   23015139.7774
      4006.690        3122.096
 96 10 16 16 18 29.9980000  0  9 17  1 28 26  6 23 22 21  3         -0.001138839
  -2478756.414 9  -1880913.88748  20220896.882    20220895.1604   20220899.1924
       609.673         475.070
  -3824260.818 8  -2947686.09845  24577956.122    24577954.5424   24577961.1914
      4557.313        3551.153
  -7350993.569 9  -5714207.809 9  20189209.834    20189208.381    20189211.965
      1688.928        1316.048
   1667489.534 9   1299024.62547  22468757.139    22468756.0624   22468759.4154
     -1210.497        -943.244
   6354065.311 9   4817060.50947  22015806.832    22015805.4914   22015810.5954
     -2398.425       -1868.903
  -4171138.561 9  -3243062.19748  20258829.352    20258827.5954   20258831.7534
       906.454         706.328
    677074.748 9    527945.03147  23594840.112    23594838.2014   23594843.3854
      -679.598        -529.557
  -9913696.808 9  -7708813.13448  21841809.443    21841807.8814   21841812.6304
      2944.749        2294.610
 -12019664.174 9  -8794460.50247  22992281.344    22992280.0114   22992284.3184
      4000.944        3117.619
 96 10 16 16 18 59.9980000  0  9 17  1 28 26  6 23 22 21  3         -0.001155286
  -2496939.686 9  -1895082.68148  20217436.715    20217435.0164   20217439.0394
       603.139         469.978
  -3961017.137 8  -3054249.43246  24551932.069    24551930.6534   24551937.3394
      4560.430        3553.582
  -7401396.816 9  -5753483.076 9  20179618.374    20179616.943    20179620.580
      1671.813        1302.711
   1704013.538 9   1327484.86647  22475707.379    22475706.3734   22475709.7384
     -1223.944        -953.723
   6426138.370 9   4873221.28047  22029521.932    22029520.6604   22029525.7134
     -2406.016       -1874.818
  -4198171.927 9  -3264127.15848  20253685.048    20253683.3104   20253687.4684
       896.318         698.430
    697610.423 9    543946.82947  23598747.893    23598745.9744   23598751.2064
      -688.817        -536.740
 -10001938.709 9  -7777573.04748  21825017.604    21825016.0684   21825020.7504
      2938.578        2289.801
 -12139588.659 9  -8887908.15647  22969460.482    22969459.0674   22969463.4044
      3994.701        3112.754
 96 10 16 16 19 29.9980000  0  9 17  1 28 26  6 23 22 21  3         -0.001171802
  -2514951.808 9  -1909118.11448  20214009.086    20214007.4054   20214011.4934
       597.353         465.470
  -4097882.955 8  -3160898.10446  24525887.340    24525885.8424   24525892.4644
      4563.905        3556.290
  -7451304.620 9  -5792372.282 9  20170121.271    20170119.808    20170123.456
      1655.195        1289.762
   1740927.891 9   1356249.27847  22482731.932    22482730.9174   22482734.3464
     -1237.158        -964.019
   6498429.481 9   4929551.96047  22043278.531    22043277.2504   22043282.2834
     -2413.664       -1880.777
  -4224916.423 9  -3284967.02348  20248595.721    20248593.9824   20248598.1494
       886.570         690.834
    718404.975 9    560150.33647  23602704.978    23602703.0494   23602708.2574
      -697.616        -543.597
 -10090015.282 9  -7846204.13248  21808257.197    21808255.6284   21808260.3104
      2932.949        2285.415
 -12259351.885 9  -8981230.13946  22946670.191    22946668.8804   22946673.1854
      3989.250        3108.506
 96 10 16 16 19 59.9980000  0  9 17  1 28 26  6 23 22 21  3         -0.001188372
  -2532774.870 9  -1923006.22748  20210617.512    20210615.8094   20210619.9254
       590.164         459.868
  -4234864.998 8  -3267637.33345  24499820.563    24499819.0504   24499825.7404
      4567.603        3559.171
  -7500713.546 9  -5830872.751 9  20160719.063    20160717.627    20160721.222
      1638.172        1276.498
   1778238.842 9   1385322.72847  22489831.945    22489830.9734   22489834.4074
     -1250.794        -974.645
   6570961.359 9   4986070.26947  22057080.976    22057079.6304   22057084.6844
     -2422.378       -1887.567
  -4251385.135 9  -3305591.99648  20243558.903    20243557.1714   20243561.2974
       877.673         683.901
    739465.929 9    576561.45147  23606712.886    23606710.9584   23606716.0664
      -707.047        -550.946
 -10177915.841 9  -7914698.06548  21791530.249    21791528.6844   21791533.3154
      2926.361        2280.281
 -12378955.763 9  -9074427.95247  22923910.236    22923909.0054   22923913.3184
      3983.831        3104.284
 96 10 16 16 20 29.9980000  0  9 17  1 28 26  6 23 22 21  3         -0.001204977
  -2550382.825 9  -1936726.72548  20207266.857    20207265.1744   20207269.2834
       583.296         454.516
  -4371955.806 8  -3374461.33245  24473733.107    24473731.3594   24473738.3124
      4571.337        3562.081
  -7549619.241 9  -5868981.091 9  20151412.607    20151411.189    20151414.798
      1621.735        1263.690
   1815954.059 9   1414711.18547  22497008.936    22497007.9674   22497011.3734
     -1264.038        -984.965
   6643757.624 9   5042794.58247  22070933.640    22070932.3394   22070937.3394
     -2431.141       -1894.396
  -4277605.555 9  -3326023.49248  20238569.310    20238567.5724   20238571.6994
       869.809         677.773
    760798.797 9    593184.43447  23610772.465    23610770.4894   23610775.5574
      -715.572        -557.589
 -10265621.885 9  -7983040.43648  21774840.369    21774838.8214   21774843.4244
      2920.217        2275.494
 -12498409.598 9  -9167508.84347  22901178.910    22901177.6874   22901181.9804
      3979.231        3100.699
 96 10 16 16 20 59.9980000  0  9 17  1 28 26  6 23 22 21  3         -0.001221608
  -2567775.709 9  -1950279.63348  20203957.171    20203955.4564   20203959.5104
       575.720         448.613
  -4509148.215 8  -3481364.45145  24447626.200    24447624.6514   24447631.3084
      4574.211        3564.320
  -7598018.993 9  -5906695.195 9  20142202.424    20142201.025    20142204.663
      1604.377        1250.164
   1854085.482 9   1444423.95447  22504265.150    22504264.1614   22504267.5494
     -1278.550        -996.273
   6716824.109 9   5099729.46747  22084837.693    22084836.3934   22084841.3964
     -2440.372       -1901.589
  -4303576.311 9  -3346260.44848  20233627.238    20233625.5064   20233629.6174
       861.042         670.942
    782405.237 9    610020.59346  23614884.081    23614882.0524   23614887.1924
      -725.547        -565.361
 -10353126.004 9  -8051225.45748  21758188.895    21758187.3264   21758191.9664
      2913.029        2269.893
 -12617707.127 9  -9260467.93347  22878477.318    22878476.0864   22878480.4924
      3973.130        3095.945
 96 10 16 16 21 29.9980000  0  9 17  1 28 26  6 23 22 21  3         -0.001238250
  -2584948.279 9  -1963660.86948  20200689.326    20200687.6394   20200691.6554
       569.279         443.594
  -4646422.246 8  -3588331.19245  24421503.935    24421502.4244   24421509.0584
      4577.641        3566.993
  -7645908.036 9  -5944011.342 9  20133089.483    20133088.068    20133091.698
      1588.293        1237.631
   1892646.843 9   1474471.74447  22511603.124    22511602.1404   22511605.5674
     -1291.981       -1006.738
   6790152.353 9   5156868.30947  22098791.600    22098790.3094   22098795.3384
     -2448.043       -1907.566
  -4329292.155 9  -3366298.76748  20228733.716    20228731.9884   20228736.0604
       853.405         664.991
    804312.935 9    627091.48546  23619052.899    23619050.9074   23619056.2104
      -734.760        -572.540
 -10440432.429 9  -8119256.42248  21741575.060    21741573.4804   21741578.1594
      2907.531        2265.609
 -12736810.800 9  -9353275.98247  22855812.730    22855811.4574   22855815.8744
      3967.086        3091.236
 96 10 16 16 21 59.9980000  0  9 17  1 28 26  6 23 22 21  3         -0.001254900
  -2601900.137 9  -1976870.11748  20197463.537    20197461.8334   20197465.8044
       562.029         437.945
  -4783761.607 8  -3695348.86745  24395369.276    24395367.6504   24395374.1584
      4579.443        3568.397
  -7693282.723 9  -5980926.695 9  20124074.398    20124072.967    20124076.599
      1570.947        1224.115
   1931637.785 9   1504854.27647  22519022.849    22519021.8964   22519025.3574
     -1306.365       -1017.947
   6863728.253 9   5214200.13847  22112792.625    22112791.3504   22112796.3864
     -2456.010       -1913.774
  -4354751.272 9  -3386137.04748  20223889.052    20223887.3174   20223891.3744
       844.725         658.227
    826524.245 9    644398.96346  23623279.555    23623277.5484   23623282.9004
      -744.824        -580.382
 -10527545.987 9  -8187137.11548  21724997.882    21724996.3114   21725000.9754
      2900.952        2260.482
 -12855697.284 9  -9445914.78747  22833189.505    22833188.1594   22833192.6264
      3959.561        3085.372
 96 10 16 16 22 29.9980000  0  9 17  1 28 26  6 23 22 21  3         -0.001271565
  -2618649.219 9  -1989921.35948  20194276.316    20194274.6124   20194278.5704
       555.085         432.534
  -4921150.993 8  -3802405.49645  24369225.122    24369223.4724   24369229.8904
      4580.624        3569.317
  -7740136.491 9  -6017436.133 9  20115158.419    20115156.990    20115160.629
      1553.096        1210.205
   1971062.728 9   1535574.99747  22526525.168    22526524.1834   22526527.6764
     -1321.594       -1029.813
   6937531.264 9   5271708.91247  22126836.928    22126835.6294   22126840.6854
     -2463.480       -1919.595
  -4379931.719 9  -3405758.17948  20219097.369    20219095.6264   20219099.7124
       834.289         650.095
    849026.220 9    661932.93246  23627561.652    23627559.6594   23627564.9004
      -754.764        -588.128
 -10614466.160 9  -8254867.11348  21708457.523    21708455.9424   21708460.5954
      2894.058        2255.110
 -12974338.232 9  -9538362.27347  22810612.908    22810611.5844   22810615.9994
      3950.262        3078.126
 96 10 16 16 22 59.9980000  0  9 17  1 28 26  6 23 22 21  3         -0.001288257
  -2635208.663 9  -2002824.83348  20191125.139    20191123.4424   20191127.4444
       548.845         427.671
  -5058597.680 8  -3909506.79745  24343070.138    24343068.3994   24343074.6784
      4582.523        3570.797
  -7786469.310 9  -6053539.635 9  20106341.605    20106340.181    20106343.784
      1535.870        1196.782
   2010935.124 9   1566644.37147  22534112.674    22534111.6274   22534115.1884
     -1336.346       -1041.309
   7011527.740 9   5329368.44747  22140918.023    22140916.7264   22140921.8094
     -2469.601       -1924.364
  -4404804.527 9  -3425139.58948  20214364.231    20214362.4964   20214366.5814
       823.952         642.041
    871799.532 9    679678.32646  23631895.327    23631893.3504   23631898.5324
      -763.234        -594.728
 -10701185.072 9  -8322440.28248  21691955.465    21691953.8954   21691958.4814
      2887.262        2249.814
 -13092711.382 9  -9630601.08947  22788087.243    22788085.9614   22788090.4094
      3941.338        3071.172
 96 10 16 16 23 29.9980000  0  9 17  1 28 26  6 23 22 21  3         -0.001304987
  -2651568.407 9  -2015572.69348  20188011.970    20188010.3034   20188014.3554
       541.772         422.160
  -5196097.803 8  -4016649.75446  24316904.719    24316903.0924   24316909.3444
      4584.314        3572.193
  -7832275.923 9  -6089233.107 9  20097624.915    20097623.462    20097627.078
      1517.984        1182.845
   2051247.431 9   1598056.52947  22541783.913    22541782.8674   22541786.3834
     -1350.943       -1052.683
   7085718.435 9   5387179.32147  22155036.087    22155034.8364   22155039.9204
     -2476.454       -1929.704
  -4429353.569 9  -3444268.71248  20209692.713    20209690.9634   20209695.0584
       812.812         633.360
    894820.174 9    697616.45546  23636275.974    23636274.0744   23636279.2434
      -771.347        -601.050
 -10787684.383 9  -8389842.33848  21675495.213    21675493.6434   21675498.1724
      2879.246        2243.568
 -13210811.250 9  -9722626.94847  22765613.535    22765612.2594   22765616.7674
      3932.263        3064.101
 96 10 16 16 23 59.9980000  0  9 17  1 28 26  6 23 22 21  3         -0.001321769
  -2667730.523 9  -2028166.56348  20184936.420    20184934.7634   20184938.8514
       535.776         417.488
  -5333673.173 8  -4123851.32545  24290725.063    24290723.4184   24290729.7404
      4587.527        3574.696
  -7877561.429 9  -6124520.524 9  20089007.314    20089005.916    20089009.544
      1501.162        1169.737
   2091970.989 9   1629789.14747  22549533.358    22549532.2964   22549535.7994
     -1363.810       -1062.709
   7160104.052 9   5445142.08247  22169191.234    22169189.9684   22169195.0844
     -2482.513       -1934.426
  -4453585.251 9  -3463150.54448  20205081.571    20205079.8204   20205083.9524
       802.837         625.587
    918065.674 9    715729.78946  23640699.405    23640697.4904   23640702.7234
      -778.241        -606.422
 -10873947.394 9  -8457060.26248  21659079.907    21659078.3334   21659082.8584
      2871.678        2237.671
 -13328664.444 9  -9814460.59247  22743186.752    22743185.4774   22743190.0344
      3924.690        3058.200
 96 10 16 16 24 29.9980000  0  9 17  1 28 26  6 23 22 21  3         -0.001338606
  -2683694.632 9  -2040606.13848  20181898.598    20181896.9174   20181901.0094
       528.756         412.018
  -5471334.877 8  -4231120.19545  24264528.922    24264527.1944   24264533.5404
      4590.288        3576.848
  -7922328.650 9  -6159404.078 9  20080488.412    20080487.027    20080490.628
      1483.664        1156.102
   2133092.021 9   1661831.48847  22557358.402    22557357.3994   22557360.8984
     -1377.202       -1073.144
   7234688.048 9   5503259.42947  22183384.166    22183382.8924   22183388.0284
     -2489.344       -1939.749
  -4477499.490 9  -3481785.01848  20200530.849    20200529.1074   20200533.2524
       792.015         617.154
    941531.712 9    734014.97646  23645164.838    23645162.8964   23645168.1804
      -785.889        -612.381
 -10959967.896 9  -8524089.21848  21642710.690    21642709.1504   21642713.7204
      2863.334        2231.169
 -13446273.343 9  -9906103.88147  22720806.451    22720805.1814   22720809.7784
      3916.418        3051.754
 96 10 16 16 24 59.9980000  0  9 17  1 28 26  6 23 22 21  3         -0.001355497
  -2699448.652 9  -2052882.00048  20178900.737    20178899.0594   20178903.1244
       521.876         406.657
  -5609084.991 8  -4338457.94845  24238315.971    24238314.2904   24238320.5944
      4593.200        3579.117
  -7966577.078 9  -6193883.378 9  20072068.270    20072066.872    20072070.430
      1466.497        1142.725
   2174595.749 9   1694172.03247  22565256.288    22565255.3064   22565258.8194
     -1389.173       -1082.472
   7309478.280 9   5561537.47447  22197616.276    22197615.0344   22197620.1884
     -2496.405       -1945.251
  -4501115.868 9  -3500187.38748  20196036.799    20196035.0684   20196039.2034
       782.849         610.012
    965225.104 9    752477.31446  23649673.586    23649671.6754   23649676.9464
      -793.440        -618.265
 -11045746.428 9  -8590929.62248  21626387.595    21626386.0704   21626390.6444
      2855.758        2225.266
 -13563653.502 9  -9997568.93047  22698469.654    22698468.3584   22698473.0204
      3909.163        3046.101
 96 10 16 16 25 29.9980000  0  9 17  1 28 26  6 23 22 21  3         -0.001372426
  -2714990.707 9  -2064992.70048  20175943.158    20175941.4864   20175945.5184
       514.415         400.843
  -5746913.366 9  -4445856.69645  24212088.064    24212086.4794   24212092.7264
      4595.518        3580.923
  -8010304.990 9  -6227957.082 9  20063747.113    20063745.718    20063749.306
      1448.855        1128.978
   2216452.339 9   1726787.52547  22573221.412    22573220.4314   22573223.9344
     -1401.168       -1091.819
   7384484.766 9   5619984.02647  22211889.558    22211888.3804   22211893.5614
     -2503.872       -1951.069
  -4524461.052 9  -3518378.44548  20191594.360    20191592.6554   20191596.7594
       773.741         602.915
    989160.314 9    771128.08846  23654228.377    23654226.4284   23654231.6814
      -802.124        -625.032
 -11131303.013 9  -8657597.08748  21610106.779    21610105.2114   21610109.7644
      2848.374        2219.512
 -13680803.989 9 -10088855.01647  22676176.622    22676175.3144   22676179.9764
      3900.926        3039.683
 96 10 16 16 25 59.9980000  0  9 17  1 28 26  6 23 22 21  3         -0.001389400
  -2730320.775 9  -2076938.21248  20173025.939    20173024.2694   20173028.2534
       507.356         395.342
  -5884821.699 8  -4553317.73145  24185844.833    24185843.4234   24185849.6944
      4598.223        3583.031
  -8053516.043 9  -6261628.038 9  20055524.330    20055522.934    20055526.530
      1431.732        1115.635
   2258664.752 9   1759680.28347  22581254.269    22581253.2674   22581256.7344
     -1413.119       -1101.132
   7459702.423 9   5678595.11947  22226203.171    22226201.9124   22226207.0954
     -2510.683       -1956.376
  -4547554.684 9  -3536373.48448  20187199.839    20187198.1184   20187202.1834
       765.770         596.704
   1013344.601 9    789972.95946  23658830.621    23658828.7094   23658833.8214
      -810.206        -631.329
 -11216668.841 9  -8724115.90748  21593862.223    21593860.6424   21593865.1714
      2842.641        2215.045
 -13797714.489 9 -10179954.09047  22653929.236    22653928.0174   22653932.6204
      3892.929        3033.451
 96 10 16 16 26 29.9980000  0  9 17  1 28 26  6 23 22 21  3         -0.001406411
  -2745435.579 9  -2088715.97948  20170149.710    20170148.0324   20170152.0054
       500.602         390.079
  -6022810.734 9  -4660841.66845  24159586.369    24159585.1814   24159591.2144
      4601.380        3585.491
  -8096215.526 9  -6294900.365 9  20047398.936    20047397.523    20047401.109
      1415.151        1102.715
   2301241.370 9   1792856.84047  22589356.346    22589355.3584   22589358.8764
     -1424.962       -1110.360
   7535120.901 9   5737362.70047  22240554.832    22240553.6124   22240558.8244
     -2516.950       -1961.260
  -4570418.514 9  -3554189.45648  20182848.989    20182847.2894   20182851.3464
       758.778         591.255
   1037764.311 9    809001.25946  23663477.630    23663475.6974   23663480.8364
      -817.454        -636.977
 -11301872.436 9  -8790508.31148  21577648.482    21577646.9234   21577651.4434
      2837.821        2211.289
 -13914386.029 9 -10270866.96847  22631727.447    22631726.2014   22631730.7454
      3885.577        3027.722
 96 10 16 16 26 59.9980000  0  9 17  1 28 26  6 23 22 21  3         -0.001423460
  -2760338.489 9  -2100328.64748  20167313.772    20167312.0964   20167316.1144
       493.662         384.672
  -6160879.808 9  -4768427.97945  24133312.624    24133311.4184   24133317.4624
      4603.996        3587.529
  -8138409.161 9  -6327778.525 9  20039369.784    20039368.353    20039371.913
      1398.423        1089.680
   2344177.988 9   1826313.91047  22597526.942    22597525.9254   22597529.4644
     -1436.821       -1119.601
   7610735.492 9   5796283.09647  22254943.810    22254942.6424   22254947.8464
     -2523.345       -1966.243
  -4593071.075 9  -3571840.80248  20178538.293    20178536.5994   20178540.6874
       751.945         585.931
   1062409.380 9    828205.15946  23668167.470    23668165.5444   23668170.7214
      -824.707        -642.629
 -11386929.524 9  -8856786.55548  21561462.593    21561461.0734   21561465.6144
      2833.280        2207.751
 -14030832.217 9 -10361604.24047  22609568.581    22609567.3294   22609571.7734
      3878.126        3021.916
 96 10 16 16 27 29.9980000  0  9 17  1 28 26  6 23 22 21  3         -0.001440555
  -2775038.425 9  -2111783.14948  20164516.470    20164514.8114   20164518.8624
       486.879         379.386
  -6299036.633 9  -4876082.65545  24107022.184    24107020.8884   24107027.0794
      4607.065        3589.921
  -8180107.132 9  -6360270.452 9  20031434.918    20031433.493    20031437.062
      1381.941        1076.837
   2387470.240 9   1860048.08547  22605765.180    22605764.1714   22605767.7174
     -1448.900       -1129.013
   7686534.630 9   5855347.29447  22269367.986    22269366.8384   22269371.9924
     -2529.402       -1970.963
  -4615513.896 9  -3589328.71448  20174267.519    20174265.8324   20174269.9594
       744.776         580.345
   1087261.513 9    847570.41446  23672896.568    23672894.7244   23672899.9614
      -831.308        -647.772
 -11471847.622 9  -8922956.48948  21545303.165    21545301.6504   21545306.2374
      2828.384        2203.936
 -14147058.148 9 -10452169.88747  22587451.500    22587450.2674   22587454.7084
      3870.864        3016.258
 96 10 16 16 27 59.9980000  0  9 17  1 28 26  6 23 22 21  3         -0.001457702
  -2789540.839 9  -2123083.73748  20161756.781    20161755.1024   20161759.1984
       480.551         374.455
  -6437286.696 9  -4983809.98245  24080714.045    24080712.7504   24080719.0384
      4610.032        3592.233
  -8221310.588 9  -6392377.042 9  20023594.112    20023592.705    20023596.303
      1365.446        1063.984
   2431120.584 9   1894061.30847  22614071.513    22614070.4924   22614074.1524
     -1460.422       -1137.991
   7762516.148 9   5914553.60946  22283826.877    22283825.7054   22283830.8304
     -2535.461       -1975.684
  -4637745.962 9  -3606652.39148  20170036.852    20170035.1894   20170039.3714
       737.809         574.916
   1112301.327 9    867081.92646  23677661.405    23677659.5764   23677664.8454
      -837.582        -652.661
 -11556612.739 9  -8989007.22048  21529172.843    21529171.3534   21529175.9604
      2822.886        2199.651
 -14263081.292 9 -10542577.52047  22565372.987    22565371.7704   22565376.1824
      3864.435        3011.248
 96 10 16 16 28 29.9980000  0  9 17  1 28 26  6 23 22 21  3         -0.001474911
  -2803867.364 9  -2134247.27048  20159030.542    20159028.8894   20159032.9714
       475.321         370.380
  -6575630.268 9  -5091610.17345  24054388.072    24054386.7364   24054393.1404
      4613.551        3594.975
  -8262020.277 9  -6424098.881 9  20015847.259    20015845.889    20015849.526
      1349.175        1051.305
   2475106.529 9   1928336.02947  22622441.720    22622440.7194   22622444.4064
     -1471.290       -1146.460
   7838675.478 9   5973898.47646  22298319.630    22298318.4114   22298323.5314
     -2541.114       -1980.089
  -4659764.060 9  -3623809.35648  20165846.953    20165845.2984   20165849.4684
       730.515         569.232
   1137528.217 9    886739.19446  23682461.926    23682460.0504   23682465.3224
      -843.579        -657.334
 -11641198.912 9  -9054918.51848  21513076.677    21513075.1854   21513079.7254
      2816.851        2194.949
 -14378902.665 9 -10632827.92347  22543332.813    22543331.5664   22543336.1184
      3857.602        3005.924
 96 10 16 16 28 59.9980000  0  9 17  1 28 26  6 23 22 21  3         -0.001492187
  -2818037.575 9  -2145289.00348  20156334.025    20156332.3864   20156336.4464
       470.074         366.291
  -6714073.743 8  -5199488.21345  24028043.068    24028041.6764   24028048.1414
      4616.741        3597.461
  -8302233.600 9  -6455433.945 9  20008194.942    20008193.571    20008197.207
      1332.414        1038.245
   2519422.328 9   1962867.78247  22630874.716    22630873.7534   22630877.4764
     -1482.464       -1155.167
   7915003.535 9   6033374.82247  22312844.419    22312843.2234   22312848.2954
     -2546.689       -1984.433
  -4681548.105 9  -3640783.93848  20161701.557    20161699.9264   20161704.1074
       722.380         562.894
   1162938.424 9    906539.31846  23687297.386    23687295.4874   23687300.6614
      -849.679        -662.087
 -11725597.865 9  -9120683.93348  21497016.112    21497014.6294   21497019.1214
      2810.439        2189.952
 -14494511.105 9 -10722912.42047  22521333.146    22521331.8964   22521336.5364
      3850.276        3000.215
 96 10 16 16 29 29.9980000  0  9 17  1 28 26  6 23 22 21  3         -0.001509538
  -2832065.089 9  -2156219.53348  20153664.663    20153663.0234   20153667.0694
       464.881         362.245
  -6852619.343 8  -5307445.81345  24001678.693    24001677.0844   24001683.7134
      4619.527        3599.631
  -8341949.673 9  -6486381.537 9  20000637.198    20000635.841    20000639.525
      1315.162        1024.802
   2564062.226 9   1997652.08747  22639369.376    22639368.4304   22639372.2014
     -1493.694       -1163.917
   7991484.362 9   6092970.21047  22327398.380    22327397.1214   22327402.1914
     -2552.193       -1988.722
  -4703087.262 9  -3657567.69748  20157602.817    20157601.1814   20157605.3534
       713.444         555.930
   1188528.062 8    926479.26546  23692166.893    23692164.9484   23692170.2454
      -856.469        -667.378
 -11809803.899 9  -9186299.01948  21480992.220    21480990.7434   21480995.2394
      2803.308        2184.396
 -14609900.984 9 -10812826.59047  22499375.074    22499373.9054   22499378.5954
      3842.226        2993.942
 96 10 16 16 29 59.9980000  0  9 17  1 28 26  6 23 22 21  3         -0.001526964
  -2845953.973 9  -2167042.04948  20151021.661    20151020.0474   20151024.0884
       461.106         359.303
  -6991260.775 8  -5415478.08745  23975296.059    23975294.3894   23975301.1654
      4623.554        3602.769
  -8381166.199 9  -6516939.884 9  19993174.479    19993173.155    19993176.865
      1299.523        1012.615
   2609023.390 9   2032686.71147  22647925.143    22647924.2424   22647928.0464
     -1503.428       -1171.502
   8068110.043 9   6152678.47747  22341979.892    22341978.6814   22341983.6664
     -2555.889       -1991.602
  -4724375.346 9  -3674155.81548  20153551.804    20153550.2004   20153554.3934
       705.921         550.068
   1214305.951 9    946565.87846  23697072.106    23697070.2514   23697075.6594
      -862.007        -671.694
 -11893819.708 9  -9251765.87848  21465004.515    21465003.0474   21465007.5774
      2798.104        2180.341
 -14725063.769 9 -10902563.81647  22477460.419    22477459.2174   22477463.8284
      3835.376        2988.605
 96 10 16 16 30 29.9980000  0  9 17  1 28 26  6 23 22 21  3         -0.001544459
  -2859685.862 9  -2177742.22648  20148408.600    20148406.9734   20148411.0384
       454.572         354.212
  -7129998.814 8  -5523585.62845  23948895.089    23948893.3664   23948900.0484
      4626.024        3604.694
  -8419882.547 9  -6547108.471 9  19985807.011    19985805.698    19985809.407
      1281.941         998.915
   2654317.911 9   2067981.11447  22656544.443    22656543.5524   22656547.3544
     -1515.860       -1181.190
   8144870.221 9   6212491.54947  22356586.982    22356585.7834   22356590.7394
     -2561.011       -1995.593
  -4745402.345 9  -3690540.49048  20149550.517    20149548.8854   20149553.0944
       696.336         542.599
   1240276.719 9    966802.78646  23702014.136    23702012.3364   23702017.8534
      -869.032        -677.168
 -11977662.873 9  -9317098.20248  21449049.655    21449048.2074   21449052.7814
      2791.991        2175.577
 -14839983.958 9 -10992112.00047  22455592.003    22455590.7904   22455595.3064
      3826.611        2981.775
 96 10 16 16 30 59.9980000  0  9 17  1 28 26  6 23 22 21  3         -0.001562028
  -2873233.246 9  -2188298.64148  20145830.651    20145829.0124   20145833.0884
       448.048         349.128
  -7268827.471 8  -5631763.78645  23922476.864    23922475.3764   23922481.7694
      4628.601        3606.702
  -8458098.991 9  -6576887.530 9  19978534.689    19978533.388    19978537.070
      1265.403         986.028
   2699956.223 9   2103543.39647  22665229.215    22665228.2754   22665232.0094
     -1527.009       -1189.877
   8221753.877 9   6272400.83446  22371217.482    22371216.3364   22371221.2684
     -2565.110       -1998.787
  -4766178.206 9  -3706729.48048  20145596.996    20145595.3684   20145599.5804
       688.491         536.486
   1266433.967 9    987185.02246  23706991.732    23706989.9584   23706995.5184
      -875.268        -682.027
 -12061356.698 9  -9382314.16548  21433123.264    21433121.7904   21433126.3564
      2787.094        2171.762
 -14954690.025 9 -11081493.33847  22433764.289    22433763.0924   22433767.4454
      3819.813        2976.478
 96 10 16 16 31 29.9980000  0  9 17  1 28 26  6 23 22 21  3         -0.001579654
  -2886569.410 9  -2198690.46548  20143292.834    20143291.2144   20143295.2934
       440.654         343.367
  -7407719.539 8  -5739991.35045  23896046.416    23896044.9984   23896051.3864
      4630.682        3608.324
  -8495812.908 9  -6606275.015 9  19971357.938    19971356.628    19971360.391
      1248.585         972.923
   2745927.924 9   2139365.46547  22673977.400    22673976.4614   22673980.1664
     -1538.110       -1198.527
   8298779.046 9   6332420.37946  22385874.923    22385873.8114   22385878.7354
     -2570.256       -2002.797
  -4786725.185 9  -3722740.11748  20141687.032    20141685.4164   20141689.5984
       681.173         530.784
   1292793.884 9   1007725.18646  23712008.077    23712006.1944   23712011.6244
      -882.249        -687.467
 -12144897.481 9  -9447410.87548  21417225.962    21417224.5144   21417229.0484
      2782.003        2167.794
 -15069170.593 9 -11170698.96547  22411979.476    22411978.2334   22411982.5074
      3811.932        2970.337
 96 10 16 16 31 59.9980000  0  9 17  1 28 26  6 23 22 21  3         -0.001597323
  -2899667.809 9  -2208897.02548  20140800.247    20140798.6574   20140802.7794
       432.882         337.311
  -7546674.821 8  -5848268.14245  23869604.176    23869602.7824   23869609.2264
      4633.176        3610.267
  -8533022.753 9  -6635269.714 9  19964277.085    19964275.791    19964279.622
      1232.266         960.207
   2792246.310 9   2175457.67947  22682791.529    22682790.5784   22682794.2994
     -1549.460       -1207.371
   8375962.287 9   6392563.10746  22400562.406    22400561.2934   22400566.2534
     -2575.158       -2006.617
  -4807062.889 9  -3738587.68348  20137816.904    20137815.2874   20137819.4724
       674.934         525.923
   1319356.366 9   1028423.18646  23717062.757    23717060.8664   23717066.2174
      -888.292        -692.176
 -12228287.613 9  -9512390.19448  21401357.384    21401355.9384   21401360.4114
      2777.509        2164.293
 -15183411.373 9 -11259717.73947  22390240.127    22390238.9394   22390243.1934
      3804.231        2964.336
 96 10 16 16 32 29.9980000  0  9 17  1 28 26  6 23 22 21  3         -0.001615025
  -2912526.518 9  -2218916.80748  20138353.301    20138351.7224   20138355.8424
       424.905         331.095
  -7685688.651 8  -5956590.58645  23843150.848    23843149.3924   23843155.6724
      4634.592        3611.370
  -8569728.777 9  -6663871.820 9  19957292.152    19957290.885    19957294.693
      1215.104         946.834
   2838914.342 9   2211822.35147  22691672.136    22691671.2114   22691675.0234
     -1561.318       -1216.611
   8453314.560 9   6452837.54446  22415282.020    22415280.9174   22415285.9854
     -2581.312       -2011.412
  -4827212.763 9  -3754288.88748  20133982.502    20133980.8964   20133985.0574
       668.748         521.102
   1346108.764 9   1049269.16746  23722153.582    23722151.6284   23722157.1584
      -894.718        -697.183
 -12311526.253 9  -9577251.46748  21385517.580    21385516.1674   21385520.6054
      2771.854        2159.886
 -15297405.834 9 -11348544.57847  22368547.596    22368546.4694   22368550.7754
      3795.692        2957.682
 96 10 16 16 32 59.9980000  0  9 17  1 28 26  6 23 22 21  3         -0.001632748
  -2925155.243 9  -2228757.37548  20135950.180    20135948.6054   20135952.7164
       417.445         325.282
  -7824731.861 8  -6064935.90045  23816691.568    23816690.2694   23816696.5334
      4635.216        3611.857
  -8605919.371 9  -6692072.286 9  19950405.329    19950404.075    19950407.875
      1197.845         933.386
   2885927.121 9   2248455.66947  22700618.418    22700617.4614   22700621.3054
     -1572.555       -1225.368
   8530858.194 9   6513261.10446  22430038.014    22430036.9854   22430042.1424
     -2588.060       -2016.670
  -4847179.856 9  -3769847.66348  20130182.854    20130181.2584   20130185.4514
       662.580         516.296
   1373053.040 9   1070264.66746  23727281.011    23727279.0594   23727284.4934
      -901.267        -702.286
 -12394578.844 9  -9641967.75948  21369713.190    21369711.7834   21369716.2344
      2765.073        2154.602
 -15411133.073 9 -11437163.19547  22346905.951    22346904.8424   22346909.1554
      3785.982        2950.116
 96 10 16 16 33 29.9980000  0  9 17  1 28 26  6 23 22 21  3         -0.001650482
  -2937563.419 9  -2238426.09448  20133589.036    20133587.4374   20133591.5604
       409.794         319.320
  -7963801.870 8  -6173302.11645  23790227.384    23790226.0514   23790232.3884
      4636.190        3612.616
  -8641586.869 9  -6719865.151 9  19943618.066    19943616.808    19943620.597
      1179.970         919.457
   2933281.183 9   2285354.90947  22709629.623    22709628.6654   22709632.5424
     -1584.519       -1234.690
   8608604.793 9   6573842.80846  22444832.703    22444831.6804   22444836.9164
     -2594.756       -2021.888
  -4866949.497 9  -3785252.58048  20126420.824    20126419.2524   20126423.4554
       655.127         510.489
   1400190.954 9   1091411.06446  23732445.299    23732443.3364   23732448.8354
      -907.738        -707.328
 -12477419.743 9  -9706519.10148  21353949.103    21353947.6924   21353952.1364
      2757.587        2148.769
 -15524548.254 9 -11525538.64947  22325323.726    22325322.6384   22325326.8854
      3775.299        2941.791
 96 10 16 16 33 59.9980000  0  9 17  1 28 26  6 23 22 21  3         -0.001668249
  -2949759.231 9  -2247929.33448  20131268.225    20131266.6574   20131270.8154
       402.804         313.873
  -8102904.031 8  -6281693.40245  23763757.141    23763755.7554   23763762.1124
      4636.687        3613.003
  -8676725.867 9  -6747246.198 9  19936931.292    19936930.080    19936933.891
      1161.998         905.453
   2980987.670 9   2322528.76947  22718707.897    22718706.9814   22718710.8014
     -1596.281       -1243.855
   8686528.156 9   6634562.24646  22459661.026    22459660.0184   22459665.3364
     -2600.606       -2026.446
  -4886482.775 9  -3800473.31448  20122703.789    20122702.2184   20122706.4224
       646.398         503.687
   1427503.318 9   1112693.41046  23737642.812    23737640.8304   23737646.2804
      -913.688        -711.965
 -12560041.155 9  -9770899.40948  21338226.797    21338225.3684   21338229.8474
      2749.983        2142.844
 -15637669.005 9 -11613684.67347  22303797.546    22303796.4644   22303800.7154
      3765.492        2934.150
 96 10 16 16 34 29.9980000  0  9 17  1 28 26  6 23 22 21  3         -0.001686074
  -2961774.113 9  -2257291.59048  20128981.836    20128980.2804   20128984.4784
       397.529         309.763
  -8242026.812 9  -6390100.75446  23737283.040    23737281.5784   23737287.8944
      4637.639        3613.745
  -8711338.034 9  -6774216.724 9  19930344.822    19930343.613    19930347.405
      1144.920         892.145
   3029016.578 9   2359953.85747  22727847.470    22727846.6014   22727850.3854
     -1606.168       -1251.559
   8764602.718 9   6695399.49846  22474518.169    22474517.1854   22474522.4884
     -2604.768       -2029.689
  -4905756.845 9  -3815492.07848  20119036.072    20119034.5154   20119038.6854
       637.855         497.030
   1454981.110 9   1134104.63146  23742871.675    23742869.7224   23742875.1754
      -918.841        -715.980
 -12642448.181 9  -9835112.66348  21322545.245    21322543.8084   21322548.3854
      2743.289        2137.628
 -15750516.641 9 -11701617.89147  22282323.391    22282322.2604   22282326.5514
      3757.093        2927.605
 96 10 16 16 34 59.9980000  0  9 17  1 28 26  6 23 22 21  3         -0.001703972
  -2973615.688 9  -2266518.80048  20126728.512    20126726.9624   20126731.1034
       391.609         305.150
  -8381171.933 9  -6498525.54546  23710804.792    23710803.3664   23710809.4874
      4638.484        3614.403
  -8745426.811 9  -6800779.413 9  19923858.000    19923856.771    19923860.534
      1127.385         878.482
   3077349.413 9   2397615.78447  22737044.955    22737044.1284   22737047.8214
     -1616.367       -1259.507
   8842801.716 9   6756333.72446  22489398.935    22489397.9584   22489403.3074
     -2608.789       -2032.822
  -4924750.618 9  -3830292.42048  20115421.722    20115420.1544   20115424.3064
       628.148         489.466
   1482628.745 9   1155648.20646  23748132.752    23748130.8314   23748136.4304
      -924.777        -720.605
 -12724648.125 9  -9899164.55448  21306903.103    21306901.6914   21306906.2724
      2736.524        2132.356
 -15863102.020 9 -11789346.73947  22260899.065    22260897.9624   22260902.2684
      3748.384        2920.819
 96 10 16 16 35 29.9980000  0  9 17  1 28 26  6 23 22 21  3         -0.001721949
  -2985276.883 9  -2275605.45648  20124509.458    20124507.9384   20124512.0604
       386.180         300.919
  -8520347.008 9  -6606973.65146  23684320.811    23684319.4444   23684325.3914
      4640.207        3615.746
  -8778990.737 9  -6826933.130 9  19917471.049    19917469.812    19917473.546
      1110.556         865.368
   3125994.638 9   2435521.12347  22746301.912    22746301.0474   22746304.6414
     -1626.367       -1267.299
   8921113.710 9   6817355.97946  22504301.227    22504300.1374   22504305.6514
     -2611.615       -2035.025
  -4943450.565 9  -3844863.81148  20111863.242    20111861.6644   20111865.8164
       618.939         482.290
   1510456.808 9   1177332.36746  23753428.289    23753426.4634   23753431.9824
      -930.071        -724.731
 -12806660.397 9  -9963070.21348  21291296.657    21291295.2694   21291299.8404
      2731.306        2128.290
 -15975438.248 9 -11876881.44447  22239522.132    22239521.0844   22239525.4414
      3741.070        2915.119
 96 10 16 16 35 59.9980000  0  9 17  1 28 26  6 23 22 21  3         -0.001740000
  -2996757.427 9  -2284551.34548  20122324.785    20122323.2734   20122327.3604
       379.554         295.756
  -8659544.852 9  -6715439.53046  23657832.417    23657831.0144   23657836.9614
      4640.146        3615.698
  -8812028.893 9  -6852677.157 9  19911184.140    19911182.880    19911186.589
      1092.398         851.219
   3174959.257 9   2473675.34847  22755619.624    22755618.7874   22755622.2524
     -1637.419       -1275.911
   8999540.170 9   6878467.44146  22519225.278    22519224.2024   22519229.7664
     -2616.538       -2038.861
  -4961865.158 9  -3859212.84648  20108359.075    20108357.4844   20108361.6504
       609.371         474.835
   1538468.701 9   1199159.78146  23758758.925    23758757.0864   23758762.5554
      -937.173        -730.265
 -12888500.890 9 -10026842.01648  21275722.936    21275721.5684   21275726.0934
      2725.121        2123.471
 -16087527.145 9 -11964223.43547  22218192.295    22218191.2004   22218195.6294
      3731.711        2907.827
 96 10 16 16 36 29.9980000  0  9 17  1 28 26  6 23 22 21  3         -0.001758095
  -3008039.490 9  -2293342.56948  20120177.868    20120176.3594   20120180.4654
       372.100         289.948
  -8798752.577 9  -6823913.12646  23631342.109    23631340.7294   23631346.4854
      4640.150        3615.701
  -8844529.402 9  -6878002.237 9  19904999.541    19904998.263    19905001.963
      1074.042         836.916
   3224247.836 9   2512082.00847  22764999.008    22764998.1454   22765001.6514
     -1648.851       -1284.819
   9078113.431 9   6939693.29646  22534177.279    22534176.1114   22534181.8414
     -2622.028       -2043.139
  -4980019.151 9  -3873358.81548  20104904.457    20104902.8904   20104907.0384
       600.765         468.129
   1566697.105 9   1221155.91146  23764130.698    23764128.8184   23764134.2984
      -944.969        -736.339
 -12970156.716 9 -10090469.92448  21260184.390    21260182.9964   21260187.4894
      2718.271        2118.133
 -16199333.070 9 -12051344.92147  22196916.262    22196915.1954   22196919.6264
      3721.573        2899.927
 96 10 16 16 36 59.9980000  0  9 17  1 28 26  6 23 22 21  3         -0.001776216
  -3019093.268 9  -2301955.91148  20118074.408    20118072.8884   20118077.0494
       364.550         284.065
  -8937976.731 9  -6932399.50846  23604848.640    23604847.3724   23604853.0144
      4641.269        3616.573
  -8876488.194 9  -6902905.204 9  19898918.016    19898916.745    19898920.437
      1056.281         823.076
   3273878.011 9   2550754.84147  22774443.283    22774442.4614   22774446.0634
     -1660.045       -1293.542
   9156846.768 9   7001043.87146  22549159.656    22549158.6024   22549164.4064
     -2627.263       -2047.218
  -4997935.206 9  -3887319.37748  20101495.151    20101493.5684   20101497.7144
       593.433         462.415
   1595142.420 9   1243321.04646  23769543.523    23769541.8104   23769547.3004
      -951.443        -741.384
 -13051613.559 9 -10153942.77548  21244683.647    21244682.2804   21244686.8204
      2711.814        2113.102
 -16310831.242 9 -12138226.58247  22175698.867    22175697.7814   22175702.1894
      3711.528        2892.100
 96 10 16 16 37 29.9980000  0  9 17  1 28 26  6 23 22 21  3         -0.001794368
  -3029906.026 9  -2310381.44848  20116016.845    20116015.3004   20116019.4754
       356.596         277.867
  -9077230.299 9  -7040908.81446  23578349.655    23578348.4044   23578353.8844
      4642.535        3617.560
  -8907906.989 9  -6927387.390 9  19892939.265    19892937.982    19892941.676
      1038.574         809.278
   3323845.012 9   2589690.13247  22783951.652    22783950.8394   22783954.5774
     -1670.738       -1301.874
   9235749.900 9   7062526.76146  22564174.392    22564173.3974   22564179.3084
     -2632.656       -2051.420
  -5015626.492 9  -3901104.79648  20098128.639    20098127.0544   20098131.1574
       586.295         456.853
   1623775.201 9   1265632.26846  23774992.113    23774990.4284   23774996.0194
      -957.079        -745.776
 -13132863.269 9 -10217254.22548  21229222.323    21229220.9624   21229225.5324
      2704.943        2107.748
 -16422026.562 9 -12224872.27047  22154539.140    22154538.0324   22154542.4014
      3701.690        2884.434
 96 10 16 16 37 59.9980000  0 10 17  1  9 28 26  6 23 22 21  3      -0.001812557
  -3040475.772 9  -2318617.62448  20114005.490    20114003.9584   20114008.1614
       348.158         271.292
  -9216517.543 9  -7149444.35746  23551844.151    23551842.9594   23551848.3704
      4643.448        3618.271
  -3332043.05318  -2352256.01755  24538887.908    24538886.3815   24538892.3815
      3148.285        2453.209
  -8938790.237 9  -6951452.269 9  19887062.389    19887061.112    19887064.782
      1020.531         795.219
   3374127.582 9   2628871.33147  22793520.106    22793519.3334   22793523.0884
     -1681.175       -1310.006
   9314822.186 9   7124141.45746  22579221.435    22579220.3984   22579226.3664
     -2638.539       -2056.004
  -5033108.049 9  -3914726.78648  20094802.036    20094800.4504   20094804.5564
       579.298         451.401
   1652568.546 9   1288068.60146  23780471.335    23780469.7244   23780475.2604
      -962.352        -749.885
 -13213894.151 9 -10280395.15948  21213802.693    21213801.3124   21213805.8954
      2697.320        2101.808
 -16532923.413 9 -12311285.38147  22133436.136    22133435.0184   22133439.4194
      3691.742        2876.682
 96 10 16 16 38 29.9980000  0 10 17  1  9 28 26  6 23 22 21  3      -0.001830800
  -3050798.705 9  -2326661.47948  20112041.103    20112039.5944   20112043.8054
       340.378         265.230
  -9355849.535 9  -7258014.78246  23525330.138    23525329.0034   23525334.3694
      4645.529        3619.893
  -3426483.524 8  -2425845.97945  24520916.279    24520914.8284   24520920.8724
      3148.001        2452.988
  -8969145.769 9  -6975105.942 9  19881285.939    19881284.650    19881288.340
      1003.455         781.913
   3424710.166 9   2668286.29047  22803145.751    22803144.9034   22803148.6824
     -1690.754       -1317.471
   9394047.775 9   7185875.59346  22594297.661    22594296.5724   22594302.5824
     -2642.919       -2059.417
  -5050386.666 9  -3928190.64648  20091514.046    20091512.4724   20091516.5704
       572.737         446.288
   1681498.317 9   1310611.24546  23785976.633    23785974.9424   23785980.4564
      -965.913        -752.659
 -13294705.783 9 -10343365.25248  21198424.758    21198423.3894   21198427.9634
      2690.595        2096.568
 -16643544.959 9 -12397483.97947  22112385.498    22112384.4234   22112388.8154
      3683.247        2870.062
 96 10 16 16 38 59.9980000  0 10 17  1  9 28 26  6 23 22 21  3      -0.001849111
  -3060879.652 9  -2334516.77248  20110122.785    20110121.2874   20110125.4924
       332.654         259.211
  -9495230.816 9  -7366623.59146  23498806.659    23498805.5104   23498811.0044
      4647.168        3621.170
  -3520904.963 8  -2499421.12145  24502948.327    24502947.0444   24502952.8074
      3147.358        2452.487
  -8998977.151 9  -6998351.180 9  19875609.251    19875607.978    19875611.670
       986.045         768.347
   3475590.939 9   2707933.61247  22812828.049    22812827.2044   22812831.0194
     -1700.513       -1325.075
   9473422.660 9   7247726.08246  22609402.283    22609401.2054   22609407.2234
     -2647.905       -2063.303
  -5067446.491 9  -3941484.01248  20088267.676    20088266.1104   20088270.1944
       565.324         440.512
   1710535.958 9   1333237.93446  23791502.348    23791500.6444   23791506.1624
      -969.311        -755.307
 -13375320.043 9 -10406181.54448  21183084.332    21183082.9674   21183087.5564
      2684.468        2091.793
 -16753902.816 9 -12483477.09647  22091385.138    22091384.0244   22091388.4854
      3674.786        2863.470
 96 10 16 16 39 29.9980000  0 10 17  1  9 28 26  6 23 22 21  3      -0.001867494
  -3070742.013 9  -2342201.73748  20108246.013    20108244.5474   20108248.7644
       325.428         253.580
  -9634662.462 9  -7475271.64646  23472273.715    23472272.5484   23472277.9484
      4648.561        3622.255
  -3615306.305 8  -2572980.59045  24484984.285    24484982.9764   24484989.1344
      3146.518        2451.832
  -9028291.052 9  -7021193.189 9  19870031.003    19870029.756    19870033.428
       968.700         754.831
   3526765.300 9   2747809.70947  22822566.226    22822565.3524   22822569.1894
     -1710.578       -1332.918
   9552937.983 9   7309685.98646  22624533.649    22624532.6174   22624538.6244
     -2652.435       -2066.832
  -5084289.305 9  -3954608.28048  20085062.565    20085061.0444   20085065.1294
       558.073         434.862
   1739684.626 9   1355951.13146  23797049.061    23797047.4374   23797052.9954
      -973.562        -758.620
 -13455766.524 9 -10468867.10548  21167775.832    21167774.4814   21167779.1044
      2679.212        2087.698
 -16864012.160 9 -12569276.57647  22070432.035    22070430.9314   22070435.4464
      3666.034        2856.650
 96 10 16 16 39 59.9980000  0 10 17  1  9 28 26  6 23 22 21  3      -0.001885937
  -3080403.307 9  -2349730.02848  20106407.548    20106406.0744   20106410.2834
       318.727         248.359
  -9774133.316 9  -7583950.25746  23445733.325    23445732.0884   23445737.6164
      4649.389        3622.901
  -3709685.053 8  -2646522.43845  24467024.506    24467023.1614   24467029.3124
      3145.565        2451.090
  -9057093.576 9  -7043636.723 9  19864550.045    19864548.812    19864552.477
       951.507         741.434
   3578238.520 9   2787918.68147  22832361.254    22832360.3564   22832364.2354
     -1720.894       -1340.956
   9632572.848 9   7371739.06146  22639687.731    22639686.7854   22639692.7254
     -2656.466       -2069.974
  -5100927.241 9  -3967572.90048  20081896.499    20081894.9494   20081899.0394
       551.053         429.392
   1768965.954 9   1378767.71846  23802621.145    23802619.4834   23802625.1434
      -978.586        -762.534
 -13536069.216 9 -10531440.61548  21152494.715    21152493.3544   21152498.0364
      2674.407        2083.954
 -16973857.659 9 -12654870.45547  22049529.123    22049528.0294   22049532.5694
      3656.938        2849.562
 96 10 16 16 40 29.9980000  0 10 17  1  9 28 26  6 23 22 21  3      -0.001904436
  -3089877.595 9  -2357112.59948  20104604.641    20104603.1664   20104607.4034
       312.869         243.794
  -9913627.439 9  -7692647.00046  23419188.525    23419187.1944   23419192.8824
      4649.973        3623.356
  -3804041.970 8  -2720047.24845  24449068.869    24449067.6414   24449074.0314
      3144.595        2450.334
  -9085388.074 9  -7065684.389 9  19859165.780    19859164.568    19859168.230
       934.587         728.250
   3630012.399 9   2828261.92947  22842213.453    22842212.5374   22842216.5084
     -1730.815       -1348.687
   9712312.599 9   7433873.84946  22654861.788    22654860.8034   22654866.7424
     -2659.787       -2072.561
  -5117352.192 9  -3980371.56448  20078770.905    20078769.3794   20078773.4664
       543.817         423.754
   1798397.144 9   1401701.07346  23808221.759    23808220.1304   23808225.7444
      -983.670        -766.496
 -13616242.583 9 -10593913.35948  21137238.170    21137236.8364   21137241.5584
      2670.301        2080.754
 -17083432.344 9 -12740253.31947  22028677.785    22028676.6364   22028681.2154
      3647.657        2842.330
 96 10 16 16 40 59.9980000  0 10 17  1  9 28 26  6 23 22 21  3      -0.001922989
  -3099190.138 9  -2364369.13248  20102832.547    20102831.0894   20102835.3174
       307.561         239.658
 -10053137.785 9  -7801356.37946  23392640.633    23392639.3584   23392644.9934
      4650.237        3623.561
  -3898365.237 8  -2793545.79645  24431119.805    24431118.6124   24431124.9174
      3143.232        2449.272
  -9113177.994 9  -7087338.876 9  19853877.568    19853876.353    19853880.023
       917.639         715.043
   3682078.353 9   2868832.77747  22852121.184    22852120.3674   22852124.3874
     -1740.569       -1356.288
   9792140.417 9   7496077.26646  22670052.663    22670051.6074   22670057.6204
     -2662.417       -2074.611
  -5133568.335 9  -3993007.51348  20075685.093    20075683.5534   20075687.6474
       536.973         418.421
   1827984.026 9   1424755.73546  23813851.941    23813850.3544   23813855.9434
      -989.134        -770.754
 -13696294.830 9 -10656291.72448  21122004.767    21122003.4224   21122008.0964
      2665.866        2077.298
 -17192722.082 9 -12825414.14847  22007880.642    22007879.4964   22007884.0114
      3637.867        2834.702
 96 10 16 16 41 29.9980000  0 10 17  1  9 28 26  6 23 22 21  3      -0.001941587
  -3108337.684 9  -2371497.10148  20101091.888    20101090.4254   20101094.6094
       301.482         234.921
 -10192640.913 9  -7910060.10046  23366094.002    23366092.7614   23366098.5594
      4649.307        3622.837
  -3992643.450 8  -2867009.25845  24413179.307    24413178.0454   24413184.2034
      3141.383        2447.831
  -9140454.423 9  -7108593.244 9  19848687.034    19848685.828    19848689.513
       900.079         701.360
   3734437.096 9   2909631.76547  22862084.807    22862083.9804   22862088.0244
     -1750.554       -1364.068
   9872043.442 9   7558339.28946  22685257.787    22685256.8264   22685262.7704
     -2665.111       -2076.710
  -5149579.230 9  -4005483.54048  20072638.330    20072636.7944   20072640.8494
       529.554         412.639
   1857734.768 9   1447938.09946  23819513.459    23819511.8334   23819517.2804
      -994.843        -775.202
 -13776193.003 9 -10718550.03448  21106800.647    21106799.3204   21106803.9574
      2659.848        2072.609
 -17301707.466 9 -12910337.81447  21987141.416    21987140.2584   21987144.7934
      3627.055        2826.277
 96 10 16 16 41 59.9980000  0 10 17  1  9 28 26  6 23 22 21  3      -0.001960229
  -3117301.809 9  -2378482.13748  20099386.089    20099384.6224   20099388.7764
       295.649         230.376
 -10332110.500 9  -8018737.68046  23339553.788    23339552.5714   23339558.3784
      4648.460        3622.177
  -4086868.919 8  -2940431.64445  24395248.708    24395247.5144   24395253.3944
      3140.112        2446.841
  -9167204.961 9  -7129437.824 9  19843596.605    19843595.399    19843599.029
       882.950         688.013
   3787081.584 9   2950653.41147  22872102.874    22872102.0124   22872105.9564
     -1759.457       -1371.005
   9952027.044 9   7620664.08446  22700478.238    22700477.2804   22700483.2114
     -2667.596       -2078.646
  -5165366.157 9  -4017785.03948  20069634.149    20069632.6074   20069636.6954
       522.511         407.151
   1887645.661 9   1471245.23346  23825205.433    23825203.6884   23825209.1824
      -999.466        -778.805
 -13855897.625 9 -10780657.52048  21091633.356    21091632.0054   21091636.7074
      2653.496        2067.659
 -17410368.105 9 -12995008.42947  21966463.952    21966462.8274   21966467.3534
      3616.752        2818.248
 96 10 16 16 42 29.9980000  0 10 17  1  9 28 26  6 23 22 21  3      -0.001978917
  -3126069.343 9  -2385313.99048  20097717.673    20097716.2114   20097720.3594
       288.988         225.185
 -10471549.694 9  -8127391.59346  23313019.497    23313018.2054   23313024.1054
      4647.886        3621.729
  -4181043.334 8  -3013814.25245  24377327.773    24377326.3974   24377332.5624
      3138.462        2445.555
  -9193426.242 9  -7149869.997 9  19838606.866    19838605.664    19838609.276
       865.418         674.352
   3840007.331 9   2991894.23047  22882174.427    22882173.5574   22882177.3994
     -1768.705       -1378.212
  10032104.793 9   7683062.25846  22715716.549    22715715.6434   22715721.5754
     -2670.662       -2081.035
  -5180930.270 9  -4029912.92148  20066672.355    20066670.8524   20066674.9034
       515.466         401.662
   1917696.985 9   1494661.78346  23830924.102    23830922.3224   23830927.8804
     -1003.622        -782.043
 -13935395.669 9 -10842604.03448  21076505.368    21076504.0114   21076508.7844
      2646.697        2062.361
 -17518702.187 9 -13079424.58747  21945848.607    21945847.5074   21945852.0304
      3605.781        2809.699
 96 10 16 16 42 59.9980000  0 10 17  1  9 28 26  6 23 22 21  3      -0.001997648
  -3134617.540 9  -2391974.93048  20096091.040    20096089.5704   20096093.7504
       280.915         218.895
 -10610969.827 9  -8236030.62246  23286488.815    23286487.4244   23286493.3654
      4646.979        3621.023
  -4275168.993 8  -3087158.90345  24359416.160    24359414.9844   24359420.9724
      3136.857        2444.304
  -9219114.806 9  -7169887.070 9  19833718.487    19833717.291    19833720.938
       847.320         660.249
   3893221.766 9   3033359.99947  22892300.836    22892299.9764   22892303.7214
     -1778.673       -1385.979
  10112282.129 9   7745538.03946  22730973.783    22730972.9324   22730978.8004
     -2674.322       -2083.887
  -5196279.025 9  -4041872.99348  20063751.652    20063750.1294   20063754.1614
       508.058         395.889
   1947877.221 9   1518178.81646  23836667.319    23836665.5354   23836671.1304
     -1008.190        -785.603
 -14014678.057 9 -10904382.50748  21061418.421    21061417.0924   21061421.8844
      2639.072        2056.420
 -17626696.885 9 -13163576.29247  21925297.947    21925296.8254   21925301.3014
      3594.151        2800.637
 96 10 16 16 43 29.9980000  0 10 17  1  9 28 26  6 23 22 21  3      -0.002016421
  -3142916.004 9  -2398441.27248  20094511.915    20094510.4614   20094514.6884
       272.682         212.479
 -10750372.940 9  -8344656.41146  23259961.260    23259959.9854   23259965.9724
      4647.020        3621.055
  -4369258.281 8  -3160475.21945  24341511.619    24341510.4744   24341516.3804
      3136.125        2443.734
  -9244268.047 9  -7189487.007 9  19828932.016    19828930.820    19828934.475
       829.922         646.692
   3946726.243 9   3075051.78347  22902482.399    22902481.5974   22902485.3164
     -1787.910       -1393.177
  10192570.067 9   7808099.98646  22746252.144    22746251.2844   22746257.1914
     -2677.797       -2086.595
  -5211412.629 9  -4053665.41448  20060871.888    20060870.3354   20060874.3414
       501.197         390.543
   1978182.832 9   1541793.52546  23842434.332    23842432.5364   23842438.1514
     -1012.039        -788.602
 -14093747.885 9 -10965995.34948  21046371.972    21046370.6304   21046375.3834
      2632.716        2051.467
 -17734357.803 9 -13247467.90647  21904810.753    21904809.6784   21904814.1194
      3583.596        2792.412
 96 10 16 16 43 59.9970000  0 10 17  1  9 28 26  6 23 22 21  3      -0.002035239
  -3150961.844 9  -2404710.76348  20092980.886    20092979.4394   20092983.6774
       264.514         206.115
 -10889785.185 9  -8453289.30046  23233431.998    23233430.7794   23233436.8434
      4648.078        3621.879
  -4463311.756 9  -3233763.62145  24323613.859    24323612.7234   24323618.5574
      3135.029        2442.880
  -9268891.475 9  -7208674.103 9  19824246.362    19824245.179    19824248.779
       812.415         633.051
   4000515.637 9   3116965.56547  22912718.104    22912717.3694   22912721.0444
     -1797.516       -1400.662
  10272974.684 9   7870752.85046  22761552.744    22761551.9044   22761557.7814
     -2681.917       -2089.805
  -5226337.624 9  -4065295.28248  20058031.788    20058030.2454   20058034.2174
       494.723         385.498
   2008611.874 9   1565504.41746  23848224.784    23848222.9914   23848228.6444
     -1015.912        -791.620
 -14172631.003 9 -11027462.70548  21031361.050    21031359.6794   21031364.3824
      2627.093        2047.085
 -17841689.238 9 -13331102.78147  21884386.229    21884385.1884   21884389.6734
      3572.850        2784.039
 96 10 16 16 44 29.9970000  0 10 17  1  9 28 26  6 23 22 21  3      -0.002054106
  -3158768.794 9  -2410794.10648  20091495.290    20091493.8524   20091498.0714
       256.422         199.809
 -11029239.323 9  -8561954.84346  23206894.769    23206893.5574   23206899.7064
      4649.142        3622.708
  -4557331.827 8  -3307025.95045  24305722.376    24305721.2044   24305727.0924
      3133.190        2441.447
  -9292994.166 9  -7227455.431 9  19819659.759    19819658.580    19819662.183
       794.794         619.320
   4054594.066 9   3159104.58147  22923008.910    22923008.1734   22923011.8284
     -1807.245       -1408.243
  10353496.997 9   7933497.41946  22776875.659    22776874.7584   22776880.7224
     -2685.744       -2092.787
  -5241076.660 9  -4076780.24748  20055227.016    20055225.4954   20055229.4584
       488.214         380.426
   2039146.654 9   1589297.69846  23854035.373    23854033.5854   23854039.2234
     -1019.457        -794.382
 -14251352.661 9 -11088804.24248  21016380.765    21016379.4184   21016384.1184
      2621.347        2042.608
 -17948705.878 9 -13414492.36247  21864021.633    21864020.5644   21864025.1374
      3562.029        2775.607
 96 10 16 16 44 59.9970000  0 10 17  1  9 28 26  6 23 22 21  3      -0.002073034
  -3166355.249 9  -2416705.64048  20090051.596    20090050.1484   20090054.3624
       249.018         194.040
 -11168733.756 9  -8670651.79546  23180349.818    23180348.6414   23180354.8084
      4650.104        3623.458
  -4651311.499 9  -3380256.80745  24287838.590    24287837.3234   24287843.4644
      3131.603        2440.210
  -9316583.910 9  -7245837.060 9  19815170.792    19815169.628    19815173.211
       777.450         605.805
   4108940.458 9   3201452.38847  22933350.753    22933350.0224   22933353.6364
     -1816.149       -1415.181
  10434115.311 9   7996316.80546  22792216.891    22792216.0284   22792222.0274
     -2689.180       -2095.465
  -5255639.071 9  -4088127.59248  20052455.827    20052454.3524   20052458.3514
       482.168         375.715
   2069772.544 9   1613161.98146  23859863.337    23859861.5404   23859867.1874
     -1022.581        -796.816
 -14329913.683 9 -11150020.61648  21001431.074    21001429.7544   21001434.4524
      2615.612        2038.139
 -18055419.655 9 -13497645.94747  21843714.640    21843713.5954   21843718.1454
      3551.876        2767.696
 96 10 16 16 45 29.9970000  0 10 17  1  9 28 26  6 23 22 21  3      -0.002092030
  -3173737.965 9  -2422458.41648  20088646.663    20088645.2414   20088649.4394
       243.460         189.709
 -11308262.571 9  -8779375.54146  23153798.439    23153797.2334   23153803.4294
      4651.879        3624.841
  -4745242.604 9  -3453449.81945  24269964.017    24269962.7914   24269968.8724
      3130.550        2439.390
  -9339663.621 9  -7263821.264 9  19810778.880    19810777.723    19810781.322
       761.278         593.204
   4163542.705 9   3243999.55246  22943741.241    22943740.4974   22943744.2134
     -1823.922       -1421.238
  10514827.676 9   8059209.47646  22807575.938    22807575.1314   22807581.1124
     -2691.513       -2097.283
  -5270027.310 9  -4099339.21548  20049717.812    20049716.3184   20049720.3644
       477.059         371.734
   2100475.456 9   1637086.27146  23865705.904    23865704.1904   23865709.7684
     -1024.125        -798.019
 -14408314.306 9 -11211112.00448  20986511.927    20986510.6064   20986515.2594
      2611.041        2034.577
 -18161843.782 9 -13580573.82647  21823462.779    21823461.7574   21823466.2954
      3543.055        2760.822
 96 10 16 16 45 59.9970000  0 10 17  1  9 28 26  6 23 22 21  3      -0.002111089
  -3180938.191 9  -2428068.98848  20087276.529    20087275.1234   20087279.3004
       236.770         184.496
 -11447808.150 9  -8888112.35146  23127243.829    23127242.6424   23127248.8334
      4651.103        3624.236
  -4839108.135 8  -3526591.75445  24252101.942    24252100.7254   24252106.8364
      3127.363        2436.906
  -9362228.728 9  -7281404.477 9  19806484.875    19806483.745    19806487.351
       743.283         579.182
   4218413.282 9   3286755.81746  22954182.871    22954182.1164   22954185.8744
     -1833.776       -1428.916
  10595639.430 9   8122179.59346  22822953.989    22822953.2254   22822959.2354
     -2695.570       -2100.444
  -5284232.183 9  -4110407.94848  20047014.670    20047013.2054   20047017.2754
       470.181         366.375
   2131245.612 9   1661062.97046  23871561.390    23871559.6344   23871565.2344
     -1026.981        -800.245
 -14486541.357 9 -11272068.13448  20971625.804    20971624.5104   20971629.1404
      2604.264        2029.297
 -18267965.210 9 -13663265.83847  21803268.503    21803267.4894   21803271.9984
      3531.977        2752.190
 96 10 16 16 46 29.9970000  0 10 17  1  9 28 26  6 23 22 21  3      -0.002130211
  -3187959.768 9  -2433540.35348  20085940.401    20085938.9964   20085943.1874
       230.960         179.969
 -11587339.560 9  -8996838.12346  23100691.779    23100690.6624   23100696.8594
      4650.605        3623.848
  -4932904.161 8  -3599679.49045  24234253.100    24234251.9294   24234257.9894
      3125.587        2435.522
  -9384280.457 9  -7298587.654 9  19802288.609    19802287.466    19802291.070
       726.565         566.154
   4273549.188 9   3329718.83346  22964674.854    22964674.0974   22964677.9444
     -1842.074       -1435.382
  10676524.418 9   8185206.76946  22838346.013    22838345.2534   22838351.2224
     -2697.054       -2101.601
  -5298250.732 9  -4121331.49148  20044346.976    20044345.5274   20044349.6504
       463.948         361.518
   2162079.180 9   1685089.06646  23877428.837    23877427.0914   23877432.8014
     -1029.062        -801.866
 -14564581.055 9 -11332878.27548  20956775.369    20956774.0834   20956778.6844
      2598.140        2024.525
 -18373785.962 9 -13745723.54747  21783131.471    21783130.4584   21783134.9254
      3522.396        2744.724
 96 10 16 16 46 59.9970000  0 10 17  1  9 28 26  6 23 22 21  3      -0.002149398
  -3194790.677 9  -2438863.15748  20084640.559    20084639.1454   20084643.3744
       224.460         174.904
 -11726843.486 9  -9105542.47346  23074145.012    23074143.9564   23074150.1744
      4649.715        3623.155
  -5026642.077 8  -3672721.96446  24216415.338    24216414.0904   24216420.1164
      3123.673        2434.031
  -9405820.890 9  -7315372.424 9  19798189.574    19798188.435    19798192.058
       709.512         552.866
   4328941.196 9   3372881.40046  22975215.632    22975214.8324   22975218.7074
     -1850.703       -1442.106
  10757464.436 9   8248276.81146  22853748.563    22853747.7444   22853753.7194
     -2698.898       -2103.037
  -5312068.317 9  -4132098.44248  20041717.591    20041716.1424   20041720.2904
       457.282         356.324
   2193001.387 9   1709184.21846  23883313.095    23883311.3404   23883317.1754
     -1032.379        -804.451
 -14642431.244 9 -11393540.75548  20941960.996    20941959.7064   20941964.2594
      2591.905        2019.666
 -18479302.731 9 -13827944.40247  21763052.247    21763051.2644   21763055.7314
      3512.033        2736.649
 96 10 16 16 47 29.9970000  0 10 17  1  9 28 26  6 23 22 21  3      -0.002168641
  -3201433.723 9  -2444039.56448  20083376.377    20083374.9844   20083379.2664
       218.113         169.958
 -11866320.966 9  -9214226.21846  23047603.412    23047602.2784   23047608.5524
      4648.529        3622.230
  -5120328.528 8  -3745724.33945  24198587.466    24198586.3434   24198592.2124
      3121.933        2432.675
  -9426851.878 9  -7331760.219 9  19794187.488    19794186.369    19794190.026
       692.294         539.450
   4384595.933 9   3416248.68646  22985806.393    22985805.5754   22985809.4244
     -1859.733       -1449.143
  10838454.345 9   8311385.73046  22869160.587    22869159.6154   22869165.6314
     -2700.637       -2104.392
  -5325689.042 9  -4142711.98748  20039125.702    20039124.2594   20039128.3754
       450.586         351.106
   2224023.900 9   1733357.53546  23889216.424    23889214.7004   23889220.6084
     -1036.101        -807.351
 -14720104.112 9 -11454065.05748  20927180.350    20927179.0804   20927183.5894
      2586.019        2015.080
 -18584507.233 9 -13909921.91847  21743032.396    21743031.4814   21743036.0324
      3501.260        2728.255
 96 10 16 16 47 59.9970000  0 10 17  1  9 28 26  6 23 22 21  3      -0.002187940
  -3207882.975 9  -2449064.97248  20082149.120    20082147.7474   20082152.0164
       211.304         164.652
 -12005775.338 9  -9322891.95646  23021066.107    23021064.9344   23021071.2424
      4647.902        3621.742
  -5213963.390 8  -3818686.52945  24180769.317    24180768.1454   24180774.1164
      3120.002        2431.170
  -9447372.025 9  -7347749.957 9  19790282.676    19790281.551    19790285.189
       675.230         526.153
   4440507.283 9   3459815.93646  22996445.910    22996445.1494   22996448.9654
     -1868.080       -1455.647
  10919478.580 9   8374521.40646  22884579.053    22884578.1454   22884584.0714
     -2701.423       -2105.005
  -5339123.952 9  -4153180.75248  20036569.122    20036567.6804   20036571.7934
       444.652         346.482
   2255160.973 8   1757620.14446  23895141.587    23895139.9874   23895145.7594
     -1040.286        -810.612
 -14797605.822 9 -11514455.98948  20912432.215    20912430.9624   20912435.4644
      2580.336        2010.651
 -18689387.281 9 -13991646.62347  21723074.362    21723073.4374   21723078.0104
      3490.252        2719.677
 96 10 16 16 48 29.9970000  0 10 17  1  9 28 26  6 23 22 21  3      -0.002207294
  -3214120.734 9  -2453925.56748  20080962.108    20080960.7644   20080964.9874
       204.549         159.389
 -12145212.129 9  -9431543.98646  22994532.107    22994530.9774   22994537.3534
      4647.988        3621.809
  -5307542.418 8  -3891605.22545  24162961.728    24162960.5424   24162966.6304
      3118.486        2429.989
  -9467379.452 9  -7363340.169 9  19786475.397    19786474.279    19786477.929
       658.610         513.202
   4496654.903 9   3503567.29946  23007130.441    23007129.7144   23007133.6064
     -1875.075       -1461.097
  11000525.852 9   8437675.03646  22900001.858    22900000.9744   22900006.9514
     -2701.863       -2105.348
  -5352382.379 9  -4163511.98748  20034046.101    20034044.6854   20034048.8104
       439.259         342.280
   2286433.305 8   1781988.12646  23901092.614    23901090.9754   23901096.6844
     -1044.421        -813.835
 -14874930.493 9 -11574708.96548  20897717.777    20897716.5494   20897721.0334
      2574.755        2006.303
 -18793933.377 9 -14073111.09947  21703179.883    21703178.9424   21703183.5584
      3479.486        2711.288
 96 10 16 16 48 59.9970000  0 10 17  1  9 28 26  6 23 22 21  3      -0.002226704
  -3220150.672 9  -2458624.23248  20079814.687    20079813.3394   20079817.5364
       198.121         154.380
 -12284648.991 9  -9540196.05946  22967998.098    22967996.9714   22968003.4634
      4648.323        3622.070
  -5401062.673 8  -3964478.13246  24145165.351    24145164.3534   24145170.2714
      3116.656        2428.563
  -9486875.899 9  -7378532.217 9  19782765.325    19782764.238    19782767.898
       641.701         500.027
   4553029.433 9   3547495.44246  23017858.107    23017857.3664   23017861.3574
     -1882.629       -1466.984
  11081612.659 9   8500859.47546  22915432.203    22915431.3134   22915437.3454
     -2703.432       -2106.570
  -5365480.270 9  -4173718.13348  20031553.608    20031552.2244   20031556.3564
       434.588         338.640
   2317832.981 8   1806455.35746  23907067.815    23907066.2274   23907071.8754
     -1048.055        -816.666
 -14952088.631 9 -11634832.17648  20883035.059    20883033.8464   20883038.3234
      2569.749        2002.402
 -18898148.668 9 -14154317.80647  21683348.368    21683347.4664   21683352.0634
      3468.808        2702.967
 96 10 16 16 49 29.9970000  0 10 17  1  9 28 26  6 23 22 21  3      -0.002246177
  -3225992.982 9  -2463176.69848  20078702.957    20078701.6054   20078705.8234
       191.633         149.324
 -12424087.912 9  -9648849.72746  22941463.610    22941462.4964   22941469.1134
      4648.026        3621.838
  -5494522.662 8  -4037304.06346  24127380.511    24127379.3904   24127385.3114
      3114.351        2426.767
  -9505861.619 9  -7393326.297 9  19779152.492    19779151.386    19779155.064
       624.424         486.564
   4609627.329 9   3591597.66746  23028628.206    23028627.6014   23028631.6754
     -1890.046       -1472.763
  11162745.397 9   8564079.69546  22930871.309    22930870.3474   22930876.4294
     -2705.107       -2107.876
  -5378433.296 9  -4183811.40048  20029088.741    20029087.3714   20029091.4834
       429.188         334.432
   2349333.278 8   1831000.96846  23913062.069    23913060.4924   23913066.2744
     -1051.418        -819.287
 -15029100.859 9 -11694841.69348  20868380.130    20868378.9184   20868383.3774
      2564.753        1998.509
 -19002043.995 9 -14235275.19947  21663577.812    21663576.8574   21663581.4614
      3457.935        2694.495
 96 10 16 16 49 59.9970000  0 10 17  1  9 28 26  6 23 22 21  3      -0.002265718
  -3231632.843 9  -2467571.40848  20077629.724    20077628.3754   20077632.6744
       184.617         143.857
 -12563519.558 9  -9757497.72446  22914930.584    22914929.4994   22914936.1674
      4647.450        3621.390
  -5587914.668 8  -4110077.01346  24109608.574    24109607.5164   24109613.4474
      3111.879        2424.841
  -9524334.319 9  -7407720.618 9  19775637.234    19775636.133    19775639.817
       607.270         473.197
   4666433.099 9   3635861.85946  23039437.964    23039437.4254   23039441.5894
     -1896.866       -1478.077
  11243930.748 9   8627340.94746  22946320.436    22946319.5244   22946325.5394
     -2707.222       -2109.524
  -5391219.120 9  -4193774.37348  20026655.648    20026654.2874   20026658.4194
       423.312         329.853
   2380924.161 8   1855617.16246  23919073.426    23919071.9094   23919077.8954
     -1054.417        -821.624
 -15105962.526 9 -11754733.89048  20853753.850    20853752.6524   20853757.0864
      2559.510        1994.423
 -19105612.187 9 -14315977.68247  21643869.485    21643868.4964   21643873.1134
      3446.781        2685.803
 96 10 16 16 50 29.9970000  0 10 17  1  9 28 26  6 23 22 21  3      -0.002285327
  -3237068.515 9  -2471807.01148  20076595.341    20076594.0114   20076598.3474
       178.127         138.800
 -12702926.274 9  -9866126.28446  22888402.398    22888401.2334   22888407.9064
      4646.563        3620.698
  -5681237.462 8  -4182796.03645  24091849.623    24091848.5704   24091854.6934
      3109.872        2423.277
  -9542291.834 9  -7421713.494 9  19772220.023    19772218.932    19772222.638
       590.257         459.941
   4723442.454 9   3680284.70346  23050286.567    23050286.0154   23050290.2344
     -1903.413       -1483.179
  11325188.747 9   8690658.76546  22961783.366    22961782.4804   22961788.3954
     -2709.771       -2111.510
  -5403816.947 9  -4203590.85648  20024258.349    20024256.9954   20024261.1324
       416.939         324.887
   2412594.032 9   1880294.91046  23925099.955    23925098.5384   23925104.5334
     -1056.463        -823.218
 -15182669.859 9 -11814505.82648  20839156.905    20839155.7254   20839160.1774
      2554.777        1990.735
 -19208852.205 9 -14396424.44047  21624223.531    21624222.5654   21624227.2474
      3436.284        2677.624
 96 10 16 16 50 59.9970000  0 10 17  1  9 28 26  6 23 22 21  3      -0.002305004
  -3242297.237 9  -2475881.35348  20075600.385    20075599.0474   20075603.3784
       170.438         132.809
 -12842284.805 9  -9974717.29246  22861883.299    22861882.1854   22861888.6674
      4643.972        3618.679
  -5774485.470 8  -4255456.80445  24074105.114    24074104.0774   24074110.3074
      3106.701        2420.806
  -9559728.918 9  -7435300.840 9  19768901.875    19768900.784    19768904.514
       572.217         445.883
   4780664.105 9   3724872.95846  23061175.617    23061174.9994   23061179.2314
     -1911.282       -1489.311
  11406536.711 9   8754046.69346  22977263.452    22977262.5144   22977268.4444
     -2713.275       -2114.240
  -5416208.474 9  -4213246.59548  20021900.322    20021898.9724   20021903.0964
       409.157         318.824
   2444325.837 9   1905020.94146  23931138.481    23931137.0234   23931142.9714
     -1059.036        -825.223
 -15259240.445 9 -11874171.21248  20824586.003    20824584.8254   20824589.2664
      2549.840        1986.888
 -19311769.995 9 -14476620.12247  21604638.905    21604637.9574   21604642.6274
      3424.735        2668.625
 96 10 16 16 51 29.9970000  0 10 17  1  9 28 26  6 23 22 21  3      -0.002324746
  -3247303.198 9  -2479782.11348  20074647.806    20074646.4654   20074650.7924
       163.413         127.335
 -12981581.208 9 -10083259.89046  22835376.021    22835374.9104   22835381.3414
      4642.741        3617.720
  -5867654.209 8  -4328055.82046  24056375.684    24056374.7064   24056380.7934
      3104.679        2419.230
  -9576643.242 9  -7448480.844 9  19765683.173    19765682.082    19765685.870
       555.672         432.991
   4838096.793 9   3769625.65846  23072104.760    23072104.1774   23072108.3754
     -1917.311       -1494.009
  11487967.441 9   8817499.10446  22992759.347    22992758.3894   22992764.1814
     -2715.077       -2115.644
  -5428372.349 9  -4222724.93948  20019585.644    20019584.2664   20019588.4044
       402.104         313.328
   2476118.905 9   1929794.68646  23937188.674    23937187.2334   23937192.9994
     -1060.240        -826.161
 -15335667.304 9 -11933724.59548  20810042.427    20810041.2424   20810045.7044
      2545.488        1983.497
 -19414346.716 9 -14556550.02747  21585119.207    21585118.2784   21585122.8954
      3413.926        2660.202
 96 10 16 16 51 59.9970000  0 10 17  1  9 28 26  6 23 22 21  3      -0.002344543
  -3252056.735 9  -2483486.17848  20073743.275    20073741.9444   20073746.2184
       153.967         119.974
 -13120804.325 9 -10191745.37846  22808882.780    22808881.6394   22808887.9514
      4639.275        3615.019
  -5960720.582 8  -4400575.08245  24038665.734    24038664.6784   24038670.8064
      3099.929        2415.529
  -9593027.720 9  -7461247.978 9  19762565.336    19762564.247    19762568.001
       536.903         418.366
   4895748.016 9   3814548.65246  23083075.505    23083074.8484   23083079.0714
     -1925.980       -1500.764
  11569488.643 9   8881022.03946  23008272.404    23008271.3634   23008277.3284
     -2719.198       -2118.856
  -5440304.570 9  -4232022.77048  20017315.004    20017313.6414   20017317.7674
       393.909         306.942
   2507983.286 9   1954623.99846  23943252.379    23943250.8624   23943256.6004
     -1063.784        -828.923
 -15411923.261 9 -11993144.80948  20795531.374    20795530.1964   20795534.6704
      2538.517        1978.065
 -19516559.839 9 -14636196.61747  21565668.677    21565667.7314   21565672.3204
      3400.715        2649.908
 96 10 16 16 52 29.9970000  0 10 17  1  9 28 26  6 23 22 21  3      -0.002364384
  -3256560.794 9  -2486995.84548  20072886.231    20072884.8744   20072889.1574
       145.774         113.590
 -13259954.337 9 -10300173.90846  22782403.450    22782402.2274   22782408.4384
      4637.103        3613.327
  -6053663.280 8  -4472997.93946  24020979.351    24020978.1804   24020984.4024
      3095.658        2412.201
  -9608874.461 9  -7473596.096 9  19759549.836    19759548.751    19759552.471
       519.103         404.496
   4953648.145 9   3859665.59246  23094093.538    23094092.8594   23094097.1454
     -1934.485       -1507.391
  11651098.284 9   8944613.87646  23023802.332    23023801.3164   23023807.2804
     -2721.824       -2120.902
  -5452023.989 9  -4241154.79148  20015084.866    20015083.5254   20015087.6344
       387.063         301.608
   2539929.064 9   1979516.73846  23949331.324    23949329.8404   23949335.7194
     -1066.441        -830.993
 -15487996.976 9 -12052423.02748  20781055.042    20781053.8514   20781058.2984
      2532.584        1973.442
 -19618411.215 9 -14715561.32647  21546287.038    21546286.1224   21546290.6594
      3388.936        2640.729
 96 10 16 16 52 59.9970000  0 10 17  1  9 28 26  6 23 22 21  3      -0.002384254
  -3260792.896 9  -2490293.59548  20072080.916    20072079.5424   20072083.8764
       136.620         106.457
 -13399034.412 9 -10408547.94246  22755937.415    22755936.2294   22755942.2734
      4635.248        3611.881
  -6146446.085 8  -4545296.20846  24003323.384    24003322.1924   24003328.4214
      3090.239        2407.978
  -9624170.392 9  -7485515.014 9  19756639.164    19756638.058    19756641.782
       500.843         390.267
   5011822.742 9   3904996.41647  23105163.801    23105163.1124   23105167.4514
     -1943.617       -1514.507
  11732792.453 8   9008271.58846  23039348.252    23039347.3244   23039353.3154
     -2724.135       -2122.703
  -5463532.030 9  -4250122.09448  20012895.001    20012893.6234   20012897.7414
       380.421         296.432
   2571975.243 9   2004487.74546  23955429.625    23955428.0664   23955433.9664
     -1069.805        -833.614
 -15563865.369 9 -12111541.24948  20766617.803    20766616.6034   20766620.9864
      2525.374        1967.824
 -19719880.617 9 -14794628.39047  21526978.165    21526977.2324   21526981.7154
      3375.783        2630.480
 96 10 16 16 53 29.9970000  0 10 17  1  9 28 26  6 23 22 21  3      -0.002404159
  -3264764.561 9  -2493388.41948  20071325.131    20071323.7714   20071328.1634
       128.596         100.205
 -13538075.449 9 -10516891.55546  22729478.883    22729477.6444   22729483.6154
      4634.411        3611.229
  -6239076.933 8  -4617476.04846  23985696.313    23985695.1294   23985701.3364
      3085.529        2404.308
  -9638927.281 9  -7497013.896 9  19753831.013    19753829.907    19753833.662
       483.316         376.610
   5070262.402 9   3950533.76847  23116284.523    23116283.8204   23116288.2474
     -1951.988       -1521.030
  11814539.052 8   9071970.12446  23054904.185    23054903.2724   23054909.2854
     -2725.313       -2123.620
  -5474856.272 9  -4258946.18748  20010740.069    20010738.6964   20010742.8154
       374.988         292.198
   2604117.280 9   2029533.40046  23961546.251    23961544.7004   23961550.4124
     -1072.548        -835.752
 -15639504.230 9 -12170480.61348  20752224.267    20752223.0354   20752227.3774
      2517.700        1961.844
 -19820961.766 9 -14873392.91147  21507743.134    21507742.1544   21507746.6424
      3363.378        2620.814
 96 10 16 16 53 59.9970000  0 10 17  1  9 28 26  6 23 22 21  3      -0.002424100
  -3268497.484 9  -2496297.20448  20070614.782    20070613.4324   20070617.8724
       119.890          93.421
 -13677076.516 9 -10625204.02046  22703027.876    22703026.6524   22703032.5564
      4631.927        3609.294
  -6331549.589 8  -4689532.62346  23968099.391    23968098.2134   23968104.3674
      3079.026        2399.241
  -9653147.217 9  -7508094.372 9  19751125.057    19751123.943    19751127.720
       464.236         361.742
   5128967.026 9   3996277.58647  23127455.714    23127454.9944   23127459.4614
     -1962.029       -1528.854
  11896331.692 8   9135704.57145  23070468.912    23070467.9784   23070474.0214
     -2727.759       -2125.526
  -5486018.348 9  -4267643.91348  20008616.029    20008614.6414   20008618.7694
       368.538         287.172
   2636347.492 9   2054647.80246  23967679.713    23967678.0784   23967683.7504
     -1076.593        -838.904
 -15714912.898 9 -12229240.60348  20737874.504    20737873.2744   20737877.5934
      2508.994        1955.060
 -19921664.589 9 -14951862.64047  21488580.000    21488579.0224   21488583.5164
      3349.707        2610.161
 96 10 16 16 54 29.9970000  0 10 17  1  9 28 26  6 23 22 21  3      -0.002444060
  -3271970.089 9  -2499003.14348  20069954.010    20069952.6564   20069957.0184
       111.734          87.065
 -13815999.166 9 -10733455.37346  22676591.745    22676590.5444   22676596.3854
      4629.598        3607.479
  -6423832.533 8  -4761441.37846  23950538.554    23950537.3054   23950543.3874
      3073.526        2394.955
  -9666794.764 9  -7518728.837 9  19748528.075    19748526.949    19748530.675
       445.782         347.363
   5187968.613 9   4042252.81147  23138683.477    23138682.6834   23138687.1824
     -1970.881       -1535.751
  11978189.954 8   9199490.13745  23086046.001    23086045.2024   23086051.1904
     -2729.377       -2126.787
  -5496973.855 9  -4276180.68548  20006531.322    20006529.9024   20006534.0254
       362.081         282.141
   2668702.150 9   2079859.15146  23973836.551    23973834.9314   23973840.7914
     -1080.053        -841.600
 -15790047.475 9 -12287787.01748  20723576.887    20723575.6404   20723579.9814
      2500.316        1948.298
 -20021953.940 9 -15030010.18247  21469495.513    21469494.5974   21469499.0814
      3336.277        2599.696
 96 10 16 16 54 59.9970000  0 10 17  1  9 28 26  6 23 22 21  3      -0.002464040
  -3275181.184 9  -2501505.30648  20069343.011    20069341.6284   20069345.9334
       102.556          79.914
 -13954822.728 9 -10841629.51546  22650174.440    22650173.2834   22650179.1394
      4625.264        3604.102
  -6515946.053 8  -4833218.10946  23933009.826    23933008.8394   23933014.7274
      3067.656        2390.381
  -9679870.868 9  -7528918.020 9  19746039.782    19746038.641    19746042.397
       426.028         331.970
   5247238.146 9   4088436.82247  23149962.175    23149961.4194   23149965.8414
     -1980.261       -1543.061
  12060115.155 8   9263327.85045  23101635.911    23101635.2284   23101641.1304
     -2732.224       -2129.006
  -5507722.656 9  -4284556.38048  20004485.935    20004484.4944   20004488.6374
       354.499         276.233
   2701168.036 9   2105157.16346  23980014.469    23980012.8864   23980018.8144
     -1084.276        -844.890
 -15864912.011 9 -12346123.00948  20709330.573    20709329.3544   20709333.7644
      2490.917        1940.974
 -20121812.435 9 -15107821.99147  21450493.063    21450492.1534   21450496.6414
      3320.993        2587.787
 96 10 16 16 55 29.9970000  0 10 17  1  9 28 26  6 23 22 21  3      -0.002484046
  -3278156.539 9  -2503823.77948  20068776.837    20068775.4704   20068779.7714
        95.967          74.779
 -14093534.237 9 -10949716.35546  22623778.434    22623777.3574   22623783.1894
      4622.331        3601.816
  -6607928.747 8  -4904892.89046  23915506.031    23915504.9844   23915510.9254
      3064.500        2387.922
  -9692384.787 9  -7538669.138 9  19743658.432    19743657.313    19743661.076
       408.445         318.269
   5306758.106 9   4134815.96747  23161288.524    23161287.7254   23161292.1584
     -1987.422       -1548.640
  12142100.602 8   9327212.51245  23117237.280    23117236.4394   23117242.4374
     -2733.201       -2129.767
  -5518270.361 9  -4292775.38248  20002478.754    20002477.3364   20002481.5064
       348.863         271.841
   2733731.689 9   2130531.39846  23986211.289    23986209.6914   23986215.4344
     -1086.319        -846.482
 -15939542.759 9 -12404276.82248  20695128.794    20695127.5694   20695132.0154
      2484.933        1936.311
 -20221249.048 9 -15185305.06147  21431570.940    21431569.9884   21431574.4844
      3308.399        2577.973
 96 10 16 16 55 59.9970000  0 10 17  1  9 28 26  6 23 22 21  3      -0.002504089
  -3280918.058 9  -2505975.62348  20068251.308    20068249.9764   20068254.3404
        88.594          69.034
 -14232137.449 9 -11057718.80646  22597403.063    22597401.9904   22597407.8764
      4618.611        3598.918
  -6699793.564 8  -4976475.82146  23898024.623    23898023.5924   23898029.5574
      3060.527        2384.826
  -9704356.260 9  -7547997.565 9  19741380.359    19741379.237    19741382.994
       390.235         304.079
   5366505.328 9   4181372.19747  23172658.122    23172657.3244   23172661.6544
     -1995.079       -1554.607
  12224135.941 8   9391136.07745  23132848.028    23132847.2864   23132853.3594
     -2735.171       -2131.302
  -5528634.039 9  -4300850.98048  20000506.576    20000505.1814   20000509.3384
       342.499         266.882
   2766372.512 9   2155965.77245  23992422.732    23992421.1644   23992426.7194
     -1089.121        -848.666
 -16013994.667 9 -12462291.28448  20680961.030    20680959.8164   20680964.2774
      2479.020        1931.704
 -20320289.328 9 -15262479.30147  21412724.237    21412723.2964   21412727.7804
      3294.884        2567.442
 96 10 16 16 56 29.9970000  0 10 17  1  9 28 26  6 23 22 21  3      -0.002524179
  -3283466.164 9  -2507961.16848  20067766.389    20067765.0614   20067769.5014
        81.115          63.206
 -14370642.804 9 -11165645.02147  22571046.290    22571045.2274   22571051.1134
      4615.066        3596.155
  -6791562.735 8  -5047984.23146  23880561.523    23880560.6344   23880566.4084
      3057.244        2382.268
  -9715799.504 9  -7556914.393 9  19739202.767    19739201.661    19739205.435
       372.545         290.295
   5426456.277 9   4228087.18147  23184066.463    23184065.6984   23184069.9694
     -2001.751       -1559.806
  12306216.087 8   9455094.53945  23148467.151    23148466.4194   23148472.6114
     -2737.171       -2132.861
  -5538818.009 9  -4308786.54748  19998568.592    19998567.2254   19998571.4184
       336.455         262.173
   2799072.829 9   2181446.49346  23998645.439    23998643.9414   23998649.3214
     -1090.931        -850.076
 -16088290.442 9 -12520184.07948  20666822.968    20666821.7834   20666826.2244
      2474.160        1927.917
 -20418941.874 9 -15339351.40947  21393951.304    21393950.3544   21393954.8204
      3281.853        2557.288
 96 10 16 16 56 59.9970000  0 10 17  1  9 28 26  6 23 22 21  3      -0.002544309
  -3285783.632 9  -2509767.00148  20067325.379    20067324.0634   20067328.5174
        73.512          57.282
 -14509048.362 9 -11273493.46847  22544708.512    22544707.4704   22544713.3484
      4612.167        3593.896
  -6883225.833 8  -5119409.99346  23863118.634    23863117.7904   23863123.4764
      3053.599        2379.428
  -9726710.386 9  -7565416.390 9  19737126.484    19737125.392    19737129.204
       354.991         276.616
   5486615.288 9   4274964.29646  23195514.417    23195513.6464   23195517.8574
     -2008.723       -1565.239
  12388364.186 8   9519105.95945  23164099.282    23164098.5584   23164104.9114
     -2739.098       -2134.362
  -5548819.411 9  -4316579.85848  19996665.381    19996663.9984   19996668.2344
       330.410         257.462
   2831827.864 9   2206969.84246  24004878.484    24004877.0714   24004882.5854
     -1092.659        -851.423
 -16162451.417 9 -12577971.83848  20652710.609    20652709.4214   20652713.8734
      2469.847        1924.556
 -20517201.133 9 -15415917.05947  21375253.213    21375252.2684   21375256.7124
      3269.015        2547.284
 96 10 16 16 57 29.9970000  0 10 17  1  9 28 26  6 23 22 21  3      -0.002564479
  -3287850.661 9  -2511377.68048  20066932.051    20066930.7374   20066935.1844
        64.519          50.275
 -14647356.807 9 -11381266.24247  22518389.255    22518388.2084   22518394.1174
      4608.606        3591.122
  -6974751.053 8  -5190728.30446  23845701.874    23845701.0574   23845706.7894
      3048.192        2375.215
  -9737083.428 9  -7573499.293 9  19735152.578    19735151.483    19735155.288
       336.761         262.411
   5546997.022 9   4322014.94646  23207004.709    23207003.9554   23207008.1674
     -2016.321       -1571.159
  12470585.644 8   9583174.51545  23179745.488    23179744.8154   23179751.2194
     -2741.953       -2136.587
  -5558624.312 9  -4324220.04848  19994799.547    19994798.1734   19994802.4354
       323.567         252.130
   2864647.220 9   2232543.31445  24011123.904    24011122.4164   24011128.1044
     -1094.938        -853.198
 -16236455.943 9 -12635637.68648  20638627.994    20638626.8144   20638631.3234
      2463.844        1919.878
 -20615075.019 9 -15492182.42047  21356628.382    21356627.4724   21356631.9394
      3256.183        2537.285
 96 10 16 16 57 59.9970000  0 10 17  1  9 28 26  6 23 22 21  3      -0.002584694
  -3289657.356 9  -2512785.50248  20066588.262    20066586.9404   20066591.3904
        55.163          42.984
 -14785569.497 9 -11488964.40247  22492088.248    22492087.1814   22492093.1344
      4604.877        3588.216
  -7066116.606 8  -5261922.19646  23828315.504    23828314.7404   23828320.5194
      3042.228        2370.567
  -9746921.124 9  -7581165.042 9  19733280.502    19733279.428    19733283.232
       318.370         248.081
   5607588.565 9   4369229.08846  23218534.863    23218534.1294   23218538.3744
     -2023.878       -1577.048
  12552882.810 8   9647302.07845  23195406.167    23195405.7004   23195411.9144
     -2745.235       -2139.144
  -5568237.869 9  -4331711.13348  19992970.134    19992968.7694   19992973.0584
       316.456         246.589
   2897516.380 9   2258155.60445  24017378.751    24017377.2054   24017382.8364
     -1097.013        -854.815
 -16310281.627 9 -12693164.17348  20624579.405    20624578.2284   20624582.7924
      2457.007        1914.551
 -20712568.123 9 -15568151.06247  21338076.000    21338075.1084   21338079.5924
      3242.697        2526.777
 96 10 16 16 58 29.9970000  0 10 17  1  9 28 26  6 23 22 21  3      -0.002604962
  -3291196.331 9  -2513984.71748  20066295.369    20066294.0674   20066298.5324
        46.629          36.334
 -14923690.696 9 -11596591.27047  22465804.618    22465803.5984   22465809.4854
      4602.306        3586.212
  -7157318.717 8  -5332988.74046  23810960.357    23810959.4934   23810965.2754
      3036.889        2366.407
  -9756224.610 9  -7588414.524 9  19731510.107    19731509.047    19731512.845
       300.953         234.509
   5668388.517 9   4416605.62646  23230104.620    23230103.9864   23230108.2484
     -2030.525       -1582.227
  12635252.047 8   9711485.77445  23211080.513    23211080.0714   23211086.2184
     -2746.843       -2140.397
  -5577645.155 9  -4339041.49348  19991180.003    19991178.6414   19991182.9344
       309.951         241.520
   2930427.009 9   2283800.21446  24023641.477    24023639.9064   24023645.3784
     -1098.097        -855.660
 -16383911.278 9 -12750537.91348  20610568.107    20610566.9434   20610571.5494
      2450.707        1909.642
 -20809682.760 9 -15643824.80547  21319595.607    21319594.7274   21319599.3024
      3230.605        2517.354
 96 10 16 16 58 59.9970000  0 10 17  1  9 28 26  6 23 22 21  3      -0.002625279
  -3292475.847 9  -2514981.75548  20066051.914    20066050.5964   20066055.0714
        38.251          29.806
 -15061727.403 9 -11704152.27947  22439537.095    22439536.0124   22439542.0014
      4599.582        3584.090
  -7248345.586 8  -5403918.72946  23793638.670    23793637.7924   23793643.2874
      3031.040        2361.849
  -9764996.453 9  -7595249.742 9  19729840.906    19729839.844    19729843.663
       283.300         220.753
   5729404.925 9   4464150.82946  23241715.568    23241714.9844   23241719.4744
     -2037.701       -1587.819
  12717671.691 8   9775708.77345  23226764.509    23226763.7814   23226770.2714
     -2748.100       -2141.377
  -5586851.293 9  -4346215.11248  19989428.087    19989426.7594   19989431.0694
       303.288         236.328
   2963387.698 9   2309483.82445  24029913.777    24029912.2614   24029917.7444
     -1099.778        -856.970
 -16457333.112 9 -12807749.71848  20596596.393    20596595.2514   20596599.8424
      2443.465        1903.999
 -20906419.052 9 -15719203.72647  21301187.298    21301186.4534   21301191.0534
      3217.958        2507.500
 96 10 16 16 59 29.9970000  0 10 17  1  9 28 26  6 23 22 21  3      -0.002645644
  -3293502.149 9  -2515781.47948  20065856.647    20065855.3264   20065859.8394
        29.557          23.031
 -15199667.672 9 -11811638.13547  22413287.904    22413286.8144   22413292.8294
      4595.691        3581.058
  -7339190.276 8  -5474706.75545  23776351.505    23776350.5984   23776356.0264
      3024.646        2356.867
  -9773231.586 9  -7601666.747 9  19728273.785    19728272.741    19728276.619
       265.008         206.500
   5790643.756 9   4511869.35046  23253368.926    23253368.3754   23253372.9744
     -2045.671       -1594.029
  12800132.517 8   9839963.88445  23242456.488    23242455.8544   23242462.2244
     -2749.940       -2142.810
  -5595849.810 9  -4353226.94648  19987715.703    19987714.3834   19987718.7044
       295.953         230.613
   2996399.942 9   2335207.57946  24036195.839    24036194.3424   24036199.9524
     -1101.700        -858.468
 -16530530.395 9 -12864786.54948  20582667.368    20582666.2184   20582670.8864
      2435.863        1898.075
 -21002767.480 9 -15794280.41647  21282852.854    21282852.0184   21282856.5624
      3204.469        2496.989
 96 10 16 16 59 59.9970000  0 10 17  1  9 28 26  6 23 22 21  3      -0.002666034
  -3294286.357 9  -2516392.56248  20065707.396    20065706.1274   20065710.6484
        22.031          17.167
 -15337501.748 9 -11919041.24546  22387058.869    22387057.7634   22387063.8014
      4592.784        3578.793
  -7429851.712 8  -5545351.98545  23759098.942    23759098.2334   23759103.7354
      3019.031        2352.492
  -9780926.936 9  -7607663.142 9  19726809.421    19726808.379    19726812.227
       247.462         192.828
   5852125.234 9   4559776.94946  23265068.459    23265067.9274   23265072.6624
     -2053.679       -1600.269
  12882634.823 8   9904251.27345  23258156.306    23258155.7214   23258161.9664
     -2750.561       -2143.294
  -5604639.362 9  -4360075.95248  19986043.099    19986041.7914   19986046.0744
       289.393         225.501
   3029465.724 9   2360973.07146  24042488.149    24042486.6094   24042492.3424
     -1103.269        -859.690
 -16603519.003 9 -12921660.78148  20568778.098    20568776.9444   20568781.6034
      2429.611        1893.203
 -21098707.296 9 -15869038.71447  21264596.172    21264595.2824   21264599.8254
      3190.936        2486.444
 96 10 16 17  0 29.9970000  0 10 17  1  9 28 26  6 23 22 21  3      -0.002686519
  -3294831.027 9  -2516816.99648  20065603.752    20065602.4614   20065607.0144
        14.386          11.210
 -15475238.182 9 -12026368.26946  22360848.364    22360847.3234   22360853.4094
      4589.681        3576.375
  -7520334.058 8  -5615857.65445  23741880.737    23741879.8094   23741885.4794
      3013.223        2347.966
  -9788083.910 9  -7613240.018 9  19725447.543    19725446.492    19725450.290
       229.778         179.048
   5913855.719 9   4607878.57746  23276815.418    23276814.8504   23276819.7074
     -2061.631       -1606.466
  12965156.614 8   9968553.84945  23273859.916    23273859.1874   23273865.5594
     -2750.847       -2143.517
  -5613220.915 9  -4366762.87348  19984410.109    19984408.7984   19984413.0674
       283.097         220.595
   3062591.879 9   2386785.60546  24048791.927    24048790.4194   24048796.2594
     -1105.102        -861.118
 -16676308.944 9 -12978380.20548  20554926.668    20554925.4974   20554930.0914
      2423.233        1888.234
 -21194227.464 9 -15943470.01147  21246419.249    21246418.3524   21246422.9254
      3177.046        2475.620
 96 10 16 17  0 59.9970000  0 10 17  1  9 28 26  6 23 22 21  3      -0.002706975
  -3295138.300 9  -2517056.43648  20065545.303    20065544.0054   20065548.5234
         6.098           4.752
 -15612866.204 9 -12133610.80946  22334658.560    22334657.5154   22334663.5744
      4585.490        3573.109
  -7610641.635 8  -5686227.13345  23724695.843    23724694.7984   23724700.6334
      3007.336        2343.379
  -9794702.970 9  -7618397.741 9  19724188.011    19724186.945    19724190.746
       211.552         164.846
   5975832.661 9   4656172.25446  23288609.259    23288608.7784   23288613.5834
     -2069.921       -1612.925
  13047699.752 8  10032873.05045  23289567.686    23289566.8394   23289573.2174
     -2751.976       -2144.397
  -5621616.427 9  -4373304.83248  19982812.497    19982811.1974   19982815.4304
       276.677         215.592
   3095780.785 9   2412647.03546  24055107.610    24055106.1634   24055111.9324
     -1107.386        -862.898
 -16748902.336 9 -13034946.47348  20541112.608    20541111.4484   20541115.9834
      2416.414        1882.920
 -21289314.992 9 -16017564.18347  21228324.660    21228323.7544   21228328.3534
      3162.196        2464.049
 96 10 16 17  1 29.9970000  0 10 17  1  9 28 26  6 23 22 21  3      -0.002727451
  -3295198.422 9  -2517103.29648  20065533.876    20065532.6144   20065537.0964
        -2.742          -2.137
 -15750364.678 9 -12240752.42046  22308493.385    22308492.3494   22308498.4444
      4580.457        3569.187
  -7700775.703 8  -5756461.39545  23707543.959    23707542.9594   23707548.7144
      3001.069        2338.495
  -9800781.524 9  -7623134.293 9  19723031.305    19723030.268    19723034.082
       193.113         150.478
   6038045.592 9   4704649.81646  23300448.063    23300447.6194   23300452.2794
     -2078.031       -1619.245
  13130273.323 8  10097215.97445  23305281.021    23305280.2254   23305286.5684
     -2753.460       -2145.553
  -5629828.343 9  -4379703.72648  19981249.833    19981248.5434   19981252.7844
       270.322         210.641
   3129028.761 9   2438554.48146  24061434.427    24061432.9874   24061438.9554
     -1109.671        -864.679
 -16821305.907 9 -13091364.83448  20527334.650    20527333.5054   20527338.0644
      2409.848        1877.804
 -21383960.696 9 -16091314.07747  21210314.175    21210313.2594   21210317.8644
      3146.969        2452.184
 96 10 16 17  1 59.9970000  0 10 17  1  9 28 26  6 23 22 21  3      -0.002747938
  -3294983.857 9  -2516936.11748  20065574.732    20065573.4794   20065577.9574
       -12.319          -9.599
 -15887706.878 9 -12347772.26346  22282357.934    22282356.9574   22282363.0254
      4575.155        3565.056
  -7790718.413 8  -5826546.56646  23690428.479    23690427.5594   23690433.0944
      2994.477        2333.359
  -9806301.704 9  -7627435.749 9  19721980.850    19721979.816    19721983.629
       174.288         135.809
   6100490.940 9   4753308.48046  23312331.162    23312330.5884   23312335.2184
     -2085.345       -1624.944
  13212887.404 8  10161590.46145  23321002.041    23321001.3324   23321007.6134
     -2754.678       -2146.502
  -5637850.346 9  -4385954.64448  19979723.330    19979722.0404   19979726.2494
       263.792         205.552
   3162354.072 9   2464522.18046  24067775.972    24067774.5994   24067780.5334
     -1112.461        -866.853
 -16893501.944 9 -13147621.48248  20513596.168    20513595.0254   20513599.6174
      2402.559        1872.124
 -21478138.025 9 -16164699.00247  21192392.842    21192391.9594   21192396.5544
      3131.071        2439.796
 96 10 16 17  2 29.9970000  0 10 17  1  9 28 26  6 23 22 21  3      -0.002768457
  -3294492.774 9  -2516553.46748  20065668.143    20065666.9224   20065671.4384
       -20.514         -15.985
 -16024899.208 9 -12454675.31147  22256251.044    22256250.1304   22256256.1794
      4570.768        3561.637
  -7880482.395 8  -5896492.47046  23673346.929    23673345.9694   23673351.4194
      2989.404        2329.406
  -9811273.786 9  -7631310.112 9  19721034.685    19721033.673    19721037.487
       156.983         122.324
   6163120.058 9   4802110.34446  23324249.123    23324248.5784   23324253.1714
     -2090.267       -1628.779
  13295523.561 8  10225982.15746  23336727.329    23336726.4914   23336732.8824
     -2754.707       -2146.525
  -5645696.425 9  -4392068.46848  19978230.259    19978228.9674   19978233.1674
       259.170         201.951
   3195739.941 9   2490537.09746  24074129.178    24074127.7544   24074133.7294
     -1113.361        -867.554
 -16965494.573 9 -13203719.62648  20499896.417    20499895.2774   20499899.9284
      2396.627        1867.502
 -21571866.670 9 -16237734.30647  21174556.927    21174556.0474   21174560.5844
      3117.252        2429.028
 96 10 16 17  2 59.9970000  0 10 17  1  9 28 26  6 23 22 21  3      -0.002789012
  -3293735.008 9  -2515963.01648  20065812.392    20065811.1464   20065815.6924
       -30.075         -23.435
 -16161939.495 9 -12561459.89347  22230173.125    22230172.2124   22230178.1724
      4565.320        3557.392
  -7970065.947 8  -5966297.77846  23656299.731    23656298.7724   23656304.1754
      2982.726        2324.202
  -9815706.792 9  -7634764.419 9  19720191.108    19720190.118    19720193.949
       138.444         107.878
   6225922.027 9   4851046.87946  23336199.953    23336199.3634   23336204.0294
     -2096.525       -1633.656
  13378183.192 9  10290392.14046  23352457.053    23352456.1504   23352462.8024
     -2755.898       -2147.453
  -5653384.145 9  -4398058.90148  19976767.329    19976766.0614   19976770.2594
       253.226         197.319
   3229169.195 8   2516585.77446  24080490.646    24080489.1854   24080495.2004
     -1115.323        -869.083
 -17037287.954 9 -13259662.51648  20486234.589    20486233.4724   20486238.1484
      2389.506        1861.953
 -21665163.194 9 -16310432.89147  21156803.162    21156802.3034   21156806.8284
      3102.361        2417.424
 96 10 16 17  3 29.9970000  0 10 17  1  9 28 26  6 23 22 21  3      -0.002809608
  -3292702.052 9  -2515158.13648  20066008.970    20066007.7184   20066012.2784
       -38.847         -30.270
 -16298840.172 9 -12668135.70847  22204121.849    22204120.9174   22204126.7604
      4561.353        3554.301
  -8059464.718 8  -6035959.09546  23639287.532    23639286.6914   23639292.2394
      2976.918        2319.676
  -9819597.351 9  -7637796.043 9  19719450.778    19719449.796    19719453.624
       120.783          94.117
   6288892.115 9   4900114.41746  23348182.638    23348182.1294   23348186.8394
     -2101.689       -1637.680
  13460858.992 8  10354814.71545  23368189.869    23368188.9774   23368195.4894
     -2756.064       -2147.582
  -5660914.122 9  -4403926.41848  19975334.463    19975333.1704   19975337.3694
       248.593         193.709
   3262634.407 8   2542662.48146  24086859.011    24086857.4994   24086863.5214
     -1115.837        -869.483
 -17108888.087 9 -13315454.82248  20472609.523    20472608.3874   20472613.1014
      2383.581        1857.336
 -21758021.017 9 -16382789.62947  21139132.882    21139132.0404   21139136.5514
      3088.150        2406.351
 96 10 16 17  3 59.9970000  0 10 17  1  9 28 26  6 23 22 21  3      -0.002830246
  -3291384.587 9  -2514131.55348  20066259.714    20066258.4694   20066262.9994
       -47.042         -36.656
 -16435608.204 9 -12774708.17247  22178095.806    22178094.8244   22178100.5994
      4558.548        3552.115
  -8148664.650 8  -6105465.48346  23622313.265    23622312.3894   23622318.0204
      2971.639        2315.563
  -9822936.138 9  -7640397.712 9  19718815.424    19718814.453    19718818.244
       103.742          80.838
   6352044.388 9   4949323.93446  23360200.098    23360199.5414   23360204.4084
     -2106.596       -1641.503
  13543555.325 8  10419253.28045  23383926.464    23383925.6904   23383932.3374
     -2755.245       -2146.944
  -5668277.733 9  -4409664.30148  19973933.237    19973931.9394   19973936.1464
       244.143         190.241
   3296143.670 8   2568773.52146  24093235.628    24093234.1914   24093240.3514
     -1116.197        -869.764
 -17180280.493 9 -13371085.25848  20459023.971    20459022.8594   20459027.5674
      2378.000        1852.987
 -21850440.098 9 -16454804.49847  21121546.108    21121545.2544   21121549.7644
      3075.158        2396.227
 96 10 16 17  4 29.9970000  0 10 17  1  9 28 26  6 23 22 21  3      -0.002850931
  -3289787.884 9  -2512887.39148  20066563.530    20066562.3184   20066566.8304
       -56.971         -44.393
 -16572261.182 9 -12881190.97947  22152091.633    22152090.6214   22152096.3504
      4553.889        3548.485
  -8237663.220 8  -6174814.96846  23605377.471    23605376.5924   23605382.0774
      2963.819        2309.469
  -9825729.002 9  -7642573.982 9  19718283.980    19718282.992    19718286.793
        84.748          66.037
   6415391.383 9   4998685.17246  23372254.598    23372254.0804   23372259.0184
     -2114.421       -1647.601
  13626274.047 8  10483709.26245  23399667.211    23399666.5234   23399673.5254
     -2757.023       -2148.330
  -5675467.090 9  -4415266.40348  19972565.189    19972563.8924   19972568.0834
       237.436         185.015
   3329697.317 8   2594919.12446  24099620.728    24099619.1614   24099625.5084
     -1118.392        -871.474
 -17251472.363 9 -13426559.43648  20445476.620    20445475.5184   20445480.2204
      2370.360        1847.034
 -21942435.234 9 -16526489.01847  21104039.969    21104039.1434   21104043.7304
      3059.977        2384.398
 96 10 16 17  4 59.9970000  0 10 17  1  9 28 26  6 23 22 21  3      -0.002871655
  -3287922.411 9  -2511433.79548  20066918.522    20066917.3084   20066921.8274
       -66.764         -52.024
 -16708808.920 9 -12987591.78447  22126107.514    22126106.4454   22126112.1214
      4549.795        3545.295
  -8326454.837 8  -6244003.20046  23588481.053    23588480.0794   23588485.5814
      2956.248        2303.570
  -9827980.922 9  -7644328.741 9  19717855.467    19717854.497    19717858.319
        66.043          51.462
   6478950.240 9   5048211.50446  23384349.467    23384348.9494   23384353.9144
     -2122.037       -1653.535
  13709017.629 8  10548184.63845  23415412.893    23415412.1344   23415419.0914
     -2758.445       -2149.438
  -5682482.369 9  -4420732.86048  19971230.244    19971228.9404   19971233.0974
       230.774         179.824
   3363288.473 8   2621093.95645  24106013.012    24106011.3404   24106017.7664
     -1120.356        -873.005
 -17322461.791 9 -13481875.86048  20431967.819    20431966.7174   20431971.3514
      2362.974        1841.278
 -22034000.054 9 -16597838.22447  21086615.782    21086614.9734   21086619.5564
      3044.913        2372.659
 96 10 16 17  5 29.9970000  0 10 17  1  9 28 26  6 23 22 21  3      -0.002892410
  -3285773.635 9  -2509759.43848  20067327.444    20067326.1914   20067330.7254
       -76.081         -59.284
 -16845230.153 9 -13093894.00547  22100147.409    22100146.3614   22100151.9604
      4545.008        3541.565
  -8415027.798 9  -6313021.04446  23571626.150    23571625.0884   23571630.6784
      2948.757        2297.733
  -9829683.350 9  -7645655.321 9  19717531.529    19717530.551    19717534.408
        47.803          37.249
   6542727.846 9   5097908.29846  23396486.060    23396485.5634   23396490.4074
     -2129.497       -1659.348
  13791798.138 8  10612688.79645  23431165.615    23431164.9054   23431171.9454
     -2759.760       -2150.462
  -5689298.991 9  -4426044.52048  19969933.090    19969931.8034   19969935.9464
       223.919         174.482
   3396919.726 8   2647300.05145  24112412.753    24112411.3454   24112417.6744
     -1121.530        -873.919
 -17393238.081 9 -13537026.20548  20418499.551    20418498.4514   20418503.0724
      2355.820        1835.704
 -22125114.263 9 -16668836.29947  21069277.372    21069276.5444   21069281.0974
      3029.892        2360.955
 96 10 16 17  5 59.9970000  0 10 17  1  9 28 26  6 23 22 21  3      -0.002913193
  -3283345.779 9  -2507867.62048  20067789.507    20067788.2284   20067792.7734
       -84.669         -65.976
 -16981492.420 9 -13200072.35247  22074217.531    22074216.4954   22074222.0524
      4540.189        3537.810
  -8503361.726 9  -6381852.64446  23554816.708    23554815.6844   23554821.0294
      2941.353        2291.963
  -9830839.423 9  -7646556.173 9  19717311.539    19717310.570    19717314.442
        30.325          23.630
   6606730.617 9   5147780.52046  23408665.469    23408664.9504   23408669.8504
     -2136.152       -1664.534
  13874617.975 8  10677223.58845  23446925.836    23446925.2114   23446932.1714
     -2760.468       -2151.014
  -5695900.522 9  -4431188.57948  19968676.855    19968675.5794   19968679.7254
       217.335         169.352
   3430590.954 8   2673537.28845  24118820.186    24118818.7904   24118825.0554
     -1122.099        -874.363
 -17463798.051 9 -13592007.99248  20405072.433    20405071.3454   20405075.9144
      2349.402        1830.703
 -22215786.554 9 -16739490.03247  21052023.014    21052022.1664   21052026.6654
      3015.717        2349.909
 96 10 16 17  6 29.9970000  0 10 17  1  9 28 26  6 23 22 21  3      -0.002933988
  -3280647.075 9  -2505764.74448  20068303.101    20068301.8474   20068306.3484
       -95.297         -74.257
 -17117580.255 9 -13306114.78447  22048320.861    22048319.8184   22048325.3424
      4532.243        3531.618
  -8591447.526 9  -6450490.90446  23538054.613    23538053.5034   23538058.8084
      2931.039        2283.926
  -9831450.687 9  -7647032.490 9  19717195.278    19717194.290    19717198.103
        10.352           8.066
   6670949.705 9   5197821.32946  23420886.109    23420885.4694   23420890.3774
     -2145.128       -1671.528
  13957486.580 8  10741796.38745  23462695.424    23462694.6254   23462701.6434
     -2764.111       -2153.853
  -5702294.647 9  -4436171.02248  19967460.116    19967458.7994   19967462.9544
       208.917         162.792
   3464286.225 8   2699793.24445  24125232.228    24125230.7644   24125237.1924
     -1124.524        -876.252
 -17534148.821 9 -13646826.75948  20391685.161    20391684.0534   20391688.6314
      2340.371        1823.666
 -22305998.951 9 -16809785.39248  21034856.191    21034855.3424   21034859.8054
      2998.289        2336.329
 96 10 16 17  6 59.9970000  0 11 17  1  9 28 26  6 23 22 21 31  3   -0.002954778
  -3277668.107 9  -2503443.49148  20068870.046    20068868.7834   20068873.2414
      -104.006         -81.044
 -17253464.181 9 -13411998.33547  22022463.031    22022461.9644   22022467.4334
      4526.017        3526.766
  -8679271.863 9  -6518925.42846  23521342.254    23521341.0964   23521346.3324
      2923.395        2277.970
  -9831504.310 9  -7647074.288 9  19717185.135    19717184.137    19717187.924
        -7.383          -5.753
   6735392.816 9   5248036.69146  23433149.413    23433148.7194   23433153.5144
     -2151.497       -1676.491
  14040420.659 8  10806420.25245  23478477.341    23478476.4834   23478483.4984
     -2765.262       -2154.750
  -5708487.554 9  -4440996.67748  19966281.656    19966280.3514   19966284.4724
       203.254         158.380
   3498012.950 8   2726073.71245  24131650.273    24131648.8754   24131655.3244
     -1124.669        -876.365
 -17604266.027 9 -13701463.53648  20378342.266    20378341.1664   20378345.7534
      2333.602        1818.391
  -2250582.74319  -1733390.76255  24205866.640    24205865.5965   24205870.4795
      4406.441        3433.590
 -22395728.831 9 -16879704.77347  21017781.225    21017780.3514   21017784.7904
      2983.069        2324.469
 96 10 16 17  7 29.9970000  0 11 17  1  9 28 26  6 23 22 21 31  3   -0.002975561
  -3274400.322 9  -2500897.18748  20069491.892    20069490.6114   20069495.0664
      -113.286         -88.275
 -17389123.113 9 -13517706.55547  21996647.955    21996646.8954   21996652.3264
      4518.707        3521.070
  -8766836.064 9  -6587157.26446  23504679.324    23504678.1614   23504683.3694
      2914.887        2271.341
  -9830995.572 9  -7646677.885 9  19717282.017    19717280.983    19717284.765
       -25.932         -20.207
   6800055.603 9   5298423.22346  23445454.511    23445453.8154   23445458.4754
     -2158.684       -1682.091
  14123415.444 8  10871091.39745  23494270.903    23494270.1004   23494277.2134
     -2766.929       -2156.048
  -5714475.102 9  -4445662.30448  19965142.319    19965140.9654   19965145.0754
       196.568         153.170
   3531783.794 8   2752388.56646  24138076.826    24138075.3414   24138081.6574
     -1126.362        -877.685
 -17674155.622 9 -13755922.95348  20365042.728    20365041.6084   20365046.2054
      2326.287        1812.691
  -2382670.805 9  -1836316.54845  24180731.262    24180730.1934   24180735.5164
      4400.027        3428.592
 -22484966.764 9 -16949240.82148  21000799.834    21000798.9834   21000803.4254
      2966.887        2311.860
 96 10 16 17  7 59.9970000  0 11 17  1  9 28 26  6 23 22 21 31  3   -0.002996350
  -3270852.036 9  -2498132.30748  20070167.114    20070165.8154   20070170.2934
      -122.943         -95.800
 -17524577.466 9 -13623255.35247  21970871.828    21970870.7414   21970876.1464
      4511.987        3515.834
  -8854151.934 9  -6655195.60546  23488063.627    23488062.3864   23488067.7504
      2906.606        2264.888
  -9829927.981 9  -7645846.007 9  19717485.189    19717484.153    19717487.950
       -44.978         -35.048
   6864928.893 9   5348973.77646  23457799.629    23457798.8874   23457803.5854
     -2165.703       -1687.561
  14206455.575 8  10935797.87945  23510073.013    23510072.2534   23510079.3824
     -2768.770       -2157.483
  -5720267.200 9  -4450175.63148  19964040.109    19964038.7684   19964042.8904
       189.911         147.983
   3565611.950 8   2778748.06746  24144514.388    24144512.7074   24144519.0234
     -1128.485        -879.339
 -17743824.511 9 -13810210.38248  20351785.206    20351784.0784   20351788.6434
      2318.440        1806.577
  -2514573.186 9  -1939097.65045  24155631.172    24155630.2134   24155635.2424
      4393.660        3423.631
 -22573723.569 9 -17018401.95748  20983909.926    20983909.0774   20983913.5624
      2950.349        2298.973
 96 10 16 17  8 29.9970000  0 11 17  1  9 28 26  6 23 22 21 31  3   -0.003017157
  -3267038.575 9  -2495160.79248  20070892.813    20070891.5504   20070895.9854
      -131.736        -102.651
 -17659854.906 9 -13728666.29347  21945129.344    21945128.2334   21945133.6414
      4506.295        3511.399
  -8941243.392 9  -6723059.07846  23471490.702    23471489.4804   23471494.7544
      2899.174        2259.097
  -9828312.842 9  -7644587.471 9  19717792.522    19717791.519    19717795.315
       -62.993         -49.085
   6929982.560 9   5399664.87946  23470178.973    23470178.2684   23470182.9444
     -2171.593       -1692.150
  14289520.742 8  11000523.87345  23525879.890    23525879.1604   23525886.2634
     -2769.121       -2157.757
  -5725882.161 9  -4454550.93348  19962971.592    19962970.2624   19962974.3774
       183.962         143.347
   3599482.259 8   2805140.42246  24150959.854    24150958.1884   24150964.4874
     -1129.874        -880.421
 -17813270.079 9 -13864323.80648  20338570.147    20338569.0254   20338573.5554
      2310.875        1800.682
  -2646309.703 9  -2041749.51845  24130562.629    24130561.5444   24130566.8414
      4388.363        3419.504
 -22662000.259 9 -17087188.98248  20967111.467    20967110.6184   20967115.0494
      2934.643        2286.735
 96 10 16 17  8 59.9960000  0 11 17  1  9 28 26  6 23 22 21 31  3   -0.003038000
  -3262950.610 9  -2491975.37748  20071670.790    20071669.5204   20071673.9334
      -140.808        -109.721
 -17794961.720 9 -13833944.28647  21919419.285    21919418.2004   21919423.6484
      4501.233        3507.454
  -9028110.050 9  -6790747.37246  23454960.602    23454959.3934   23454964.5284
      2892.246        2253.698
  -9826156.137 9  -7642906.940 9  19718202.901    19718201.911    19718205.722
       -80.708         -62.889
   6995207.772 9   5450489.66446  23482591.006    23482590.2974   23482594.9204
     -2176.742       -1696.163
  14372575.873 8  11065242.04745  23541684.860    23541684.1034   23541691.2674
     -2767.966       -2156.857
  -5731307.804 9  -4458778.71548  19961939.121    19961937.7944   19961941.9214
       177.775         138.526
   3633395.788 8   2831566.48146  24157413.411    24157411.8284   24157418.0644
     -1130.839        -881.173
 -17882488.170 9 -13918259.98148  20325398.379    20325397.2544   20325401.7734
      2304.158        1795.448
  -2777873.470 9  -2144266.74945  24105526.912    24105525.8804   24105531.0024
      4382.960        3415.294
 -22749805.749 9 -17155608.84548  20950402.732    20950401.8424   20950406.2044
      2919.425        2274.877
 96 10 16 17  9 29.9960000  0 11 17  1  9 28 26  6 23 22 21 31  3   -0.003058901
  -3258588.661 9  -2488576.47548  20072500.844    20072499.5764   20072504.0164
      -150.034        -116.910
 -17929919.536 9 -13939106.17147  21893737.588    21893736.5504   21893742.0484
      4495.983        3503.363
  -9114758.805 9  -6858265.87846  23438471.822    23438470.6414   23438475.6544
      2884.227        2247.450
  -9823461.715 9  -7640807.404 9  19718715.614    19718714.642    19718718.461
       -98.951         -77.105
   7060591.966 9   5501438.33146  23495033.205    23495032.5384   23495037.2384
     -2182.229       -1700.438
  14455600.650 8  11129936.56745  23557484.069    23557483.2754   23557490.3524
     -2767.049       -2156.142
  -5736531.544 9  -4462849.16848  19960945.099    19960943.7764   19960947.9274
       170.602         132.937
   3667340.294 8   2858016.67446  24163872.845    24163871.2474   24163877.7074
     -1132.041        -882.110
 -17951506.679 9 -13972040.63448  20312264.635    20312263.4954   20312267.9934
      2297.012        1789.879
  -2909279.863 9  -2246661.35945  24080520.944    24080519.9254   24080525.1704
      4377.351        3410.923
 -22837158.646 9 -17223676.03448  20933780.012    20933779.1304   20933783.5104
      2904.074        2262.915
 96 10 16 17  9 59.9960000  0 11 17  1  9 28 26  6 23 22 21 31  3   -0.003079863
  -3253960.836 9  -2484970.40048  20073381.429    20073380.1934   20073384.6854
      -157.948        -123.076
 -18064730.674 9 -14044153.76847  21868083.844    21868082.7724   21868088.3674
      4491.801        3500.105
  -9201179.459 9  -6925606.64446  23422026.350    23422025.2674   23422030.4014
      2877.553        2242.249
  -9820232.541 9  -7638291.180 9  19719330.134    19719329.149    19719332.967
      -115.843         -90.267
   7126119.354 9   5552498.57046  23507502.605    23507501.9804   23507506.6864
     -2185.777       -1703.203
  14538587.560 8  11194601.56445  23573276.094    23573275.2884   23573282.4954
     -2765.035       -2154.573
  -5741561.541 9  -4466768.64748  19959987.926    19959986.6164   19959990.7874
       165.278         128.788
   3701297.971 8   2884477.09346  24170334.848    24170333.2874   24170339.8354
     -1131.237        -881.483
 -18020319.340 9 -14025660.87248  20299169.975    20299168.8534   20299173.3974
      2291.023        1785.213
  -3040522.360 9  -2348928.24445  24055546.329    24055545.2354   24055550.5844
      4372.428        3407.087
 -22924059.527 9 -17291391.00148  20917243.244    20917242.4134   20917246.8464
      2889.553        2251.600
 96 10 16 17 10 29.9960000  0 11 17  1  9 28 26  6 23 22 21 31  3   -0.003100872
  -3249065.307 9  -2481155.71848  20074313.046    20074311.8224   20074316.2924
      -168.136        -131.015
 -18199383.639 9 -14149078.09647  21842460.240    21842459.1924   21842464.7384
      4485.427        3495.138
  -9287357.349 8  -6992758.23046  23405627.080    23405626.0074   23405631.2904
      2868.151        2234.923
  -9816467.004 9  -7635357.012 9  19720046.695    19720045.719    19720049.536
      -134.848        -105.076
   7191791.116 9   5603671.30446  23519999.527    23519998.9384   23520003.7214
     -2192.180       -1708.192
  14621546.138 8  11259244.50045  23589062.566    23589061.9544   23589069.1914
     -2765.201       -2154.702
  -5746396.786 9  -4470536.37548  19959067.834    19959066.5324   19959070.6834
       157.461         122.697
   3735254.908 9   2910936.94846  24176796.496    24176794.9244   24176801.6364
     -1132.444        -882.424
 -18088925.464 9 -14079120.17348  20286114.629    20286113.5324   20286118.0894
      2283.128        1779.061
  -3171581.142 9  -2451051.98546  24030606.599    24030605.5464   24030610.9454
      4365.124        3401.395
 -23010488.701 9 -17358738.40748  20900796.228    20900795.4524   20900799.9634
      2872.821        2238.562
 96 10 16 17 10 59.9960000  0 11 17  1  9 28 26  6 23 22 21 31  3   -0.003121915
  -3243906.715 9  -2477136.04448  20075294.768    20075293.5254   20075297.9634
      -177.305        -138.160
 -18333885.017 9 -14253884.32147  21816865.454    21816864.3854   21816869.9394
      4479.705        3490.679
  -9373303.270 9  -7059729.05446  23389272.173    23389271.1454   23389276.3464
      2860.072        2228.628
  -9812171.942 9  -7632010.224 9  19720863.988    19720863.018    19720866.867
      -153.050        -119.260
   7257616.059 9   5654963.39346  23532525.609    23532525.0074   23532529.8864
     -2197.626       -1712.436
  14704476.442 8  11323865.38245  23604843.730    23604843.0744   23604850.4954
     -2765.132       -2154.648
  -5751040.892 9  -4474155.16248  19958184.100    19958182.8034   19958186.9164
       150.731         117.453
   3769209.840 9   2937395.27246  24183257.850    24183256.3474   24183263.0504
     -1132.742        -882.656
 -18157345.273 9 -14132434.29948  20273094.773    20273093.6794   20273098.2374
      2276.736        1774.080
  -3302455.890 8  -2553032.30645  24005701.999    24005700.9934   24005706.2384
      4358.257        3396.044
 -23096455.913 9 -17425725.83748  20884437.232    20884436.4444   20884440.9384
      2856.745        2226.035
 96 10 16 17 11 29.9960000  0 11 17  1  9 28 26  6 23 22 21 31  3   -0.003143010
  -3238469.363 9  -2472899.16648  20076329.480    20076328.2284   20076332.6554
      -184.435        -143.716
 -18468201.503 9 -14358546.47347  21791305.796    21791304.7654   21791310.3194
      4475.446        3487.361
  -9458998.864 9  -7126504.82746  23372964.860    23372963.9204   23372969.0414
      2853.780        2223.725
  -9807326.260 9  -7628234.395 9  19721786.076    19721785.104    19721788.996
      -169.218        -131.858
   7323618.362 9   5706393.68146  23545085.329    23545084.8364   23545089.7044
     -2201.700       -1715.610
  14787420.092 8  11388496.63745  23620627.454    23620626.8004   23620634.0994
     -2763.742       -2153.565
  -5755481.181 9  -4477615.13948  19957339.150    19957337.8704   19957341.9614
       146.182         113.908
   3803183.805 9   2963868.40246  24189723.052    24189721.4834   24189728.1064
     -1131.503        -881.691
 -18225563.518 9 -14185591.36648  20260113.269    20260112.1384   20260116.6934
      2271.789        1770.225
  -3433122.075 8  -2654850.12146  23980837.023    23980835.9794   23980841.1974
      4353.517        3392.351
 -23181931.260 9 -17492330.00348  20868171.820    20868171.0214   20868175.5174
      2842.145        2214.658
 96 10 16 17 11 59.9960000  0 11 17  1  9 28 26  6 23 22 21 31  3   -0.003164118
  -3232750.258 9  -2468442.74348  20077417.769    20077416.5454   20077420.9994
      -196.104        -152.808
 -18602318.859 9 -14463053.47547  21765784.028    21765783.0684   21765788.6454
      4466.524        3480.408
  -9544446.225 9  -7193087.14646  23356704.669    23356703.7504   23356708.9214
      2843.480        2215.699
  -9801937.496 9  -7624035.378 9  19722811.504    19722810.558    19722814.468
      -189.303        -147.509
   7389801.771 9   5757965.10346  23557679.494    23557679.1474   23557684.0694
     -2209.880       -1721.984
  14870384.332 8  11453143.95145  23636415.011    23636414.5024   23636422.1474
     -2766.630       -2155.816
  -5759734.628 9  -4480929.52248  19956529.740    19956528.4774   19956532.5644
       138.069         107.586
   3837178.395 9   2990357.62146  24196192.138    24196190.6524   24196197.1264
     -1134.152        -883.755
 -18293564.933 9 -14238579.47648  20247172.955    20247171.8864   20247176.4304
      2262.323        1762.849
  -3563579.024 8  -2756504.85245  23956011.866    23956010.8114   23956015.9564
      4344.402        3385.248
 -23266893.746 9 -17558534.53748  20852003.951    20852003.1824   20852007.6644
      2822.842        2199.617
 96 10 16 17 12 29.9960000  0 11 17  1  9 28 26  6 23 22 21 31  3   -0.003185234
  -3226739.354 9  -2463758.93948  20078561.571    20078560.3734   20078564.8664
      -204.586        -159.418
 -18736235.164 9 -14567403.80947  21740300.504    21740299.5444   21740305.2244
      4461.317        3476.351
  -9629640.932 9  -7259472.59446  23340492.594    23340491.6464   23340496.9234
      2836.376        2210.163
  -9796009.694 9  -7619416.332 9  19723939.496    19723938.574    19723942.489
      -205.696        -160.282
   7456180.099 9   5809688.41146  23570310.919    23570310.5244   23570315.4204
     -2215.148       -1726.089
  14953375.762 8  11517812.47745  23652207.904    23652207.3904   23652214.6674
     -2765.933       -2155.272
  -5763807.295 9  -4484103.03848  19955754.748    19955753.4694   19955757.5974
       133.653         104.145
   3871193.499 9   3016862.81646  24202665.061    24202663.6494   24202670.0834
     -1133.283        -883.078
 -18361337.454 9 -14291389.22848  20234276.277    20234275.1824   20234279.7244
      2255.996        1757.919
  -3693836.697 8  -2858004.31345  23931224.628    23931223.6964   23931228.8584
      4339.642        3381.539
 -23351346.438 9 -17624341.82648  20835933.130    20835932.3614   20835936.8334
      2807.621        2187.757
 96 10 16 17 12 59.9960000  0 11 17  1  9 28 26  6 23 22 21 31  3   -0.003206371
  -3220440.216 9  -2458850.53648  20079760.232    20079759.0834   20079763.5744
      -215.178        -167.671
 -18869955.521 9 -14671601.44147  21714854.252    21714853.3574   21714859.1064
      4453.581        3470.323
  -9714597.375 9  -7325672.38546  23324325.815    23324324.9024   23324330.2374
      2827.471        2203.224
  -9789563.182 9  -7614393.098 9  19725166.210    19725165.321    19725169.241
      -223.846        -174.425
   7522737.128 9   5861550.96846  23582976.315    23582975.9064   23582980.7974
     -2221.897       -1731.348
  15036367.445 8  11582481.21345  23668000.782    23668000.0664   23668007.6074
     -2766.713       -2155.880
  -5767727.274 9  -4487157.57248  19955008.781    19955007.5144   19955011.6764
       127.962          99.711
   3905209.799 9   3043368.93646  24209138.082    24209136.6654   24209143.1854
     -1134.168        -883.767
 -18428892.266 9 -14344029.33948  20221420.986    20221419.9314   20221424.4464
      2247.880        1751.595
  -3823922.348 8  -2959369.73245  23906470.190    23906469.1974   23906474.3404
      4332.888        3376.276
 -23435316.978 9 -17689773.41648  20819954.095    20819953.2944   20819957.7734
      2790.603        2174.496
 96 10 16 17 13 29.9960000  0 11 17  1  9 28 26  6 23 22 21 31  3   -0.003227516
  -3213843.598 9  -2453710.33148  20081015.562    20081014.4094   20081018.8904
      -224.856        -175.212
 -19003464.004 9 -14775633.97547  21689448.404    21689447.5174   21689453.2534
      4446.594        3464.878
  -9799299.452 9  -7391673.95546  23308207.560    23308206.5984   23308211.9504
      2818.935        2196.573
  -9782596.360 9  -7608964.424 9  19726491.988    19726491.082    19726495.004
      -240.986        -187.781
   7589469.090 9   5913549.84646  23595674.973    23595674.5004   23595679.3974
     -2227.280       -1735.543
  15119359.902 8  11647150.53345  23683793.831    23683793.0204   23683800.8154
     -2766.405       -2155.640
  -5771508.361 9  -4490103.87948  19954289.277    19954288.0204   19954292.1754
       123.659          96.358
   3939223.721 9   3069873.20446  24215610.676    24215609.2554   24215616.0364
     -1133.847        -883.517
 -18496219.841 9 -14396492.37448  20208608.994    20208607.9074   20208612.4174
      2240.241        1745.642
  -3953837.167 8  -3060602.01945  23881748.297    23881747.3104   23881752.4364
      4327.539        3372.108
 -23518798.646 9 -17754824.06548  20804068.084    20804067.3044   20804071.7494
      2774.403        2161.872
 96 10 16 17 13 59.9960000  0 11 17  1  9 28 26  6 23 22 21 31  3   -0.003248666
  -3206946.102 9  -2448335.67448  20082328.119    20082326.9714   20082331.4554
      -234.643        -182.839
 -19136753.402 9 -14879495.80047  21664084.294    21664083.3304   21664089.1324
      4439.674        3459.486
  -9883729.320 9  -7457463.42546  23292141.094    23292140.1924   23292145.4884
      2809.655        2189.341
  -9775103.445 9  -7603125.810 9  19727917.869    19727916.955    19727920.872
      -258.408        -201.357
   7656374.408 9   5965683.80346  23608406.750    23608406.3434   23608411.0474
     -2232.869       -1739.898
  15202346.772 8  11711815.48645  23699585.781    23699584.7984   23699592.7274
     -2765.993       -2155.319
  -5775146.144 9  -4492938.52048  19953597.014    19953595.7724   19953599.9374
       118.883          92.636
   3973237.514 9   3096377.37546  24222083.299    24222081.8524   24222088.7724
     -1133.532        -883.272
 -18563305.733 9 -14448767.08748  20195842.965    20195841.8874   20195846.3554
      2232.447        1739.569
  -4083575.450 8  -3161696.73945  23857059.976    23857058.9804   23857063.9064
      4321.784        3367.624
 -23601787.223 9 -17819490.48548  20788275.886    20788275.0864   20788279.5234
      2758.474        2149.460
 96 10 16 17 14 29.9960000  0 11 17  1  9 28 26  6 23 22 21 31  3   -0.003269839
  -3199757.857 9  -2442734.45648  20083696.024    20083694.8544   20083699.3604
      -244.446        -190.477
 -19269843.293 9 -14983202.16347  21638758.067    21638757.1314   21638762.9764
      4432.968        3454.261
  -9967881.492 9  -7523036.50146  23276127.403    23276126.4184   23276131.7844
      2800.578        2182.269
  -9767087.011 9  -7596879.253 9  19729443.347    19729442.460    19729446.357
      -275.938        -215.017
   7723450.062 9   6017950.48246  23621170.995    23621170.5454   23621175.2154
     -2238.555       -1744.329
  15285317.065 8  11776467.54645  23715374.558    23715373.7624   23715381.2744
     -2765.171       -2154.679
  -5778629.123 9  -4495652.53448  19952934.197    19952932.9784   19952937.1474
       113.339          88.316
   4007239.408 9   3122872.28746  24228553.754    24228552.3334   24228559.1364
     -1133.152        -882.976
 -18630173.519 9 -14500871.84648  20183118.391    20183117.3414   20183121.8044
      2225.675        1734.292
  -4213144.283 8  -3262659.44245  23832403.953    23832402.7974   23832407.8534
      4316.109        3363.202
 -23684301.953 9 -17883787.68048  20772573.825    20772573.0454   20772577.4614
      2742.516        2137.025
 96 10 16 17 14 59.9960000  0 11 17  1  9 28 26  6 23 22 21 31  3   -0.003291054
  -3192295.975 9  -2436920.01648  20085115.962    20085114.8294   20085119.3404
      -252.958        -197.110
 -19402745.457 9 -15086762.24847  21613467.607    21613466.7124   21613472.4974
      4427.159        3449.734
 -10051777.022 9  -7588409.59846  23260162.400    23260161.5744   23260166.9344
      2792.383        2175.883
  -9758560.179 9  -7590234.987 9  19731065.988    19731065.074    19731068.986
      -292.578        -227.983
   7790669.991 9   6070329.57546  23633962.636    23633962.1564   23633966.8834
     -2242.795       -1747.632
  15368238.135 8  11841081.22445  23731154.126    23731153.2914   23731161.1934
     -2762.914       -2152.920
  -5781956.766 9  -4498245.50148  19952300.976    19952299.7854   19952303.9434
       108.445          84.502
   4041214.618 9   3149346.41646  24235019.130    24235017.7494   24235024.3934
     -1131.837        -881.951
 -18696866.209 9 -14552840.17348  20170427.106    20170426.1014   20170430.5854
      2220.429        1730.204
  -4342552.579 8  -3363497.05345  23807778.253    23807777.1794   23807782.0734
      4310.871        3359.120
 -23766349.898 9 -17947721.14148  20756960.593    20756959.8164   20756964.2454
      2727.247        2125.128
 96 10 16 17 15 29.9960000  0 11 17  1  9 28 26  6 23 22 21 31  3   -0.003312315
  -3184584.420 9  -2430911.02848  20086583.476    20086582.3354   20086586.8394
      -261.461        -203.736
 -19535473.760 9 -15190186.86047  21588210.220    21588209.3524   21588215.1254
      4421.073        3444.992
 -10135406.771 9  -7653575.59346  23244248.193    23244247.3894   23244252.7314
      2782.695        2168.334
  -9749531.989 9  -7583200.055 9  19732784.013    19732783.103    19732787.023
      -309.608        -241.253
   7858017.871 9   6122808.38946  23646778.583    23646778.1134   23646782.8014
     -2247.210       -1751.073
  15451090.553 8  11905641.42245  23746920.705    23746920.0424   23746927.7234
     -2760.890       -2151.343
  -5785127.596 9  -4500716.28148  19951697.620    19951696.4124   19951700.5954
       102.549          79.908
   4075143.008 9   3175784.06246  24241475.559    24241474.2164   24241480.8254
     -1130.384        -880.819
 -18763400.359 9 -14604684.95848  20157766.085    20157765.0624   20157769.5704
      2214.810        1725.826
  -4471803.091 8  -3464211.69945  23783182.615    23783181.4404   23783186.4314
      4305.319        3354.794
 -23847933.138 9 -18011292.49448  20741435.802    20741435.0354   20741439.4964
      2711.264        2112.673
 96 10 16 17 15 59.9960000  0 11 17  1  9 28 26  6 23 22 21 31  3   -0.003333620
  -3176612.817 9  -2424699.40348  20088100.433    20088099.3054   20088103.8204
      -270.029        -210.412
 -19668021.505 9 -15293470.77747  21562987.225    21562986.3534   21562992.0964
      4415.389        3440.563
 -10218741.683 9  -7718511.85146  23228390.047    23228389.2304   23228394.6624
      2773.060        2160.826
  -9739991.310 9  -7575765.782 9  19734599.541    19734598.644    19734602.591
      -326.454        -254.380
   7925499.177 9   6175391.15746  23659619.823    23659619.3544   23659624.1454
     -2251.641       -1754.525
  15533879.119 8  11970151.87845  23762675.012    23762674.1974   23762681.8774
     -2758.548       -2149.518
  -5788112.122 9  -4503041.88948  19951129.673    19951128.4744   19951132.6604
        96.395          75.113
   4109025.607 9   3202186.03346  24247923.283    24247921.9584   24247928.6404
     -1128.485        -879.339
 -18829766.208 9 -14656398.60448  20145137.071    20145136.0454   20145140.5414
      2209.549        1721.726
  -4600878.036 8  -3564789.55745  23758620.482    23758619.2914   23758624.0514
      4299.467        3350.234
 -23929036.441 9 -18074489.87248  20726002.372    20726001.6044   20726006.0684
      2695.615        2100.479
 96 10 16 17 16 29.9960000  0 11 17  1  9 28 26  6 23 22 21 31  3   -0.003354971
  -3168381.804 9  -2418285.64548  20089666.716    20089665.5924   20089670.1584
      -279.075        -217.461
 -19800388.044 9 -15396613.49547  21537798.747    21537797.8494   21537803.5744
      4408.577        3435.255
 -10301793.055 9  -7783227.16346  23212585.924    23212584.9984   23212590.3774
      2763.433        2153.324
  -9729944.156 9  -7567936.851 9  19736511.482    19736510.596    19736514.527
      -343.701        -267.819
   7993113.403 9   6228077.50746  23672486.451    23672485.9694   23672490.7694
     -2256.148       -1758.037
  15616607.214 8  12034615.23245  23778417.905    23778416.9044   23778424.4854
     -2756.957       -2148.278
  -5790916.214 9  -4505226.89748  19950596.115    19950594.9274   19950599.0794
        90.434          70.468
   4142859.099 9   3228549.72946  24254361.532    24254360.3124   24254367.1224
     -1127.479        -878.555
 -18895973.655 9 -14707988.82048  20132538.191    20132537.1934   20132541.6934
      2203.822        1717.264
  -4729770.561 8  -3665225.27245  23734093.101    23734091.8854   23734096.4854
      4292.806        3345.044
 -24009663.010 9 -18137315.76948  20710659.599    20710658.8824   20710663.3604
      2679.103        2087.613
 96 10 16 17 16 59.9960000  0 11 17  1  9 28 26  6 23 22 21 31  3   -0.003376355
  -3159890.544 9  -2411669.09348  20091282.559    20091281.4424   20091285.9694
      -287.992        -224.409
 -19932557.418 9 -15499602.57347  21512647.696    21512646.8314   21512652.5184
      4401.761        3429.944
 -10384556.989 9  -7847718.50346  23196836.473    23196835.6384   23196840.9674
      2753.119        2145.287
  -9719392.159 9  -7559714.533 9  19738519.469    19738518.592    19738522.514
      -360.740        -281.096
   8060842.580 9   6280853.41246  23685374.853    23685374.4924   23685379.2204
     -2260.092       -1761.111
  15699277.785 8  12099033.74545  23794149.788    23794148.7004   23794156.3894
     -2755.507       -2147.148
  -5793567.906 9  -4507293.15048  19950091.527    19950090.3474   19950094.4924
        85.383          66.532
   4176653.930 9   3254883.28645  24260792.471    24260791.2664   24260798.0564
     -1126.464        -877.764
 -18962009.343 9 -14759445.19948  20119972.016    20119971.0054   20119975.5314
      2197.473        1712.317
  -4858466.514 8  -3765507.81545  23709602.922    23709601.8644   23709606.2394
      4285.755        3339.549
 -24089803.431 9 -18199762.84348  20695409.407    20695408.6904   20695413.1194
      2662.569        2074.729
 96 10 16 17 17 29.9960000  0 11 17  1  9 28 26  6 23 22 21 31  3   -0.003397756
  -3151119.958 9  -2404834.89048  20092951.573    20092950.4644   20092954.9254
      -297.450        -231.779
 -20064509.102 9 -15602422.03547  21487538.153    21487537.2654   21487542.9024
      4394.353        3424.171
 -10466998.423 9  -7911958.55146  23181148.399    23181147.5274   23181152.9404
      2742.717        2137.182
  -9708317.271 9  -7551084.775 9  19740626.967    19740626.096    19740630.028
      -378.169        -294.677
   8128700.770 9   6333729.84846  23698287.833    23698287.4834   23698292.3124
     -2264.360       -1764.436
  15781930.144 8  12163438.04545  23809878.002    23809876.9434   23809884.6454
     -2755.237       -2146.938
  -5796056.459 9  -4509232.28848  19949617.953    19949616.8024   19949620.9394
        79.913          62.270
   4210429.740 9   3281202.03645  24267219.866    24267218.5464   24267225.2854
     -1125.974        -877.382
 -19027840.948 9 -14810742.55348  20107444.627    20107443.6584   20107448.1764
      2190.675        1707.019
  -4986932.800 8  -3865611.41345  23685156.647    23685155.5264   23685159.8834
      4277.953        3333.470
 -24169435.820 9 -18261814.05348  20680255.877    20680255.1704   20680259.6174
      2645.601        2061.507
 96 10 16 17 17 59.9960000  0 11 17  1  9 28 26  6 23 22 21 31  3   -0.003419186
  -3142066.877 9  -2397780.55948  20094674.347    20094673.2484   20094677.6644
      -306.594        -238.904
 -20196244.515 9 -15705072.97347  21462469.698    21462468.8234   21462474.3704
      4387.300        3418.675
 -10549161.352 9  -7975981.57946  23165513.265    23165512.4974   23165517.8594
      2734.331        2130.648
  -9696729.313 9  -7542055.219 9  19742832.099    19742831.231    19742835.183
      -394.944        -307.749
   8196681.260 9   6386701.60446  23711224.230    23711223.8184   23711228.7324
     -2268.284       -1767.494
  15864565.590 8  12227829.20345  23825603.073    23825601.8184   23825610.0304
     -2754.430       -2146.309
  -5798399.240 9  -4511057.83848  19949172.180    19949170.9974   19949175.1684
        75.712          58.996
   4244192.809 9   3307510.89245  24273644.882    24273643.4694   24273650.1254
     -1125.523        -877.031
 -19093480.354 9 -14861890.13948  20094953.870    20094952.8834   20094957.4134
      2184.669        1702.339
  -5115166.423 8  -3965533.71545  23660754.471    23660753.5694   23660757.8544
      4270.259        3327.475
 -24248570.192 9 -18323477.20148  20665197.117    20665196.4094   20665200.8914
      2629.377        2048.865
 96 10 16 17 18 29.9960000  0 11 17  1  9 28 26  6 23 22 21 31  3   -0.003440641
  -3132736.049 9  -2390509.80448  20096449.972    20096448.8984   20096453.3244
      -315.123        -245.550
 -20327754.508 9 -15807548.25447  21437444.142    21437443.2474   21437448.8234
      4380.548        3413.414
 -10631069.204 9  -8039805.85646  23149926.691    23149925.9384   23149931.2624
      2726.468        2124.521
  -9684631.701 9  -7532628.531 9  19745134.235    19745133.347    19745137.319
      -411.176        -320.397
   8264780.854 9   6439766.14446  23724183.266    23724182.8514   23724187.7304
     -2271.211       -1769.775
  15947178.842 8  12292203.04245  23841324.019    23841322.9624   23841331.1304
     -2752.619       -2144.898
  -5800619.557 9  -4512787.96348  19948749.687    19948748.4924   19948752.6894
        72.710          56.657
   4277952.317 9   3333816.94345  24280069.276    24280067.8974   24280074.4944
     -1124.637        -876.341
 -19158931.291 9 -14912890.86248  20082498.980    20082498.0114   20082502.5244
      2179.182        1698.064
  -5243160.447 8  -4065269.31745  23636397.885    23636396.9094   23636401.3654
      4263.082        3321.882
 -24327206.356 9 -18384752.13448  20650233.135    20650232.4404   20650236.9304
      2613.389        2036.407
 96 10 16 17 18 59.9960000  0 11 17  1  9 28 26  6 23 22 21 31  3   -0.003462129
  -3123127.780 9  -2383022.86248  20098278.410    20098277.3194   20098281.7814
      -325.348        -253.518
 -20459055.262 9 -15909860.48747  21412458.392    21412457.4994   21412463.0814
      4372.767        3407.351
 -10712717.772 9  -8103428.08946  23134389.442    23134388.7204   23134394.0274
      2716.851        2117.027
  -9672032.899 9  -7522811.303 9  19747531.700    19747530.821    19747534.826
      -428.692        -334.046
   8332990.240 8   6492916.24746  23737163.080    23737162.7404   23737167.7324
     -2276.135       -1773.612
  16029750.667 8  12356544.59045  23857037.011    23857036.0014   23857044.2294
     -2751.949       -2144.376
  -5802726.649 9  -4514429.85348  19948348.740    19948347.5444   19948351.7544
        67.642          52.708
   4311683.499 9   3360100.97945  24286488.271    24286486.7254   24286493.3484
     -1124.013        -875.854
 -19224201.878 9 -14963751.05148  20070078.401    20070077.4314   20070081.9334
      2172.269        1692.677
  -5370921.622 9  -4164823.46145  23612085.778    23612084.5864   23612089.4234
      4254.432        3315.142
 -24405346.828 9 -18445640.81048  20635363.537    20635362.8464   20635367.3124
      2595.912        2022.789
 96 10 16 17 19 29.9960000  0 11 17  1  9 28 26  6 23 22 21 31  3   -0.003483642
  -3113231.024 9  -2375311.12448  20100161.715    20100160.6534   20100165.1084
      -334.619        -260.742
 -20590128.784 9 -16011995.64847  21387515.888    21387514.9844   21387520.5984
      4365.343        3401.566
 -10794103.865 9  -8166845.79446  23118902.222    23118901.4774   23118906.8674
      2708.710        2110.683
  -9658922.015 9  -7512595.051 9  19750026.640    19750025.780    19750029.781
      -445.480        -347.127
   8401337.795 8   6546173.98946  23750169.213    23750168.8174   23750173.9244
     -2280.541       -1777.045
  16112277.794 8  12420851.30645  23872741.577    23872740.6324   23872748.7374
     -2749.847       -2142.738
  -5804691.236 9  -4515960.70748  19947974.873    19947973.6944   19947977.8744
        63.204          49.250
   4345377.953 9   3386356.39345  24292900.116    24292898.5234   24292905.4424
     -1122.487        -874.665
 -19289279.367 9 -15014460.77748  20057694.561    20057693.5974   20057698.1094
      2166.018        1687.806
  -5498444.690 9  -4264192.09845  23587819.001    23587817.9814   23587822.5374
      4246.837        3309.224
 -24482977.223 9 -18506132.02648  20620591.008    20620590.3014   20620594.6954
      2579.275        2009.825
 96 10 16 17 19 59.9960000  0 11 17  1  9 28 26  6 23 22 21 31  3   -0.003505175
  -3103034.914 9  -2367366.12148  20102102.023    20102100.9444   20102105.3854
      -345.188        -268.978
 -20720964.191 9 -16113945.27447  21362618.746    21362617.8664   21362623.4414
      4356.887        3394.977
 -10875220.068 9  -8230053.21146  23103466.284    23103465.5394   23103471.0324
      2698.554        2102.769
  -9645287.911 9  -7501971.094 9  19752621.178    19752620.305    19752624.308
      -463.624        -361.265
   8469838.699 8   6599551.23646  23763204.608    23763204.0614   23763209.2614
     -2286.240       -1781.486
  16194760.752 8  12485123.60245  23888437.595    23888436.8394   23888444.6944
     -2749.179       -2142.217
  -5806507.175 9  -4517375.73648  19947629.314    19947628.1444   19947632.3014
        57.559          44.851
   4379043.861 8   3412589.55045  24299306.518    24299305.1054   24299311.5854
     -1122.129        -874.386
 -19354139.657 9 -15065001.26048  20045352.104    20045351.0964   20045355.6014
      2157.816        1681.415
  -5625721.622 9  -4363368.91545  23563599.029    23563597.9464   23563602.5604
      4238.030        3302.361
 -24560086.818 9 -18566217.42648  20605917.567    20605916.8494   20605921.2334
      2561.172        1995.718
 96 10 16 17 20 29.9960000  0 11 17  1  9 28 26  6 23 22 21 31  3   -0.003526729
  -3092543.182 9  -2359190.76248  20104098.567    20104097.4964   20104101.8954
      -354.285        -276.066
 -20851569.917 9 -16215715.93047  21337765.365    21337764.4704   21337769.9324
      4350.222        3389.783
 -10956035.619 9  -8293026.35546  23088087.587    23088086.8874   23088092.3764
      2689.161        2095.450
  -9631131.340 9  -7490940.018 9  19755315.132    19755314.235    19755318.245
      -480.060        -374.073
   8538486.454 8   6653042.90246  23776268.001    23776267.3574   23776272.6434
     -2290.196       -1784.568
  16277201.751 8  12549363.21745  23904125.724    23904125.2194   23904132.7074
     -2746.855       -2140.406
  -5808164.385 9  -4518667.07648  19947314.000    19947312.8414   19947316.9674
        52.863          41.192
   4412673.608 8   3438794.53845  24305706.105    24305704.6754   24305710.8764
     -1119.791        -872.564
 -19418772.275 9 -15115364.33148  20033052.892    20033051.9054   20033056.4284
      2151.062        1676.152
  -5752756.833 9  -4462357.38845  23539425.071    23539423.7164   23539428.6244
      4230.956        3296.849
 -24636673.920 9 -18625895.68348  20591343.542    20591342.7924   20591347.2264
      2544.625        1982.825
 96 10 16 17 20 59.9960000  0 11 17  1  9 28 26  6 23 22 21 31  3   -0.003548305
  -3081749.419 9  -2350780.05548  20106152.585    20106151.4994   20106155.9384
      -364.877        -284.320
 -20981942.470 9 -16317304.89147  21312956.299    21312955.4014   21312960.8384
      4341.382        3382.895
 -11036532.472 9  -8355751.15646  23072769.612    23072768.8294   23072774.2774
      2677.599        2086.441
  -9616452.564 9  -7479502.031 9  19758108.443    19758107.554    19758111.568
      -498.177        -388.190
   8607280.734 8   6706648.75046  23789359.296    23789358.5544   23789363.8914
     -2295.679       -1788.841
  16359604.139 8  12613572.74245  23919806.523    23919806.1664   23919813.7044
     -2746.390       -2140.044
  -5809640.139 9  -4519817.02148  19947033.219    19947032.0364   19947036.1534
        45.903          35.769
   4446262.896 8   3464967.95945  24312098.047    24312096.3164   24312102.9614
     -1119.399        -872.259
 -19483171.258 9 -15165545.35348  20020798.197    20020797.1694   20020801.7024
      2142.478        1669.463
  -5879553.055 9  -4561159.64745  23515296.679    23515295.4544   23515300.0424
      4222.430        3290.205
 -24712730.843 9 -18685160.82148  20576870.408    20576869.6464   20576874.0754
      2526.174        1968.447
 96 10 16 17 21 29.9960000  0 10 17  1  9 28 26  6 23 21 31  3      -0.003569915
  -3070660.638 9  -2342139.47048  20108262.750    20108261.6494   20108266.1394
      -374.258        -291.630
 -21112056.220 9 -16418692.19347  21288196.455    21288195.5484   21288200.9704
      4333.116        3376.454
 -11116697.232 9  -8418217.17546  23057514.737    23057513.8944   23057519.3454
      2666.802        2078.028
  -9601246.273 9  -7467652.992 9  19761002.165    19761001.259    19761005.267
      -515.338        -401.562
   8676217.387 9   6760365.54546  23802477.643    23802476.8554   23802482.1404
     -2299.745       -1792.009
  16441975.977 8  12677758.46045  23935481.354    23935480.7934   23935488.4584
     -2744.986       -2138.950
  -5810928.252 9  -4520820.75348  19946788.121    19946786.9484   19946791.0494
        40.181          31.310
 -19547330.205 9 -15215539.32648  20008589.159    20008588.1484   20008592.6624
      2134.961        1663.606
  -6006103.705 9  -4659770.53645  23491215.047    23491213.8224   23491218.1664
      4214.232        3283.817
 -24788257.909 9 -18744013.07648  20562498.137    20562497.3564   20562501.7424
      2509.182        1955.207
 96 10 16 17 21 59.9960000  0 10 17  1  9 28 26  6 23 21 31  3      -0.003591546
  -3059282.906 9  -2333273.72348  20110427.910    20110426.7634   20110431.3214
      -383.578        -298.892
 -21241916.847 9 -16519882.26047  21263484.797    21263483.8804   21263489.2524
      4324.924        3370.071
 -11196527.705 9  -8480422.71546  23042323.450    23042322.6114   23042328.0434
      2655.851        2069.494
  -9585525.315 9  -7455402.914 9  19763993.821    19763992.902    19763996.908
      -532.060        -414.592
   8745272.897 9   6814174.95746  23815618.641    23815617.8434   23815622.9714
     -2303.294       -1794.774
  16524310.910 8  12741915.41945  23951149.364    23951148.8924   23951156.3844
     -2743.293       -2137.631
  -5812036.778 9  -4521684.54648  19946577.196    19946576.0094   19946580.0944
        34.469          26.859
 -19611264.843 9 -15265358.51848  19996422.843    19996421.8154   19996426.3294
      2128.052        1658.222
  -6132401.253 9  -4758184.21045  23467181.518    23467180.0384   23467184.7244
      4206.201        3277.559
 -24863272.299 9 -18802465.84848  20548223.380    20548222.6014   20548226.9474
      2492.454        1942.172
 96 10 16 17 22 29.9960000  0 10 17  1  9 28 26  6 23 21 31  3      -0.003613195
  -3047618.342 9  -2324184.47648  20112647.618    20112646.4884   20112651.0264
      -393.326        -306.488
 -21371519.234 9 -16620871.10147  21238822.210    21238821.3204   21238826.7294
      4315.901        3363.040
 -11276018.986 9  -8542363.96146  23027196.660    23027195.8884   23027201.2944
      2644.389        2060.563
  -9569299.608 9  -7442759.527 9  19767081.493    19767080.568    19767084.582
      -548.943        -427.748
   8814440.618 8   6868071.81246  23828780.855    23828780.0804   23828785.0944
     -2307.169       -1797.794
  16606591.112 7  12806029.77945  23966806.888    23966806.3074   23966813.5454
     -2741.246       -2136.036
  -5812973.510 9  -4522414.47548  19946398.978    19946397.7624   19946401.8484
        28.840          22.473
 -19674993.625 9 -15315017.30548  19984295.709    19984294.6624   19984299.1484
      2121.330        1652.984
  -6258451.741 9  -4856405.35645  23443194.831    23443193.3194   23443198.1634
      4197.843        3271.046
 -24937776.858 9 -18860521.35448  20534045.563    20534044.8164   20534049.1994
      2475.155        1928.692
 96 10 16 17 22 59.9960000  0  9 17  1  9 28 26 23 21 31  3         -0.003634856
  -3035672.290 9  -2314875.88048  20114920.884    20114919.7614   20114924.2864
      -402.785        -313.858
 -21500855.404 9 -16721652.49847  21214210.277    21214209.4004   21214214.8514
      4306.840        3355.979
 -11355175.200 9  -8604044.09646  23012133.850    23012133.0044   23012138.4074
      2633.014        2051.699
  -9552574.726 9  -7429727.173 9  19770264.140    19770263.229    19770267.264
      -565.742        -440.838
   8883715.251 9   6922051.95846  23841963.414    23841962.5604   23841967.5944
     -2310.820       -1800.639
  -5813754.532 9  -4523023.07748  19946250.362    19946249.1764   19946253.2484
        23.522          18.329
 -19738530.797 9 -15364526.78148  19972204.964    19972203.9444   19972208.4504
      2114.864        1647.946
  -6384255.475 9  -4954434.23245  23419255.212    23419253.9274   23419258.5204
      4189.324        3264.408
 -25011769.637 9 -18918178.07148  20519965.169    20519964.4564   20519968.8554
      2458.115        1915.414
 96 10 16 17 23 29.9960000  0  9 17  1  9 28 26 23 21 31  3         -0.003656533
  -3023431.965 9  -2305337.97948  20117250.109    20117249.0194   20117253.5794
      -413.311        -322.060
 -21629924.463 9 -16822225.75647  21189649.260    21189648.3944   21189653.7974
      4297.883        3349.000
 -11433998.802 9  -8665465.05546  22997134.294    22997133.3594   22997138.8084
      2621.992        2043.111
  -9535345.107 9  -7416301.519 9  19773542.815    19773541.932    19773545.987
      -582.875        -454.188
   8953099.466 9   6976117.49546  23855166.787    23855166.0034   23855171.0204
     -2314.810       -1803.748
  -5814375.065 9  -4523506.61348  19946132.312    19946131.1284   19946135.2044
        17.886          13.937
 -19801876.829 9 -15413887.32448  19960150.575    19960149.5864   19960154.1224
      2108.179        1642.737
  -6509797.118 9  -5052258.90045  23395365.539    23395364.3514   23395368.8714
      4180.096        3257.218
 -25085259.804 9 -18975443.13948  20505980.526    20505979.7824   20505984.1794
      2441.032        1902.103
 96 10 16 17 23 59.9960000  0  9 17  1  9 28 26 23 21 31  3         -0.003678247
  -3010896.215 9  -2295569.88848  20119635.603    20119634.4984   20119639.1254
      -422.780        -329.439
 -21758759.163 9 -16922616.39547  21165132.926    21165132.0184   21165137.3344
      4290.583        3343.311
 -11512525.618 9  -8726654.74546  22982191.113    22982190.2474   22982195.6794
      2612.657        2035.837
  -9517630.705 9  -7402498.110 9  19776913.791    19776912.898    19776916.958
      -598.586        -466.431
   9022577.088 9   7030255.82046  23868387.952    23868387.2694   23868392.2054
     -2317.564       -1805.894
  -5814857.620 9  -4523882.63948  19946040.549    19946039.3454   19946043.4044
        13.894          10.826
 -19865050.797 9 -15463113.78348  19948128.967    19948127.9684   19948132.5274
      2102.833        1638.571
  -6635099.942 9  -5149897.43245  23371521.266    23371520.1834   23371524.6004
      4173.031        3251.712
 -25158248.635 9 -19032317.55548  20492091.290    20492090.5384   20492094.9044
      2424.352        1889.105
 96 10 16 17 24 29.9960000  0  9 17  1  9 28 26 23 21 31  3         -0.003699989
  -2998038.242 9  -2285550.70848  20122082.449    20122081.3344   20122085.9864
      -434.435        -338.521
 -21887337.562 9 -17022807.32047  21140665.290    21140664.3624   21140669.6524
      4281.070        3335.899
 -11590734.768 9  -8787596.91546  22967308.418    22967307.5474   22967312.9614
      2601.298        2026.985
  -9499404.783 9  -7388296.110 9  19780382.115    19780381.202    19780385.247
      -616.551        -480.429
   9092179.374 9   7084491.29846  23881632.875    23881632.2454   23881637.2084
     -2322.605       -1809.822
  -5815181.862 9  -4524135.30248  19945978.847    19945977.6664   19945981.7094
         7.529           5.867
 -19928019.588 9 -15512180.36048  19936146.405    19936145.4204   19936149.9614
      2094.983        1632.454
  -6760157.442 9  -5247344.82945  23347723.598    23347722.5874   23347727.1234
      4163.877        3244.579
 -25230693.533 9 -19088768.13148  20478305.475    20478304.7034   20478309.1024
      2405.273        1874.239
 96 10 16 17 24 59.9960000  0  9 17  1  9 28 26 23 21 31  3         -0.003721761
  -2984849.230 9  -2275273.57948  20124592.285    20124591.1644   20124595.8244
      -444.880        -346.660
 -22015642.516 9 -17122785.17647  21116249.588    21116248.6814   21116253.9704
      4272.497        3329.218
 -11668626.407 9  -8848291.65746  22952486.046    22952485.2364   22952490.6284
      2591.362        2019.243
  -9480654.794 9  -7373685.753 9  19783950.125    19783949.222    19783953.271
      -633.496        -493.633
   9161913.934 9   7138829.82446  23894903.060    23894902.3304   23894907.3074
     -2326.340       -1812.732
  -5815324.166 9  -4524246.19848  19945951.779    19945950.5984   19945954.6664
         1.903           1.483
 -19990766.842 9 -15561074.31948  19924206.005    19924205.0084   19924209.5414
      2088.021        1627.029
  -6884948.230 9  -5344584.37945  23323976.620    23323975.5054   23323980.1404
      4155.302        3237.898
 -25302588.571 9 -19144790.24248  20464624.275    20464623.5024   20464627.9284
      2387.637        1860.496
 96 10 16 17 25 29.9960000  0  9 17  1  9 28 26 23 21 31  3         -0.003743565
  -2971339.369 9  -2264746.43248  20127163.191    20127162.0344   20127166.7134
      -455.678        -355.074
 -22143677.543 9 -17222552.68947  21091885.275    21091884.3654   21091889.6554
      4263.011        3321.827
 -11746211.209 9  -8908747.31046  22937722.125    22937721.3494   22937726.6664
      2580.800        2011.013
  -9461392.226 9  -7358675.975 9  19787615.656    19787614.773    19787618.845
      -650.688        -507.030
   9231767.339 8   7193260.97046  23908195.855    23908195.0104   23908199.9094
     -2330.554       -1816.016
  -5815301.406 9  -4524228.47048  19945956.098    19945954.9144   19945959.0104
        -3.368          -2.624
 -20053291.297 9 -15609794.66348  19912307.981    19912307.0044   19912311.5474
      2080.180        1620.919
  -7009474.610 9  -5441617.89145  23300279.923    23300279.0224   23300283.6574
      4146.286        3230.872
 -25373935.511 9 -19200385.26648  20451047.414    20451046.6694   20451051.1164
      2368.638        1845.692
 96 10 16 17 25 59.9960000  0  9 17  1  9 28 26 23 21 31  3         -0.003765392
  -2957532.203 9  -2253987.62048  20129790.600    20129789.4294   20129794.1634
      -464.599        -362.025
 -22271435.896 9 -17322104.62047  21067573.583    21067572.6854   21067577.9944
      4254.218        3314.975
 -11823476.424 9  -8968953.93346  22923019.076    22923018.3074   22923023.6184
      2570.200        2002.753
  -9441629.587 9  -7343276.538 9  19791376.341    19791375.478    19791379.594
      -666.727        -519.528
   9301731.806 8   7247778.64646  23921509.650    23921508.8704   23921513.8514
     -2333.654       -1818.432
  -5815137.720 9  -4524100.93248  19945987.260    19945986.0864   19945990.1764
        -7.561          -5.892
 -20115590.205 9 -15658339.26448  19900452.910    19900451.9224   19900456.4564
      2073.217        1615.494
  -7133742.663 9  -5538450.10945  23276632.331    23276631.4454   23276636.2604
      4138.161        3224.541
 -25444721.529 9 -19255543.20948  20437577.295    20437576.5564   20437581.0294
      2350.677        1831.696
 96 10 16 17 26 29.9960000  0  9 17  1  9 28 26 23 21 31  3         -0.003787237
  -2943447.380 9  -2243012.45148  20132470.866    20132469.6914   20132474.4404
      -474.002        -369.352
 -22398912.292 9 -17421436.83247  21043315.615    21043314.7334   21043320.0694
      4244.639        3307.511
 -11900401.477 9  -9028895.51546  22908380.676    22908379.9264   22908385.1454
      2558.384        1993.546
  -9421373.590 9  -7327492.664 9  19795230.937    19795230.074    19795234.214
      -683.368        -532.495
   9371799.162 8   7302376.50846  23934843.024    23934842.4914   23934847.4104
     -2337.074       -1821.097
  -5814826.202 9  -4523858.19748  19946046.569    19946045.3914   19946049.4954
       -12.892         -10.046
 -20177666.611 9 -15706710.48548  19888640.194    19888639.1914   19888643.6874
      2065.624        1609.577
  -7257736.894 9  -5635068.94145  23253037.013    23253036.1064   23253040.8734
      4128.062        3216.672
 -25514964.311 9 -19310277.84148  20424210.509    20424209.7984   20424214.2764
      2332.512        1817.542
 96 10 16 17 26 59.9960000  0  9 17  1  9 28 26 23 21 31  3         -0.003809091
  -2929102.126 9  -2231834.34648  20135200.641    20135199.4954   20135204.2714
      -482.379        -375.880
 -22526124.392 9 -17520563.10847  21019107.977    21019107.0754   21019112.4174
      4236.249        3300.973
 -11976977.257 9  -9088564.93546  22893808.458    22893807.7954   22893813.0814
      2546.681        1984.427
  -9400634.917 9  -7311332.683 9  19799177.382    19799176.530    19799180.681
      -699.212        -544.841
   9441941.474 8   7357032.76146  23948190.623    23948190.1504   23948195.1494
     -2339.148       -1822.713
  -5814377.955 9  -4523508.92348  19946131.869    19946130.7134   19946134.8064
       -16.980         -13.231
 -20239534.807 9 -15754919.46648  19876867.042    19876866.0574   19876870.5964
      2058.868        1604.313
  -7381429.855 9  -5731453.02545  23229498.962    23229497.9934   23229502.7734
      4118.231        3209.011
 -25584673.226 9 -19364596.47748  20410945.361    20410944.6434   20410949.0874
      2314.647        1803.621
 96 10 16 17 27 29.9960000  0  9 17  1  9 28 26 23 21 31  3         -0.003830945
  -2914489.621 9  -2220448.00148  20137981.286    20137980.1504   20137984.9854
      -491.858        -383.266
 -22653072.698 9 -17619483.81747  20994950.536    20994949.6304   20994954.9334
      4226.853        3293.652
 -12053178.580 9  -9147942.55746  22879307.765    22879307.0644   22879312.3284
      2533.510        1974.164
  -9379407.137 9  -7294791.571 9  19803216.859    19803216.045    19803220.207
      -716.005        -557.926
   9512162.641 8   7411750.46546  23961553.269    23961552.8544   23961557.9544
     -2342.304       -1825.172
  -5813793.787 9  -4523053.73648  19946243.058    19946241.9024   19946245.9974
       -22.126         -17.241
 -20301183.181 9 -15802957.15448  19865135.773    19865134.7894   19865139.3494
      2051.095        1598.256
  -7504824.441 9  -5827604.60745  23206017.767    23206016.7184   23206021.3364
      4108.051        3201.079
 -25653823.471 9 -19418479.79048  20397786.490    20397785.7794   20397790.2364
      2295.468        1788.676
 96 10 16 17 27 59.9960000  0  9 17  1  9 28 26 23 21 31  3         -0.003852807
  -2899599.240 9  -2208845.12248  20140814.857    20140813.7094   20140818.5764
      -501.328        -390.645
 -22779748.212 9 -17718191.97747  20970844.982    20970844.0644   20970849.3574
      4217.824        3286.616
 -12128995.887 9  -9207020.97345  22864880.222    22864879.4784   22864884.6784
      2520.816        1964.272
  -9357683.468 9  -7277864.059 9  19807350.751    19807349.941    19807354.106
      -732.621        -570.874
   9582471.943 8   7466536.84345  23974932.753    23974932.2914   23974937.3134
     -2345.282       -1827.492
  -5813052.312 9  -4522475.97348  19946384.125    19946382.9964   19946387.1084
       -27.714         -21.595
 -20362613.247 9 -15850824.73548  19853446.020    19853445.0264   19853449.6104
      2043.829        1592.594
  -7627922.720 9  -5923525.31746  23182592.892    23182591.9054   23182596.5284
      4098.275        3193.461
 -25722419.067 9 -19471930.90548  20384733.146    20384732.4484   20384736.9514
      2277.192        1774.435
 96 10 16 17 28 29.9960000  0  9 17  1  9 28 26 23 21 31  3         -0.003874692
  -2884427.214 9  -2197022.78648  20143701.983    20143700.8414   20143705.7214
      -510.562        -397.841
 -22906157.275 9 -17816692.51047  20946790.056    20946789.1584   20946794.4744
      4208.971        3279.718
 -12204447.221 8  -9265814.19745  22850522.286    22850521.5234   22850526.7474
      2508.938        1955.017
  -9335467.461 9  -7260552.908 9  19811578.347    19811577.528    19811581.703
      -748.798        -583.479
   9652860.281 8   7521384.81346  23988327.274    23988326.7684   23988332.0394
     -2347.553       -1829.262
  -5812148.304 9  -4521771.56448  19946556.128    19946554.9834   19946559.1104
       -32.823         -25.576
 -20423836.063 9 -15898530.82248  19841795.655    19841794.6994   19841799.2794
      2037.273        1587.485
  -7750738.913 9  -6019226.23146  23159221.617    23159220.6744   23159225.3704
      4089.078        3186.294
 -25790465.150 9 -19524953.82648  20371784.385    20371783.7124   20371788.2324
      2258.840        1760.135
 96 10 16 17 28 59.9960000  0  9 17  1  9 28 26 23 21 31  3         -0.003896611
  -2868978.021 9  -2184984.47748  20146641.851    20146640.7074   20146645.6174
      -520.142        -405.305
 -23032296.856 9 -17914983.05447  20922786.399    20922785.5144   20922790.8154
      4199.580        3272.400
 -12279554.962 9  -9324339.69545  22836229.735    22836229.0274   22836234.1754
      2497.668        1946.235
  -9312771.464 9  -7242867.737 9  19815897.266    19815896.462    19815900.632
      -764.850        -595.987
   9723309.644 8   7576280.32446  24001733.489    24001732.9444   24001738.0594
     -2350.026       -1831.189
  -5811104.475 9  -4520958.19648  19946754.764    19946753.6074   19946757.7284
       -37.466         -29.194
 -20484866.819 9 -15946087.24848  19830181.912    19830180.9304   19830185.5264
      2030.727        1582.385
  -7873301.891 9  -6114729.80946  23135898.522    23135897.7324   23135902.3884
      4081.230        3180.179
 -25857968.172 9 -19577553.58148  20358939.049    20358938.3594   20358942.8634
      2240.664        1745.972
 96 10 16 17 29 29.9960000  0  9 17  1  9 28 26 23 21 31  3         -0.003918583
  -2853243.590 9  -2172723.90348  20149635.999    20149634.8774   20149639.8224
      -528.955        -412.173
 -23158156.637 9 -18013055.57647  20898835.978    20898835.0914   20898840.4344
      4190.926        3265.657
 -12354335.203 8  -9382610.01345  22821999.606    22821998.9094   22822003.9324
      2487.666        1938.441
  -9289608.094 9  -7224818.380 9  19820305.148    19820304.358    19820308.487
      -779.420        -607.340
   9793833.682 8   7631234.03645  24015153.878    24015153.3064   24015158.3344
     -2351.545       -1832.373
  -5809928.738 9  -4520042.04448  19946978.517    19946977.3434   19946981.4484
       -41.023         -31.966
 -20545712.931 9 -15993499.79848  19818603.265    19818602.3034   19818606.9004
      2025.669        1578.443
  -7995648.428 9  -6210064.75946  23112616.736    23112615.9164   23112620.5154
      4074.691        3175.084
 -25924945.193 9 -19629743.46248  20346193.741    20346193.0764   20346197.5924
      2224.317        1733.234
 96 10 16 17 29 59.9960000  0  9 17  1  9 28 26 23 21 31  3         -0.003940596
  -2837201.343 9  -2160223.46648  20152688.790    20152687.6934   20152692.5914
      -540.371        -421.068
 -23283719.543 9 -18110896.76247  20874942.123    20874941.2274   20874946.5784
      4180.307        3257.382
 -12428783.443 8  -9440621.61845  22807832.496    22807831.8864   22807836.8554
      2475.518        1928.975
  -9265969.889 9  -7206399.019 9  19824803.384    19824802.595    19824806.701
      -796.208        -620.422
   9864443.455 9   7686254.54145  24028590.581    24028590.0844   24028595.0534
     -2355.605       -1835.536
  -5808601.979 9  -4519008.21648  19947230.952    19947229.8154   19947233.9374
       -47.164         -36.751
 -20606374.103 9 -16040768.23548  19807059.839    19807058.8784   19807063.4434
      2018.549        1572.895
  -8117741.288 9  -6305202.03846  23089383.210    23089382.4174   23089387.0764
      4064.910        3167.462
 -25991393.679 9 -19681521.50348  20333549.023    20333548.3464   20333552.9044
      2205.561        1718.619
 96 10 16 17 30 29.9960000  0  9 17  1  9 28 26 23 21 31  3         -0.003962630
  -2820823.087 9  -2147461.21248  20155805.523    20155804.4194   20155809.3134
      -551.725        -429.916
 -23408980.972 9 -18208503.03247  20851105.610    20851104.7524   20851110.1044
      4170.202        3249.508
 -12502869.412 8  -9498350.94145  22793734.413    22793733.6374   22793738.8814
      2463.248        1919.414
  -9241840.445 9  -7187596.878 9  19829395.118    19829394.302    19829398.398
      -812.640        -633.226
   9935162.891 8   7741360.52045  24042048.135    24042047.5874   24042052.5624
     -2359.333       -1838.441
  -5807107.321 9  -4517843.55548  19947515.415    19947514.2914   19947518.3984
       -52.722         -41.082
 -20666834.056 9 -16087879.88148  19795554.653    19795553.6944   19795558.2574
      2011.822        1567.654
  -8239541.111 9  -6400110.98546  23066205.547    23066204.6434   23066209.2584
      4054.583        3159.415
 -26057283.409 9 -19732864.14848  20321010.628    20321009.9364   20321014.4994
      2186.937        1704.107
 96 10 16 17 30 59.9960000  0  9 17  1  9 28 26 23 21 31  3         -0.003984681
  -2804111.139 9  -2134438.94248  20158985.731    20158984.6074   20158989.5574
      -562.562        -438.360
 -23533950.652 9 -18305881.96647  20827324.729    20827323.8644   20827329.1524
      4160.941        3242.292
 -12576594.191 8  -9555798.82046  22779705.116    22779704.3324   22779709.5424
      2451.522        1910.277
  -9217227.590 9  -7168418.055 9  19834078.759    19834077.969    19834082.107
      -828.423        -645.524
  10005995.309 8   7796554.52345  24055527.211    24055526.6774   24055531.8484
     -2363.026       -1841.319
  -5805460.380 9  -4516560.23948  19947828.882    19947827.7224   19947831.8434
       -57.325         -44.669
 -20727099.196 9 -16134839.72248  19784086.627    19784085.6764   19784090.1874
      2005.579        1562.789
  -8361030.425 9  -6494777.96946  23043086.962    23043086.0464   23043090.6674
      4044.273        3151.381
 -26122629.898 9 -19783783.49048  20308575.614    20308574.9144   20308579.4224
      2169.091        1690.201
 96 10 16 17 31 29.9960000  0  9 17  1  9 28 26 23 21 31  3         -0.004006740
  -2787072.834 9  -2121162.36248  20162228.012    20162226.9114   20162231.8554
      -573.266        -446.701
 -23658638.000 9 -18403040.90047  20803597.525    20803596.6524   20803601.8954
      4151.512        3234.944
 -12649950.716 9  -9612959.74146  22765745.749    22765745.0514   22765750.1684
      2438.938        1900.471
  -9192136.179 9  -7148866.329 9  19838853.533    19838852.741    19838856.881
      -844.357        -657.941
  10076937.476 9   7851834.04445  24069027.132    24069026.6964   24069031.8614
     -2366.144       -1843.749
  -5803667.105 9  -4515162.88648  19948170.151    19948168.9904   19948173.1164
       -62.268         -48.521
 -20787171.665 9 -16181649.43148  19772655.229    19772654.2624   19772658.7874
      1999.246        1557.854
  -8482186.279 9  -6589185.12046  23020031.714    23020030.7624   23020035.5334
      4032.605        3142.290
 -26187425.678 9 -19834273.70948  20296245.423    20296244.7024   20296249.1754
      2150.546        1675.750
 96 10 16 17 31 59.9950000  0  9 17  1  9 28 26 23 21 31  3         -0.004028800
  -2769727.448 9  -2107646.49648  20165528.770    20165527.6834   20165532.6124
      -583.200        -454.442
 -23783044.187 9 -18499980.75047  20779923.844    20779922.9504   20779928.1634
      4142.280        3227.751
 -12722935.991 9  -9669831.37746  22751857.101    22751856.3024   22751861.5554
      2426.606        1890.862
  -9166572.593 9  -7128946.672 9  19843718.186    19843717.382    19843721.477
      -860.123        -670.226
  10147958.229 9   7907174.79945  24082542.042    24082541.4814   24082546.6854
     -2368.773       -1845.797
  -5801731.940 9  -4513654.97648  19948538.418    19948537.2804   19948541.3984
       -66.857         -52.096
 -20847060.217 9 -16228315.83048  19761258.818    19761257.8714   19761262.3394
      1993.096        1553.062
  -8602994.371 9  -6683321.28246  22997042.618    22997041.7484   22997046.6444
      4021.576        3133.696
 -26251664.451 9 -19884329.89548  20284021.250    20284020.5444   20284024.9714
      2132.069        1661.352
 96 10 16 17 32 29.9950000  0  9 17  1  9 28 26 23 21 31  3         -0.004050872
  -2752098.171 9  -2093909.41448  20168883.525    20168882.4344   20168887.3644
      -592.496        -461.685
 -23907170.434 9 -18596702.45947  20756303.401    20756302.5204   20756307.6924
      4132.125        3219.838
 -12795548.610 9  -9726412.61846  22738039.431    22738038.5884   22738043.8694
      2413.871        1880.938
  -9140539.325 9  -7108661.024 9  19848672.157    19848671.366    19848675.442
      -875.952        -682.560
  10219041.902 8   7962564.60945  24096068.949    24096068.4014   24096073.7144
     -2370.632       -1847.246
  -5799668.725 9  -4512047.28248  19948931.044    19948929.8934   19948934.0074
       -71.266         -55.532
 -20906759.749 9 -16274834.93448  19749898.388    19749897.4244   19749901.9364
      1986.386        1547.833
  -8723491.790 9  -6777215.34546  22974112.680    22974111.8224   22974116.8504
      4010.944        3125.411
 -26315356.262 9 -19933959.88048  20271901.071    20271900.3894   20271904.8324
      2113.576        1646.942
 96 10 16 17 32 59.9950000  0  9 17  1  9 28 26 23 21 31  3         -0.004072954
  -2734194.097 9  -2079958.21548  20172290.522    20172289.4524   20172294.4224
      -602.002        -469.092
 -24030983.300 9 -18693179.98848  20732742.559    20732741.6744   20732746.8244
      4121.266        3211.376
 -12867781.078 9  -9782697.64946  22724294.005    22724293.1354   22724298.5434
      2400.856        1870.797
  -9114031.810 9  -7088005.843 9  19853716.365    19853715.573    19853719.671
      -892.020        -695.081
  10290172.471 9   8017990.94645  24109604.829    24109604.3534   24109609.5114
     -2372.178       -1848.450
  -5797470.667 9  -4510334.52148  19949349.334    19949348.1754   19949352.3144
       -76.215         -59.388
 -20966255.243 9 -16321195.05748  19738576.726    19738575.7714   19738580.3284
      1979.127        1542.177
  -8843674.086 9  -6870863.86846  22951242.747    22951241.8334   22951247.0124
      4000.262        3117.087
 -26378492.911 9 -19983157.27548  20259886.516    20259885.8384   20259890.3534
      2094.465        1632.051
 96 10 16 17 33 29.9950000  0  9 17  1  9 28 26 23 21 31  3         -0.004095050
  -2716013.143 9  -2065791.27048  20175750.260    20175749.1724   20175754.1554
      -610.832        -475.973
 -24154480.940 9 -18789411.88348  20709241.703    20709240.8444   20709245.9794
      4111.260        3203.579
 -12939618.872 9  -9838675.12346  22710623.713    22710622.8984   22710628.3224
      2387.990        1860.771
  -9087054.220 9  -7066984.368 9  19858850.049    19858849.259    19858853.384
      -907.158        -706.876
  10361338.659 8   8073445.04345  24123147.386    24123146.8584   24123151.9124
     -2373.004       -1849.094
  -5795126.440 9  -4508507.86348  19949795.407    19949794.2924   19949798.4044
       -80.710         -62.891
 -21025542.926 9 -16367393.24248  19727294.662    19727293.7264   19727298.2764
      1972.647        1537.128
  -8963553.988 9  -6964276.76846  22928430.330    22928429.4344   22928434.6204
      3991.043        3109.904
 -26441061.595 9 -20031912.10048  20247980.066    20247979.4074   20247983.9444
      2076.156        1617.784
 96 10 16 17 33 59.9950000  0  9 17  1  9 28 26 23 21 31  3         -0.004117175
  -2697544.090 9  -2051399.82648  20179264.833    20179263.7694   20179268.7294
      -620.228        -483.295
 -24277660.157 9 -18885395.65248  20685801.461    20685800.6264   20685805.7004
      4100.962        3195.555
 -13011063.727 9  -9894346.43546  22697028.225    22697027.4194   22697032.8464
      2375.198        1850.804
  -9059601.759 9  -7045592.867 9  19864074.122    19864073.314    19864077.439
      -922.701        -718.988
  10432565.679 8   8128946.55545  24136701.431    24136700.8224   24136706.2464
     -2375.238       -1850.835
  -5792630.690 9  -4506563.13248  19950270.358    19950269.2464   19950273.3304
       -85.313         -66.478
 -21084607.199 9 -16413417.34448  19716055.099    19716054.1574   19716058.7314
      1965.229        1531.347
  -9083144.278 9  -7057463.98146  22905673.124    22905672.2014   22905677.2354
      3981.741        3102.655
 -26503063.826 9 -20080225.53448  20236181.457    20236180.7974   20236185.3164
      2057.632        1603.350
 96 10 16 17 34 29.9950000  0  9 17  1  9 28 26 23 21 31  3         -0.004139334
  -2678786.592 9  -2036783.61848  20182834.279    20182833.2184   20182838.2014
      -630.225        -491.084
 -24400529.331 9 -18981137.83248  20662420.226    20662419.3924   20662424.4084
      4090.503        3187.405
 -13082133.913 9  -9949725.78646  22683504.184    22683503.2664   22683508.6274
      2362.932        1841.246
  -9031685.856 9  -7023840.239 9  19869386.326    19869385.540    19869389.634
      -938.207        -731.070
  10503868.527 8   8184507.14345  24150269.980    24150269.3854   24150274.8704
     -2378.208       -1853.149
  -5790006.428 9  -4504518.26248  19950769.775    19950768.6234   19950772.7094
       -89.455         -69.705
 -21143451.546 9 -16459270.07148  19704857.356    19704856.4244   19704861.0404
      1957.992        1525.708
  -9202443.796 9  -7150424.61946  22882971.173    22882970.2304   22882975.1524
      3971.393        3094.592
 -26564508.381 9 -20128104.40648  20224488.981    20224488.3214   20224492.8214
      2038.785        1588.664
 96 10 16 17 34 59.9950000  0  9 17  1  9 28 26 23 21 31  3         -0.004161527
  -2659737.007 9  -2021939.81248  20186459.279    20186458.2514   20186463.2804
      -639.347        -498.192
 -24523111.198 9 -19076656.13048  20639093.652    20639092.7934   20639097.8034
      4082.087        3180.847
 -13152852.769 9 -10004831.36046  22670046.848    22670045.9404   22670051.2924
      2351.952        1832.690
  -9003322.114 9  -7001738.641 9  19874783.753    19874782.982    19874787.057
      -952.279        -742.036
  10575254.386 8   8240132.44545  24163854.160    24163853.6994   24163859.3674
     -2380.348       -1854.817
  -5787276.487 9  -4502391.04648  19951289.274    19951288.1394   19951292.1764
       -92.088         -71.757
 -21202101.663 9 -16504971.45548  19693696.607    19693695.6674   19693700.2994
      1952.376        1521.332
  -9321437.842 9  -7243147.23846  22860327.384    22860326.4394   22860331.2374
      3961.964        3087.245
 -26625405.949 9 -20175557.06548  20212900.555    20212899.9094   20212904.4104
      2021.457        1575.161
 96 10 16 17 35 29.9950000  0  8 17  1  9 28 23 21 31  3            -0.004183772
  -2640410.649 9  -2006880.34048  20190136.959    20190135.9144   20190140.9714
      -648.648        -505.440
 -24645439.304 9 -19171976.70548  20615815.354    20615814.4974   20615819.5174
      4073.376        3174.059
 -13223241.087 9 -10059679.37546  22656652.191    22656651.3904   22656656.8974
      2340.933        1824.104
  -8974535.648 9  -6979307.657 9  19880261.652    19880260.858    19880264.952
      -966.514        -753.128
  -5784472.533 9  -4500206.15848  19951822.813    19951821.6914   19951825.7544
       -94.462         -73.607
 -21260582.367 9 -16550540.83248  19682568.061    19682567.1214   19682571.7444
      1946.743        1516.943
  -9440147.477 9  -7335648.23146  22837737.671    22837736.7864   22837741.4434
      3952.186        3079.625
 -26685789.924 9 -20222609.51948  20201409.830    20201409.1854   20201413.7214
      2004.606        1562.031
 96 10 16 17 35 59.9950000  0  8 17  1  9 28 23 21 31  3            -0.004206035
  -2620779.027 9  -1991583.00548  20193872.736    20193871.7274   20193876.7354
      -659.540        -513.927
 -24767463.205 9 -19267060.23148  20592594.917    20592594.0514   20592599.1014
      4062.097        3165.270
 -13293261.674 9 -10114240.86146  22643327.675    22643326.9324   22643332.3754
      2327.690        1813.784
  -8945287.388 9  -6956516.831 9  19885827.429    19885826.635    19885830.743
      -982.705        -765.744
  -5781563.682 9  -4497939.53148  19952376.366    19952375.2454   19952379.2884
       -98.902         -77.066
 -21318867.091 9 -16595957.50048  19671476.824    19671475.9014   19671480.5134
      1939.548        1511.336
  -9558522.749 9  -7427888.69846  22815211.475    22815210.6394   22815215.2804
      3939.927        3070.073
 -26745635.141 9 -20269242.16348  20190021.640    20190021.0044   20190025.5624
      1985.668        1547.274
 96 10 16 17 36 29.9950000  0  8 17  1  9 28 23 21 31  3            -0.004228294
  -2600828.430 9  -1976037.11148  20197669.240    20197668.2194   20197673.2254
      -670.490        -522.460
 -24889153.246 9 -19361883.61348  20569437.994    20569437.1544   20569442.2354
      4050.551        3156.274
 -13362886.105 9 -10168493.64546  22630078.618    22630077.8574   22630083.3034
      2313.781        1802.946
  -8915566.488 9  -6933357.711 9  19891483.121    19891482.330    19891486.485
      -998.682        -778.194
  -5778523.520 9  -4495570.58248  19952954.881    19952953.7774   19952957.8184
      -103.886         -80.950
 -21376948.848 9 -16641216.00448  19660424.233    19660423.3104   19660427.9074
      1932.535        1505.871
  -9676532.576 9  -7519844.40445  22792755.047    22792754.1474   22792758.9204
      3927.474        3060.369
 -26804918.335 9 -20315436.86548  20178740.397    20178739.7734   20178744.3924
      1966.598        1532.414
 96 10 16 17 36 59.9950000  0  8 17  1  9 28 23 21 31  3            -0.004250556
  -2580566.774 9  -1960248.83348  20201524.946    20201523.9064   20201528.9064
      -680.652        -530.378
 -25010514.584 9 -19456450.85848  20546343.608    20546342.8084   20546347.9714
      4039.653        3147.782
 -13432097.220 9 -10222424.36547  22616908.096    22616907.3924   22616912.9054
      2299.774        1792.032
  -8885381.534 9  -6909836.992 9  19897227.130    19897226.357    19897230.498
     -1014.047        -790.166
  -5775335.219 9  -4493086.20148  19953561.568    19953560.4844   19953564.5254
      -109.126         -85.033
 -21434836.034 9 -16686322.90748  19649408.677    19649407.7664   19649412.3424
      1926.043        1500.813
  -9794194.019 9  -7611528.64445  22770364.787    22770363.8734   22770368.6534
      3916.248        3051.622
 -26863647.572 9 -20361199.91348  20167564.548    20167563.9384   20167568.6304
      1948.143        1518.034
 96 10 16 17 37 29.9950000  0  8 17  1  9 28 23 21 31  3            -0.004272842
  -2560021.835 9  -1944239.83248  20205434.500    20205433.4954   20205438.5454
      -689.357        -537.161
 -25131558.777 9 -19550770.98148  20523309.666    20523308.8494   20523314.0194
      4029.574        3139.928
 -13500904.573 9 -10276040.45547  22603814.528    22603813.8224   22603819.3924
      2287.078        1782.139
  -8854757.174 9  -6885973.884 9  19903054.784    19903053.974    19903058.148
     -1027.956        -801.005
  -5772011.146 9  -4490496.02948  19954194.128    19954193.0564   19954197.0744
      -112.937         -88.003
 -21492540.277 9 -16731287.24948  19638427.952    19638427.0594   19638431.5704
      1920.523        1496.511
  -9911539.462 9  -7702966.62845  22748034.692    22748033.6614   22748038.4504
      3906.267        3043.844
 -26921837.387 9 -20406542.63548  20156491.479    20156490.8594   20156495.5354
      1930.734        1504.468
 96 10 16 17 37 59.9950000  0  8 17  1  9 28 23 21 31  3            -0.004295138
  -2539175.166 9  -1927995.69548  20209401.556    20209400.5414   20209405.5664
      -699.748        -545.258
 -25252254.060 9 -19644819.22348  20500342.130    20500341.2904   20500346.4554
      4017.668        3130.650
 -13569291.039 9 -10329328.58047  22590801.105    22590800.3594   22590805.8534
      2272.811        1771.022
  -8823675.561 9  -6861754.468 9  19908969.418    19908968.644    19908972.799
     -1043.443        -813.072
  -5768523.408 9  -4487778.32048  19954857.869    19954856.7954   19954860.7804
      -118.895         -92.645
 -21550034.691 9 -16776088.08948  19627487.112    19627486.2204   19627490.7004
      1913.077        1490.709
 -10028545.333 9  -7794140.02645  22725769.180    22725768.2534   22725772.9754
      3894.679        3034.815
 -26979448.657 9 -20451434.53048  20145528.406    20145527.7914   20145532.4614
      1910.616        1488.792
 96 10 16 17 38 29.9950000  0  8 17  1  9 28 23 21 31  3            -0.004317470
  -2518036.953 9  -1911524.38748  20213424.107    20213423.0574   20213428.0214
      -709.264        -552.673
 -25372634.430 9 -19738622.08248  20477434.531    20477433.6914   20477438.8134
      4007.853        3123.002
 -13637278.755 9 -10382305.98647  22577863.440    22577862.6584   22577868.1714
      2259.912        1760.970
  -8792157.590 9  -6837195.036 9  19914967.107    19914966.336    19914970.480
     -1057.615        -824.115
  -5764885.883 9  -4484943.89748  19955550.091    19955549.0114   19955552.9964
      -123.261         -96.047
 -21607324.455 9 -16820729.46448  19616585.255    19616584.3534   19616588.8114
      1906.535        1485.612
 -10145231.419 9  -7885064.23445  22703564.656    22703563.6964   22703568.3044
      3884.596        3026.958
 -27036484.745 9 -20495878.24448  20134674.786    20134674.1714   20134678.8164
      1892.035        1474.313
 96 10 16 17 38 59.9950000  0  8 17  1  9 28 23 21 31  3            -0.004339820
  -2496562.769 9  -1894791.28148  20217510.579    20217509.5154   20217514.4414
      -721.459        -562.176
 -25492670.733 9 -19832156.83748  20454592.359    20454591.5114   20454596.5934
      3995.301        3113.222
 -13704835.431 9 -10434947.52847  22565007.832    22565007.0184   22565012.5344
      2244.725        1749.136
  -8760161.882 9  -6812263.333 9  19921055.724    19921054.949    19921059.072
     -1074.586        -837.340
  -5761072.304 9  -4481972.29048  19956275.809    19956274.7014   19956278.7084
      -129.986        -101.288
 -21664370.455 9 -16865180.88748  19605729.770    19605728.8624   19605733.3124
      1897.305        1478.419
 -10261567.258 9  -7975715.52045  22681426.681    22681425.6844   22681430.2044
      3871.885        3017.053
 -27092913.391 9 -20539848.62148  20123936.790    20123936.1544   20123940.7944
      1870.645        1457.645
 96 10 16 17 39 29.9950000  0  8 17  1  9 28 23 21 31  3            -0.004362186
  -2474746.176 9  -1877791.37048  20221662.122    20221661.0674   20221666.0414
      -733.050        -571.208
 -25612345.390 9 -19925409.79148  20431819.021    20431818.1774   20431823.1814
      3982.974        3103.616
 -13771965.738 9 -10487256.83747  22552233.398    22552232.5894   22552238.0204
      2230.555        1738.095
  -8727680.090 9  -6786952.871 9  19927236.822    19927236.029    19927240.161
     -1090.893        -850.046
  -5757087.923 9  -4478867.58948  19957034.011    19957032.9084   19957036.8934
      -135.755        -105.783
 -21721159.150 9 -16909431.82048  19594923.199    19594922.3064   19594926.7904
      1888.673        1471.693
 -10377541.391 9  -8066084.95745  22659357.511    22659356.5634   22659360.9274
      3859.641        3007.512
 -27148720.223 9 -20583334.47248  20113317.152    20113316.5294   20113321.1494
      1849.810        1441.410
 96 10 16 17 39 59.9950000  0  8 17  1  9 28 23 21 31  3            -0.004384570
  -2452587.572 9  -1860524.96148  20225878.798    20225877.7384   20225882.7224
      -744.462        -580.100
 -25731656.398 9 -20018379.38348  20409114.945    20409114.0694   20409118.9894
      3970.897        3094.205
 -13838677.113 9 -10539239.70447  22539538.704    22539537.8614   22539543.2814
      2216.657        1727.265
  -8694721.902 9  -6761271.192 9  19933508.546    19933507.787    19933511.931
     -1106.607        -862.291
  -5752937.748 9  -4475633.70448  19957823.775    19957822.6634   19957826.6634
      -141.040        -109.901
 -21777708.164 9 -16953495.98148  19584162.283    19584161.3864   19584165.8884
      1881.082        1465.778
 -10493163.192 9  -8156179.84946  22637355.429    22637354.4884   22637358.8084
      3848.078        2998.502
 -27203911.284 9 -20626340.50648  20102814.688    20102814.0694   20102818.6804
      1829.356        1425.472
 96 10 16 17 40 29.9950000  0  8 17  1  9 28 23 21 31  3            -0.004406965
  -2430082.869 9  -1842988.85248  20230161.356    20230160.2864   20230165.2514
      -755.599        -588.778
 -25850604.202 9 -20111065.95348  20386479.914    20386479.0554   20386483.9434
      3958.896        3084.854
 -13904971.534 9 -10590897.66747  22526923.254    22526922.4234   22526927.8564
      2203.097        1716.699
  -8661292.890 9  -6735222.638 9  19939869.911    19939869.146    19939873.273
     -1121.848        -874.167
  -5748638.964 9  -4472284.01548  19958641.860    19958640.7294   19958644.7224
      -145.436        -113.327
 -21834034.264 9 -16997386.45348  19573443.819    19573442.9044   19573447.4084
      1874.190        1460.408
 -10608428.345 9  -8245996.83346  22615421.190    22615420.1824   22615424.4414
      3836.372        2989.381
 -27258499.398 9 -20668876.71048  20092426.928    20092426.3084   20092430.8744
      1810.037        1410.418
 96 10 16 17 40 59.9950000  0  8 17  1  9 28 23 21 31  3            -0.004429362
  -2407236.648 9  -1825186.63548  20234508.888    20234507.8204   20234512.7854
      -767.695        -598.204
 -25969164.265 9 -20203450.39248  20363918.707    20363917.8474   20363922.7304
      3944.749        3073.830
 -13970841.207 9 -10642224.67747  22514388.585    22514387.8054   22514393.2824
      2187.795        1704.775
  -8627395.064 9  -6708808.772 9  19946320.492    19946319.698    19946323.825
     -1138.333        -887.013
  -5744190.930 9  -4468818.02748  19959488.327    19959487.1924   19959491.1884
      -151.446        -118.010
 -21890143.492 9 -17041107.92448  19562766.612    19562765.6854   19562770.1874
      1866.036        1454.054
 -10723326.731 9  -8335528.01146  22593556.676    22593555.7394   22593560.1304
      3823.062        2979.009
 -27312484.852 9 -20710943.30848  20082153.855    20082153.2164   20082157.7604
      1788.667        1393.766
 96 10 16 17 41 29.9950000  0  8 17  1  9 28 23 21 31  3            -0.004451741
  -2384054.425 9  -1807122.59048  20238920.356    20238919.2904   20238924.2204
      -778.262        -606.438
 -26087320.139 9 -20295519.87448  20341434.365    20341433.5164   20341438.4314
      3932.009        3063.903
 -14036264.382 9 -10693203.75347  22501938.958    22501938.1674   22501943.6174
      2173.371        1693.536
  -8593025.679 9  -6682027.458 9  19952860.749    19952859.990    19952864.125
     -1153.353        -898.717
  -5739584.344 9  -4465228.49748  19960364.928    19960363.8024   19960367.7954
      -156.042        -121.591
 -21946028.534 9 -17084654.70948  19552132.060    19552131.1634   19552135.6554
      1859.190        1448.719
 -10837832.699 9  -8424753.41946  22571766.885    22571765.9744   22571770.4304
      3810.094        2968.904
 -27365851.392 9 -20752527.63348  20071998.530    20071997.9014   20072002.4314
      1768.607        1378.135
 96 10 16 17 41 59.9950000  0  8 17  1  9 28 23 21 31  3            -0.004474086
  -2360530.425 9  -1788792.22648  20243396.863    20243395.7314   20243400.6974
      -790.368        -615.871
 -26205081.341 9 -20387281.81748  20319025.169    20319024.2804   20319029.2124
      3918.399        3053.298
 -14101230.310 9 -10743826.54147  22489576.403    22489575.6194   22489581.0124
      2157.285        1681.001
  -8558186.915 9  -6654880.392 9  19959490.368    19959489.607    19959493.770
     -1169.700        -911.455
  -5734823.808 9  -4461518.99348  19961270.806    19961269.6904   19961273.6904
      -161.761        -126.047
 -22001691.328 9 -17128028.31648  19541539.852    19541538.9184   19541543.4044
      1851.093        1442.410
 -10951918.493 9  -8513651.41546  22550057.120    22550056.1914   22550060.5544
      3794.968        2957.118
 -27418591.786 9 -20793624.05748  20061962.418    20061961.7724   20061966.2814
      1746.977        1361.281
 96 10 16 17 42 29.9950000  0  8 17  1  9 28 23 21 31  3            -0.004496389
  -2336664.686 9  -1770195.57948  20247938.349    20247937.2604   20247942.2354
      -800.977        -624.138
 -26322454.659 9 -20478741.51248  20296689.749    20296688.8504   20296693.7614
      3906.027        3043.657
 -14165725.288 9 -10794082.34747  22477303.392    22477302.5914   22477307.9474
      2141.882        1668.999
  -8522870.043 9  -6627360.778 9  19966210.987    19966210.202    19966214.394
     -1185.070        -923.431
  -5729901.999 9  -4457683.83648  19962207.414    19962206.2744   19962210.2864
      -166.809        -129.981
 -22057119.063 9 -17171218.76048  19530992.327    19530991.3754   19530995.8494
      1843.775        1436.708
 -11065552.416 9  -8602197.31346  22528433.265    22528432.3644   22528436.6744
      3780.337        2945.717
 -27470703.801 9 -20834230.82848  20052045.806    20052045.1694   20052049.6914
      1726.817        1345.572
 96 10 16 17 42 59.9950000  0  8 17  1  9 28 23 21 31  3            -0.004518659
  -2312482.146 9  -1751352.07248  20252540.176    20252539.0814   20252544.0664
      -811.767        -632.546
 -26439452.969 9 -20569908.99448  20274425.716    20274424.8254   20274429.6744
      3893.475        3033.877
 -14229745.643 9 -10843968.31547  22465120.666    22465119.8944   22465125.2314
      2125.661        1656.359
  -8487093.898 9  -6599483.279 9  19973019.020    19973018.219    19973022.396
     -1200.486        -935.444
  -5724831.418 9  -4453732.74348  19963172.301    19963171.1824   19963175.1984
      -171.691        -133.785
 -22112327.674 9 -17214238.45048  19520486.474    19520485.5364   19520490.0284
      1836.284        1430.871
 -11178757.129 9  -8690408.76146  22506891.076    22506890.1084   22506894.5104
      3766.150        2934.662
 -27522206.171 9 -20874362.55548  20042245.235    20042244.6364   20042249.1554
      1706.224        1329.525
